[[{"header":{"parameterUnit":"m.s-1","parameterCategory":1,"la1":30.6,"la2":29.2853,"lo1":-89.7004,"lo2":-87.6739,"dy":0.0162,"dx":0.0183,"nx":112,"ny":82,"refTime":"2025-08-13T00:00:00:Z","depth":0,"parameterNumber":2,"parameterNumberName":"U-component_of_WINDS"},"data":[0.0,0.0,0.0,0.0,0.0,0.0,0.0,0.0,0.0,0.0,0.0,0.0,0.0,0.0,0.0,0.0,0.0,0.0,0.0,0.0,0.0,0.0,0.0,0.0,0.0,0.0,0.0,0.0,0.0,0.0,0.0,0.0,0.0,0.0,0.0,0.0,0.0,0.0,0.0,0.0,0.0,0.0,0.0,0.0,0.0,0.0,0.0,0.0,0.0,0.0,0.0,0.0,0.0,0.0,0.0,0.0,0.0,0.0,0.0,0.0,0.0,0.0,0.0,0.0,0.0,0.0,0.0,0.0,0.0,0.0,0.0,0.0,0.0,0.0,0.0,0.0,0.0,0.0,0.0,0.0,0.0,0.0,0.0,0.0,0.0,0.0,0.0,0.0,0.0,0.0,0.7696,0.8947,1.0852,1.2034,1.2034,1.1856,1.101,0.9206,0.0,0.0,0.0,0.0,0.0,0.0,0.0,0.0,0.0,0.0,0.0,0.0,0.0,0.0,0.0,0.0,0.0,0.0,0.0,0.0,0.0,0.0,0.0,0.0,0.0,0.0,0.0,0.0,0.0,0.0,0.0,0.0,0.0,0.0,0.0,0.0,0.0,0.0,0.0,0.0,0.0,0.0,0.0,0.0,0.0,0.0,0.0,0.0,0.0,0.0,0.0,0.0,0.0,0.0,0.0,0.0,0.0,0.0,0.0,0.0,0.0,0.0,0.0,0.0,0.0,0.0,0.0,0.0,0.0,0.0,0.0,0.0,0.0,0.0,0.0,0.0,0.0,0.0,0.0,0.0,0.0,0.0,0.0,0.0,0.0,0.0,0.0,0.0,0.0,0.0,0.0,0.0,0.0,0.0,0.0,0.0,0.0,0.0,0.0,0.0,0.0,0.0,0.0,0.0,0.8537,1.0522,1.1853,1.2589,1.2589,1.1736,1.0702,0.9502,0.0,0.0,0.0,0.0,0.0,0.0,0.0,0.0,0.0,0.0,0.0,0.0,0.0,0.0,0.0,0.0,0.0,0.0,0.0,0.0,0.0,0.0,0.0,0.0,0.0,0.0,0.0,0.0,0.0,0.0,0.0,0.0,0.0,0.0,0.0,0.0,0.0,0.0,0.0,0.0,0.0,0.0,0.0,0.0,0.0,0.0,0.0,0.0,0.0,0.0,0.0,0.0,0.0,0.0,0.0,0.0,0.0,0.0,0.0,0.0,0.0,0.0,0.0,0.0,0.0,0.0,0.0,0.0,0.0,0.0,0.0,0.0,0.0,0.0,0.0,0.0,0.0,0.0,0.0,0.0,0.0,0.0,0.0,0.0,0.0,0.0,0.0,0.0,0.0,0.0,0.0,0.0,0.0,0.0,0.0,0.0,0.0,0.0,0.0,0.0,0.0,0.0,0.0,0.8141,0.9367,1.093,1.207,1.2709,1.2709,1.17,1.0701,0.9731,0.9043,0.0,0.0,0.0,0.0,0.0,0.0,0.0,0.0,0.0,0.0,0.0,0.0,0.0,0.0,0.0,0.0,0.0,0.0,0.0,0.0,0.0,0.0,0.0,0.0,0.0,0.0,0.0,0.0,0.0,0.0,0.0,0.0,0.0,0.0,0.0,0.0,0.0,0.0,0.0,0.0,0.0,0.0,0.0,0.0,0.0,0.0,0.0,0.0,0.0,0.0,0.0,0.0,0.0,0.0,0.0,0.0,0.0,0.0,0.0,0.0,0.0,0.0,0.0,0.0,0.0,0.0,0.0,0.0,0.0,0.0,0.0,0.0,0.0,0.0,0.0,0.0,0.0,0.0,0.0,0.0,0.0,0.0,0.0,0.0,0.0,0.0,0.0,0.0,0.0,0.0,0.0,0.0,0.0,0.0,0.0,0.0,0.0,0.0,0.0,0.0,0.0,0.0,0.9391,1.0245,1.1183,1.2155,1.2709,1.2709,1.1592,1.0556,0.9772,0.8636,0.0,0.0,0.0,0.0,0.0,0.0,0.0,0.0,0.0,0.0,0.0,0.0,0.0,0.0,0.0,0.0,0.0,0.0,0.0,0.0,0.0,0.0,0.0,0.0,0.0,0.0,0.0,0.0,0.0,0.0,0.0,0.0,0.0,0.0,0.0,0.0,0.0,0.0,0.0,0.0,0.0,0.0,0.0,0.0,0.0,0.0,0.0,0.0,0.0,0.0,0.0,0.0,0.0,0.0,0.0,0.0,0.0,0.0,0.0,0.0,0.0,0.0,0.0,0.0,0.0,0.0,0.0,0.0,0.0,0.0,0.0,0.0,0.0,0.0,0.0,0.0,0.0,0.0,0.0,0.0,0.0,0.0,0.0,0.0,0.0,0.0,0.0,0.0,0.0,0.0,0.0,0.0,0.0,0.0,0.0,0.0,0.0,0.0,0.0,0.0,0.0,0.0,1.0029,1.1207,1.1772,1.2372,1.2709,1.2709,1.1255,1.0125,0.956,0.8223,0.0,0.0,0.0,0.0,0.0,0.0,0.0,0.0,0.0,0.0,0.0,0.0,0.0,0.0,0.0,0.0,0.0,0.0,0.0,0.0,0.0,0.0,0.0,0.0,0.0,0.0,0.0,0.0,0.0,0.0,0.0,0.0,0.0,0.0,0.0,0.0,0.0,0.0,0.0,0.0,0.0,0.0,0.0,0.0,0.0,0.0,0.0,0.0,0.0,0.0,0.0,0.0,0.0,0.0,0.0,0.0,0.0,0.0,0.0,0.0,0.0,0.0,0.0,0.0,0.0,0.0,0.0,0.0,0.0,0.0,0.0,0.0,0.0,0.0,0.0,0.0,0.0,0.0,0.0,0.0,0.0,0.0,0.0,0.0,0.0,0.0,0.0,0.0,0.0,0.0,0.0,0.0,0.0,0.0,0.0,0.0,0.0,0.0,0.0,0.0,0.0,0.0,0.9812,1.093,1.1829,1.2396,1.2709,1.2709,1.152,1.0437,0.9545,0.0,0.0,0.0,0.0,0.0,0.0,0.0,0.0,0.0,0.0,0.0,0.0,0.0,0.0,0.0,0.0,0.0,0.0,0.0,0.0,0.0,0.0,0.0,0.0,0.0,0.0,0.0,0.0,0.0,0.0,0.0,0.0,0.0,0.0,0.0,0.0,0.0,0.0,0.0,0.0,0.0,0.0,0.0,0.0,0.0,0.0,0.0,0.0,0.0,0.0,0.0,0.0,0.0,0.0,0.0,0.0,0.0,0.0,0.0,0.0,0.0,0.0,0.0,0.0,0.0,0.0,0.0,0.0,0.0,0.0,0.0,0.0,0.0,0.0,0.0,0.0,0.0,0.0,0.0,0.0,0.0,0.0,0.0,0.0,0.0,0.0,0.0,0.0,0.0,0.0,0.0,0.0,0.0,0.0,0.0,0.0,0.0,0.0,0.0,0.0,0.0,0.0,0.8694,0.9896,1.0966,1.2058,1.2492,1.2709,1.2709,1.1556,1.0461,0.9545,0.0,0.0,0.0,0.0,0.0,0.0,0.0,0.0,0.0,0.0,0.0,0.0,0.0,0.0,0.0,0.0,0.0,0.0,0.0,0.0,0.0,0.0,0.0,0.0,0.0,0.0,0.0,0.0,0.0,0.0,0.0,0.0,0.0,0.0,0.0,0.0,0.0,0.0,0.0,0.0,0.0,0.0,0.0,0.0,0.0,0.0,0.0,0.0,0.0,0.0,0.0,0.0,0.0,0.0,0.0,0.0,0.0,0.0,0.0,0.0,0.0,0.0,0.0,0.0,0.0,0.0,0.0,0.0,0.0,0.0,0.0,0.0,0.0,0.0,0.0,0.0,0.0,0.0,0.0,0.0,0.0,0.0,0.0,0.0,0.0,0.0,0.0,0.0,0.0,0.0,0.0,0.0,0.0,0.0,0.0,0.0,0.0,0.0,0.0,0.0,0.0,0.0,0.9281,1.0449,1.1496,1.2601,1.2709,1.2709,1.2709,1.1219,1.0089,0.0,0.0,0.0,0.0,0.0,0.0,0.0,0.0,0.0,0.0,0.0,0.0,0.0,0.0,0.0,0.0,0.0,0.0,0.0,0.0,0.0,0.0,0.0,0.0,0.0,0.0,0.0,0.0,0.0,0.0,0.0,0.0,0.0,0.0,0.0,0.0,0.0,0.0,0.0,0.0,0.0,0.0,0.0,0.0,0.0,0.0,0.0,0.0,0.0,0.0,0.0,0.0,0.0,0.0,0.0,0.0,0.0,0.0,0.0,0.0,0.0,0.0,0.0,0.0,0.0,0.0,0.0,0.0,0.0,0.0,0.0,0.0,0.0,0.0,0.0,0.0,0.0,0.0,0.0,0.0,0.0,0.0,0.0,0.0,0.0,0.0,0.0,0.0,0.0,0.0,0.0,0.0,0.0,0.0,0.0,0.0,0.0,0.0,0.0,0.0,0.0,0.0,0.0,0.9233,1.0449,1.1496,1.2601,1.2709,1.2709,1.2709,1.1556,1.0473,0.9545,0.0,0.0,0.0,0.0,0.0,0.0,0.0,0.0,0.0,0.0,0.0,0.0,0.0,0.0,0.0,0.0,0.0,0.0,0.0,0.0,0.0,0.0,0.0,0.0,0.0,0.0,0.0,0.0,0.0,0.0,0.0,0.0,0.0,0.0,0.0,0.0,0.0,0.0,0.0,0.0,0.0,0.0,0.0,0.0,0.0,0.0,0.0,0.0,0.0,0.0,0.0,0.0,0.0,0.0,0.0,0.0,0.0,0.0,0.0,0.0,0.0,0.0,0.0,0.0,0.0,0.0,0.0,0.0,0.0,0.0,0.0,0.0,0.0,0.0,0.0,0.0,0.0,0.0,0.0,0.0,0.0,0.0,0.0,0.0,0.0,0.0,0.0,0.0,0.0,0.0,0.0,0.0,0.0,0.0,0.0,0.0,0.0,0.0,0.0,0.0,0.0,0.0,0.9245,1.0449,1.1496,1.2601,1.2709,1.2709,1.2709,1.1892,1.0966,0.9896,0.0,0.0,0.0,0.0,0.0,0.0,0.0,0.0,0.0,0.0,0.0,0.0,0.0,0.0,0.0,0.0,0.0,0.0,0.0,0.0,0.0,0.0,0.0,0.0,0.0,0.0,0.0,0.0,0.0,0.0,0.0,0.0,0.0,0.0,0.0,0.0,0.0,0.0,0.0,0.0,0.0,0.0,0.0,0.0,0.0,0.0,0.0,0.0,0.0,0.0,0.0,0.0,0.0,0.0,0.0,0.0,0.0,0.0,0.0,0.0,0.0,0.0,0.0,0.0,0.0,0.0,0.0,0.0,0.0,0.0,0.0,0.0,0.0,0.0,0.0,0.0,0.0,0.0,0.0,0.0,0.0,0.0,0.0,0.0,0.0,0.0,0.0,0.0,0.0,0.0,0.0,0.0,0.0,0.0,0.0,0.0,0.0,0.0,0.0,0.0,0.0,0.0,0.9293,1.0456,1.1523,1.2566,1.2674,1.2674,1.2709,1.2227,1.1435,1.0377,0.0,0.0,0.0,0.0,0.0,0.0,0.0,0.0,0.0,0.0,0.0,0.0,0.0,0.0,0.0,0.0,0.0,0.0,0.0,0.0,0.0,0.0,0.0,0.0,0.0,0.0,0.0,0.0,0.0,0.0,0.0,0.0,0.0,0.0,0.0,0.0,0.0,0.0,0.0,0.0,0.0,0.0,0.0,0.0,0.0,0.0,0.0,0.0,0.0,0.0,0.0,0.0,0.0,0.0,0.0,0.0,0.0,0.0,0.0,0.0,0.7955,0.751,0.0,0.0,0.0,0.0,0.0,0.0,0.0,0.0,0.0,0.0,0.0,0.0,0.0,0.0,0.0,0.0,0.0,0.0,0.0,0.0,0.0,0.0,0.0,0.0,0.0,0.0,0.0,0.0,0.0,0.0,0.0,0.0,0.0,0.0,0.0,0.0,0.0,0.0,0.0,0.0,0.9262,1.0494,1.1604,1.2437,1.2365,1.2377,1.2674,1.2227,1.1435,1.0377,0.9175,0.0,0.0,0.0,0.0,0.0,0.0,0.0,0.0,0.0,0.0,0.0,0.0,0.0,0.0,0.0,0.0,0.0,0.0,0.0,0.0,0.0,0.0,0.0,0.0,0.0,0.0,0.0,0.0,0.0,0.0,0.0,0.0,0.0,0.0,0.0,0.0,0.0,0.0,0.0,0.0,0.0,0.0,0.0,0.0,0.0,0.0,0.0,0.0,0.0,0.0,0.0,0.0,0.0,0.0,0.0,0.0,0.0,0.0,0.0,0.9124,0.8755,0.0,0.0,0.0,0.0,0.0,0.0,0.0,0.0,0.0,0.0,0.0,0.0,0.0,0.0,0.0,0.0,0.0,0.0,0.0,0.0,0.0,0.0,0.0,0.0,0.0,0.0,0.0,0.0,0.0,0.0,0.0,0.0,0.0,0.0,0.0,0.0,0.0,0.0,0.0,0.0,0.9615,1.0739,1.1733,1.2413,1.2401,1.2401,1.2674,1.2456,1.1928,1.1123,1.0053,0.0,0.0,0.0,0.0,0.0,0.0,0.0,0.0,0.0,0.0,0.0,0.0,0.0,0.0,0.0,0.0,0.0,0.0,0.0,0.0,0.0,0.0,0.0,0.0,0.0,0.0,0.0,0.0,0.0,0.0,0.0,0.0,0.0,0.0,0.0,0.0,0.0,0.0,0.0,0.0,0.0,0.0,0.0,0.0,0.0,0.0,0.0,0.0,0.0,0.0,0.0,0.0,0.0,1.0673,1.0601,1.0834,1.04,1.0456,1.0904,1.0428,1.0157,1.0078,0.9504,0.0,0.0,0.0,0.0,0.0,0.0,0.0,0.0,0.0,0.0,0.0,0.0,0.0,0.0,0.0,0.0,0.0,0.0,0.0,0.0,0.0,0.0,0.911,0.9457,0.9612,0.9448,0.8681,0.0,0.0,0.0,0.0,0.0,0.0,0.0,0.0,0.0,0.0,0.0,1.0102,1.1064,1.1861,1.2425,1.2437,1.2508,1.2674,1.2709,1.248,1.1916,1.0978,1.0209,0.0,0.0,0.0,0.0,0.0,0.0,0.0,0.0,0.0,0.0,0.0,0.0,0.0,0.0,0.0,0.0,0.0,0.0,0.0,0.0,0.0,0.0,0.0,0.0,0.0,0.0,0.0,0.0,0.0,0.0,0.0,0.0,0.52,0.5986,0.0,0.0,0.0,0.0,0.0,0.0,0.0,0.0,0.0,0.0,0.0,0.0,0.0,0.9601,0.9707,1.0565,1.1118,1.1261,1.164,1.1851,1.19,1.1844,1.1833,1.1925,1.1814,0.0,1.0577,1.0099,0.0,0.0,0.0,0.0,0.0,0.0,0.0,0.0,0.0,0.0,0.0,0.0,0.0,0.0,0.0,0.0,0.0,0.0,0.0,0.0,0.0,0.0,1.0517,1.0261,1.0452,1.0659,1.0535,0.951,0.8695,0.9057,0.8439,0.7827,0.0,0.0,0.0,0.0,0.0,0.0,1.0568,1.1354,1.1985,1.2365,1.2258,1.2294,1.2674,1.2709,1.248,1.1916,1.1327,1.075,1.0233,0.9091,0.0,0.0,0.0,0.0,0.0,0.0,0.0,0.0,0.0,0.0,0.0,0.0,0.0,0.0,0.0,0.0,0.0,0.0,0.0,0.0,0.0,0.0,0.0,0.0,0.0,0.0,0.0,0.0,0.0,0.4859,0.5701,0.603,0.6267,0.6281,0.0,0.0,0.0,0.0,0.0,0.0,0.0,0.0,0.0,0.9963,1.0289,1.051,1.0757,1.1621,1.2069,1.2078,1.2531,1.2755,1.2755,1.2755,1.2755,1.2755,1.2755,1.2554,1.2069,1.1135,1.0565,1.0267,0.0,0.0,0.0,0.0,1.0614,1.037,1.0666,1.0773,1.0714,1.0362,0.0,0.0,0.0,0.0,0.0,0.0,0.0,1.084,1.0939,1.147,1.1943,1.183,1.2143,1.2507,1.2782,1.1679,1.0438,0.9838,0.9846,0.9552,0.8475,0.8487,0.0,0.0,0.0,1.0673,1.1202,1.1803,1.2246,1.2437,1.2365,1.2437,1.2674,1.2709,1.2613,1.2372,1.1865,1.1435,1.1207,1.0161,0.9235,0.0,0.0,0.0,0.0,0.0,0.0,0.0,0.0,0.0,0.0,0.0,0.0,0.0,0.0,0.0,0.0,0.0,0.0,0.0,0.0,0.0,0.0,0.0,0.0,0.0,0.0,0.0,0.0,0.5765,0.6313,0.6401,0.7019,0.7216,0.0,0.0,0.0,0.0,0.0,0.0,1.005,1.0001,1.0318,1.1183,1.1296,1.1573,1.1948,1.2534,1.2828,1.2881,1.314,1.3296,1.3296,1.3296,1.3296,1.3296,1.3296,1.3296,1.3195,1.2229,1.1731,1.1605,1.1318,1.1478,1.1902,1.2325,1.2131,1.1734,1.223,1.2279,1.2032,1.1662,1.144,1.1247,1.0902,0.0,0.0,0.0,0.0,1.1708,1.2201,1.2584,1.2834,1.2954,1.3258,1.3716,1.4093,1.3434,1.2348,1.103,1.1025,1.0802,0.9359,0.9504,0.0,1.0071,1.0825,1.1546,1.2119,1.253,1.2765,1.2839,1.2876,1.2901,1.289,1.2914,1.2854,1.2721,1.2335,1.2085,1.2085,1.1207,1.0401,0.9701,0.0,0.0,0.0,0.0,0.0,0.0,0.0,0.0,0.0,0.0,0.0,0.0,0.0,0.0,0.0,0.0,0.0,0.0,0.0,0.0,0.0,0.0,0.0,0.0,0.0,0.0,0.0,0.0,0.0,0.8007,0.8734,0.0,0.0,0.0,0.0,0.8821,0.9314,0.998,1.0816,1.1196,1.1776,1.2567,1.2614,1.2782,1.3204,1.3241,1.3259,1.3259,1.3286,1.3296,1.3296,1.3296,1.3296,1.3296,1.3296,1.3296,1.3286,1.3204,1.3065,1.2798,1.277,1.3114,1.3584,1.3622,1.3214,1.2696,1.3152,1.2805,1.2178,1.257,1.2066,1.1305,1.1291,1.1259,0.0,0.0,1.2067,1.2168,1.2655,1.2782,1.2802,1.2822,1.3198,1.3621,1.361,1.3978,1.3992,1.3041,1.1802,1.0863,1.0688,0.0,1.1594,1.1986,1.2544,1.3043,1.3449,1.3634,1.3778,1.3806,1.3938,1.3867,1.3505,1.3457,1.324,1.2733,1.2685,1.2673,1.2673,1.2131,1.1315,1.0293,0.9665,0.0,0.0,0.0,0.0,0.0,0.0,0.0,0.0,0.0,0.0,0.0,0.0,0.0,0.0,0.0,0.0,0.0,0.0,0.0,0.0,0.0,0.0,0.0,0.0,0.0,0.0,0.0,0.0,0.8744,0.939,0.0,0.8914,0.9355,0.9793,1.0062,1.0565,1.1187,1.2033,1.2208,1.2498,1.3057,1.3066,1.314,1.3296,1.3543,1.3671,1.3671,1.3947,1.4075,1.4075,1.4075,1.4075,1.4075,1.4075,1.4075,1.4075,1.4075,1.4138,1.4121,1.342,1.4029,1.5185,1.473,1.4415,1.4328,1.4819,1.4563,1.4114,1.4631,1.4553,1.419,1.3831,1.3549,1.3265,1.3128,1.3062,1.3121,1.3273,1.3314,1.3314,1.3314,1.3467,1.3621,1.3621,1.3457,1.3253,1.2949,1.3024,1.2849,1.1814,1.2037,1.2222,1.1794,1.2178,1.2559,1.2815,1.2879,1.292,1.3057,1.3294,1.3431,1.338,1.3147,1.3007,1.3092,1.2602,1.2449,1.2674,1.2528,1.1892,1.0834,1.0305,0.9139,0.0,0.0,0.0,0.0,0.0,0.0,0.0,0.0,0.0,0.0,0.0,0.0,0.0,0.0,0.0,0.0,0.0,0.0,0.0,0.0,0.0,0.0,0.0,0.0,0.0,0.8422,0.916,0.9334,1.0108,1.0356,0.9714,1.0389,1.1004,1.1208,1.1631,1.2177,1.2899,1.2874,1.3066,1.3479,1.3488,1.3561,1.3699,1.3965,1.4093,1.4102,1.4515,1.4708,1.4708,1.4708,1.4708,1.4708,1.457,1.4515,1.4515,1.4515,1.4743,1.4992,1.4045,1.4465,1.5526,1.5004,1.478,1.4737,1.4976,1.4903,1.4736,1.4966,1.5037,1.4985,1.4612,1.4304,1.3947,1.3646,1.34,1.3312,1.3306,1.3467,1.3563,1.3362,1.361,1.38,1.3621,1.3314,1.3064,1.3064,1.3362,1.3289,1.2268,1.2511,1.2663,1.2318,1.2503,1.2788,1.3085,1.292,1.2931,1.3194,1.3488,1.3667,1.3815,1.3466,1.3225,1.3176,1.2623,1.2294,1.2294,1.2389,1.1955,1.0912,1.0343,0.9515,0.8498,0.0,0.0,0.0,0.0,0.0,0.0,0.0,0.0,0.0,0.0,0.0,0.0,0.0,0.0,0.0,0.0,0.0,0.0,0.0,0.0,0.0,0.0,0.0,0.875,0.9429,0.9924,0.9941,1.0986,1.1328,1.0423,1.1426,1.2159,1.2307,1.2586,1.2865,1.3286,1.3314,1.3488,1.3892,1.3901,1.4102,1.4524,1.4533,1.4543,1.4552,1.4937,1.512,1.512,1.512,1.512,1.5093,1.4717,1.4552,1.4552,1.4533,1.4862,1.5303,1.4734,1.4506,1.4565,1.4515,1.4308,1.3902,1.3516,1.3685,1.399,1.3541,1.3378,1.3368,1.3368,1.3359,1.3312,1.3365,1.3044,1.2735,1.2802,1.319,1.343,1.2919,1.3542,1.4186,1.3668,1.3573,1.3573,1.3573,1.2754,1.2076,1.2126,1.2491,1.3006,1.3627,1.3647,0.0,1.4365,1.3931,1.38,1.4408,1.4571,1.4744,1.486,1.4504,1.3875,1.2958,1.2756,1.2317,1.1538,1.1769,1.1479,1.0535,0.9874,0.958,0.9697,0.0,0.0,0.0,0.0,0.0,0.0,0.0,0.0,0.0,0.0,0.0,0.0,0.0,0.0,0.0,0.0,0.0,0.0,0.0,0.0,0.0,0.8961,0.988,0.9482,1.0109,1.0702,1.0876,1.1474,1.1688,1.1221,1.2004,1.2492,1.2455,1.2841,1.3296,1.3699,1.3727,1.391,1.4332,1.4341,1.4533,1.4937,1.4937,1.5084,1.5368,1.5478,1.5533,1.5533,1.5533,1.5533,1.5524,1.5414,1.5368,1.534,1.5056,1.4884,1.4734,1.4565,1.501,1.5748,1.5303,1.5332,1.5595,1.5532,1.5548,1.566,1.5491,1.5235,1.4875,1.4525,1.4148,1.3727,1.3408,1.3229,1.3074,1.2805,1.2855,1.2821,1.2379,1.251,1.2696,1.2559,1.251,1.251,1.251,1.2274,1.2215,1.254,1.2716,1.2774,1.2598,1.2559,1.2559,1.2735,1.2696,1.29,1.3494,1.392,1.4193,1.4257,1.3939,1.3397,1.2652,1.2135,1.1865,1.1942,1.2014,1.1752,1.1075,1.0428,0.9954,0.0,0.0,0.0,0.0,0.0,0.0,0.0,0.0,0.0,0.0,0.0,0.0,0.0,0.0,0.0,0.0,0.0,0.0,0.0,0.0,0.0,0.0,0.9821,1.0637,1.0484,1.0867,1.1225,1.1351,1.1778,1.2037,1.1824,1.2482,1.2949,1.2996,1.3341,1.3717,1.4121,1.4148,1.4258,1.4506,1.4671,1.4873,1.5102,1.5267,1.546,1.5689,1.5863,1.5955,1.5955,1.5955,1.5955,1.5936,1.5762,1.5689,1.567,1.5441,1.5212,1.4974,0.0,0.0,0.0,0.0,1.5245,1.5526,1.5526,1.5526,1.5526,1.5526,1.5359,1.5106,1.4754,1.4468,1.4138,1.37,1.3543,1.3442,1.303,1.3078,1.3072,1.2466,1.2516,1.2529,1.2162,1.2076,1.2076,1.2076,1.2076,0.0,1.2442,1.2491,1.2491,1.2501,1.2264,1.2175,1.2452,1.2314,1.2412,1.2967,1.3399,1.3779,1.3967,1.3734,0.0,0.0,0.0,1.2033,1.207,1.1901,0.0,0.0,0.0,0.0,0.0,0.0,0.0,0.0,1.0432,1.0674,0.0,0.0,0.0,0.0,0.0,0.0,0.0,0.0,0.0,0.0,0.0,0.0,0.0,0.0,0.0,0.0,1.0421,1.1094,1.1425,1.1512,1.1538,1.1598,1.2007,1.2299,1.2396,1.296,1.3451,1.3684,1.3871,1.4121,1.4488,1.4515,0.0,0.0,0.0,1.5139,1.5239,1.5588,1.578,1.5835,1.6202,1.6386,1.6386,1.6386,1.6386,1.6358,1.5991,1.5826,1.5817,1.578,1.5735,1.5615,1.4919,1.4643,1.4643,1.4588,1.4579,1.457,1.4533,0.0,0.0,1.4515,1.4515,1.4515,1.4515,1.4515,1.4433,1.4057,1.3956,1.3864,1.3461,1.3669,1.3752,1.2986,1.3053,1.3125,1.2314,1.2104,1.2076,1.2076,1.2076,1.2076,1.2076,1.2076,1.2264,1.2822,1.2452,1.2314,1.2822,1.2461,1.2314,1.2764,1.3064,0.0,1.3884,1.3742,1.3405,1.2913,1.2806,1.2509,1.2052,1.1727,1.1727,1.2031,1.2071,1.213,1.2191,1.2242,1.2101,1.182,1.1432,1.1729,0.0,0.0,0.0,0.0,0.0,0.0,0.0,0.0,0.0,0.0,0.0,0.0,0.0,0.0,0.0,1.0179,1.0763,1.124,1.1309,1.1593,1.1843,1.2113,1.207,1.2281,1.2878,1.3302,1.3612,1.3873,1.4203,1.4433,1.4506,1.4515,1.4653,1.4974,1.5065,1.5414,1.6074,1.6156,1.6358,1.667,1.6752,0.0,1.6789,1.6789,1.6789,1.6789,1.6707,1.667,1.6642,1.6331,1.6001,1.567,1.5524,1.546,1.5423,1.5102,1.4983,1.4937,1.4625,1.4515,1.4515,1.4515,1.4515,1.4515,1.4515,1.4515,0.0,1.4414,1.4387,1.4295,1.3873,1.3876,1.3774,1.3322,1.3016,1.28,1.2623,1.2356,1.2076,1.2076,1.2076,1.2076,1.2076,1.2076,1.2126,1.2264,1.2166,1.2126,1.2264,1.2372,1.2608,1.3064,1.3362,1.3515,1.3505,1.3575,1.3191,1.2246,1.2276,1.2288,1.2153,1.2454,1.2474,1.2153,1.2501,1.249,1.2191,1.244,1.2758,1.3192,1.2352,1.2089,0.0,0.0,0.0,0.0,0.0,0.0,0.0,0.0,0.0,0.0,0.0,0.9461,0.9724,0.0,1.075,1.1273,1.1481,1.1619,1.1912,1.2102,1.2217,1.2307,1.2555,1.291,1.3459,1.3832,1.4078,1.4194,1.4396,1.4515,1.4515,1.4698,1.49,1.5093,1.5496,1.5909,1.6312,1.6514,1.6716,1.6908,1.6908,1.6908,1.6908,1.6908,1.6908,1.6908,1.6908,1.6908,1.689,1.6688,1.6486,1.6294,1.6294,1.6046,1.567,1.5469,1.5395,1.5368,1.5166,1.5102,1.5065,1.4873,1.4808,1.4772,1.457,1.4515,1.4515,1.4515,1.4515,1.446,1.4249,1.4194,1.4093,1.3681,1.3424,1.3212,1.2807,1.2558,1.2365,1.2162,1.2076,1.2076,1.2076,1.2076,1.2076,1.2076,1.2076,1.2076,1.2076,1.2224,1.2372,1.2598,1.2842,1.2949,1.2949,1.3152,1.3014,1.2473,1.2511,1.2559,1.2559,1.2764,1.2783,1.2559,1.2738,1.2759,1.2528,1.2666,1.2916,1.3243,1.2777,1.2787,0.0,0.0,0.0,0.0,0.0,0.0,0.0,0.0,0.9385,0.9578,1.0089,1.0639,1.1014,1.1144,1.1446,1.2244,1.2141,1.2109,1.2512,1.2671,1.2665,1.2493,1.3034,1.3548,1.3992,1.4313,1.4446,1.4515,1.4579,1.4625,1.4625,1.5001,1.5258,1.5331,1.5973,1.6358,1.6431,1.6743,1.6908,1.6908,1.6908,1.6908,1.6908,1.6908,1.6908,1.6908,1.6908,1.6908,1.6908,1.6908,1.6908,1.6908,1.6908,1.6505,1.5918,1.5845,1.5808,1.5799,1.5716,1.5689,1.5634,1.5322,1.5166,1.5038,1.4717,1.457,1.4515,1.4515,1.4515,1.4515,1.4515,1.4515,1.4433,1.4084,1.3937,1.3699,1.3048,1.289,1.2724,1.2269,1.2236,1.2168,1.2085,1.2076,1.2076,1.2076,1.2076,1.2076,1.2076,1.2126,1.2126,1.2126,1.2274,1.2372,1.2529,1.2783,1.2881,1.2881,1.2881,1.2881,1.2881,1.2881,1.2881,1.2881,1.2881,1.2881,1.2881,1.2881,1.2881,1.2881,1.2881,1.3296,0.7248,0.7835,0.8334,0.9241,0.8758,0.8736,0.0,0.0,1.0496,1.1896,1.2182,1.2161,1.2184,1.2201,1.2244,1.2372,1.2465,1.2512,1.2436,1.2954,1.327,1.3147,1.3305,1.3665,1.4346,1.4369,1.4387,1.4506,1.4836,1.5038,1.5038,1.5414,1.579,1.6166,1.6266,1.6486,1.6835,1.689,1.6908,1.6908,1.6908,1.6908,1.6908,1.6908,1.6908,1.6908,1.6908,1.6908,1.6908,1.6908,1.6908,1.6908,1.6908,1.6844,1.6725,1.6376,1.6248,1.6193,1.5817,1.5689,1.568,1.5634,1.5386,1.5093,1.5047,1.479,1.4515,1.4515,1.4515,1.4515,1.4515,1.4515,1.4506,1.4451,1.4157,1.3855,1.3763,1.347,1.3103,1.2733,1.265,1.254,1.2131,1.2076,1.2076,1.2076,1.2076,1.2076,1.2076,1.2175,1.2274,1.2274,1.2382,1.2529,1.2686,1.2832,1.2881,1.2881,1.2881,1.2881,1.2881,1.2881,1.2881,1.2881,1.2881,1.2881,1.2881,1.2783,1.2783,1.2881,1.2783,1.2822,0.7732,0.8283,0.8676,0.9525,0.9886,1.0308,1.1549,1.1799,1.1982,1.256,1.2665,1.268,1.2745,1.2543,1.2591,1.3154,1.2984,1.2923,1.3255,1.3538,1.3547,1.3442,1.3745,1.401,1.4369,1.4396,1.4455,1.4515,1.4873,1.5102,1.5102,1.5707,1.6138,1.6312,1.6541,1.6743,1.6908,1.6908,1.6908,1.6908,1.6908,1.6908,1.6908,1.6908,1.6908,1.6908,1.6908,1.6908,1.6908,1.6908,1.6908,1.6908,1.6908,1.6908,1.689,1.6716,1.6661,1.6633,1.6459,1.6395,1.6358,1.6129,1.5945,1.5716,1.5239,1.4983,1.4808,1.4579,1.4515,1.4515,1.4515,1.4515,1.4515,1.4515,1.4378,1.4185,1.3937,1.3754,1.3516,1.3112,1.303,1.2984,1.281,1.2782,1.2782,1.2782,1.2379,1.2076,1.2076,1.2126,1.2175,1.2175,1.2274,1.2431,1.2578,1.2627,1.2725,1.2881,1.2832,1.2832,1.2881,1.2881,1.2881,1.2881,1.2881,1.2881,1.2881,1.2832,1.2959,1.3242,1.3192,1.3328,0.7934,0.8623,0.9268,0.9798,1.0463,1.1122,1.1554,1.2117,1.2681,1.3019,1.2958,1.2919,1.3044,1.2711,1.2659,1.344,1.3269,1.3217,1.3768,1.3793,1.3711,1.3651,1.3979,1.4209,1.4258,1.4396,1.4561,1.4671,1.5038,1.5313,1.5432,1.6101,1.6477,1.6477,1.6762,1.6908,1.6908,1.6908,1.6908,1.6908,1.6908,1.6908,1.6908,1.6908,1.6908,1.6908,1.6908,1.6908,1.6908,1.6908,1.6908,1.6908,1.6908,1.6908,1.6908,1.6908,1.6908,1.6908,1.6908,1.6908,1.6862,1.6578,1.6413,1.6184,1.5478,1.5184,1.5019,1.4625,1.4515,1.4515,1.4515,1.4515,1.4515,1.4515,1.4515,1.4433,1.4121,1.4057,1.3937,1.3534,1.3461,1.3424,1.3314,1.3296,1.3296,1.3296,1.2791,1.2406,1.2406,1.2305,1.2195,1.2085,1.2224,1.2323,1.2431,1.248,1.2578,1.2783,1.2676,1.2676,1.2832,1.2832,1.293,1.3047,1.3057,1.3105,1.3232,1.3232,1.3379,1.3682,1.3682,1.3906,0.7947,0.9044,1.0419,1.0249,1.0093,1.0408,1.1842,1.1878,1.2047,1.3477,1.3388,1.3021,1.3154,1.2768,1.2526,1.2928,1.3104,1.3275,1.3459,1.3547,1.3674,1.3768,1.3839,1.3999,1.4291,1.4396,1.4671,1.5056,1.545,1.5854,1.6257,1.667,1.689,1.689,1.6899,1.6908,1.6908,1.6908,1.6908,1.6908,1.6908,1.6908,1.6908,1.6908,1.6908,1.6908,1.6908,1.6908,1.6908,1.6908,1.6908,1.6908,1.6908,1.6908,1.6908,1.6908,1.6908,1.6908,1.6908,1.6908,1.6908,1.689,1.6633,1.6239,1.5808,1.5404,1.5019,1.4625,1.4515,1.4515,1.4515,1.4515,1.4515,1.4515,1.4515,1.4506,1.4497,1.4488,1.4368,1.3947,1.3864,1.3745,1.336,1.3296,1.3296,1.3296,1.3277,1.3259,1.3259,1.2901,1.2549,1.2122,1.2224,1.2274,1.2332,1.2431,1.248,1.2529,1.2529,1.2578,1.2676,1.2735,1.2968,1.3477,1.3486,1.3691,1.4038,1.4038,1.4048,1.4058,1.4058,1.4346,0.8088,0.8785,0.9508,0.9499,1.0103,1.0967,1.1775,1.2595,1.3237,1.3362,1.3397,1.3279,1.2863,1.2642,1.2732,1.3296,1.3194,1.3342,1.4085,1.3895,1.3762,1.387,1.4037,1.4123,1.4054,1.435,1.468,1.5065,1.546,1.5872,1.6294,1.6688,1.6908,1.6908,1.6908,1.6908,1.6908,1.6908,1.6908,1.6908,1.6908,1.6908,1.6908,1.6908,1.6908,1.6908,1.6908,1.6908,1.6908,1.6908,1.6908,1.6908,1.6908,1.6908,1.6908,1.6908,1.6908,1.6908,1.6908,1.6908,1.6908,1.6908,1.6817,1.6633,1.623,1.5817,1.5414,1.501,1.4717,1.4515,1.4515,1.4515,1.4515,1.4515,1.4515,1.4515,1.4515,1.4515,1.4469,1.4332,1.4304,1.4258,1.413,1.4102,1.416,1.42,1.3793,1.3405,1.3296,1.3383,1.3349,1.306,1.3041,1.3146,1.3233,1.3085,1.3103,1.3261,1.3208,1.3208,1.3366,1.3366,1.3432,1.3618,1.3628,1.3738,1.397,1.397,1.4169,1.4561,1.4561,1.4795,0.8355,0.8758,0.9169,0.9205,1.0131,1.1092,1.1596,1.2546,1.3313,1.3197,1.2975,1.2751,1.249,1.2079,1.2105,1.307,1.2937,1.3086,1.4168,1.4004,1.3812,1.4005,1.4232,1.4341,1.4332,1.4689,1.5038,1.5294,1.5689,1.6092,1.6505,1.6771,1.6908,1.6908,1.6908,1.6908,1.6908,1.6908,1.6908,1.6908,1.6908,1.6908,1.6908,1.6908,1.6908,1.6908,1.6908,1.6908,1.6908,1.6908,1.6908,1.6908,1.6908,1.6908,1.6908,1.6908,1.6908,1.6908,1.6908,1.6908,1.6908,1.6908,1.6908,1.6835,1.6431,1.6129,1.5826,1.5423,1.5029,1.4717,1.4717,1.4616,1.4515,1.4515,1.4515,1.4515,1.4515,1.4515,1.4515,1.4515,1.4515,1.4515,1.4515,1.4515,1.4506,1.4606,1.422,1.3839,1.3636,1.3718,1.3717,1.3468,1.3405,1.3504,1.3603,1.345,1.3459,1.3622,1.3622,1.3622,1.3631,1.3666,1.3796,1.3893,1.3893,1.4023,1.4267,1.4267,1.4467,1.4849,1.4849,1.5051,0.867,0.9051,0.9419,0.9542,1.0174,1.0982,1.1439,1.1873,1.2414,1.3009,1.2182,1.1505,1.1948,1.1076,1.0832,1.2314,1.2297,1.2543,1.385,1.3799,1.3816,1.4249,1.4423,1.4698,1.5093,1.5487,1.5716,1.5716,1.6092,1.6486,1.689,1.6908,1.6908,1.6908,1.6908,1.6908,1.6908,1.6908,1.6908,1.6908,1.6908,1.6908,1.6908,1.6908,1.6908,1.6908,1.6908,1.6908,1.6908,1.6908,1.6908,1.6908,1.6908,1.6908,1.6908,1.6908,1.6908,1.6908,1.6908,1.6908,1.6908,1.6908,1.6908,1.6835,1.6459,1.6331,1.623,1.5835,1.5423,1.5102,1.5102,1.4808,1.4515,1.4515,1.4515,1.4515,1.4515,1.4515,1.4515,1.4515,1.4515,1.4515,1.4515,1.4515,1.4515,1.4515,1.4606,1.4576,1.4194,1.4024,1.3829,1.3396,1.336,1.3405,1.3578,1.3578,1.3578,1.3578,1.3732,1.3732,1.3578,1.3659,1.3902,1.4308,1.4317,1.4515,1.497,1.497,1.497,1.497,1.497,1.5098,0.8884,0.9242,0.9618,1.0135,1.0787,1.1403,1.1774,1.2437,1.2732,1.1937,1.1678,1.1389,1.0621,1.0626,1.1077,1.2067,1.2272,1.2785,1.4022,1.4049,1.4121,1.4655,1.4885,1.5111,1.5505,1.5909,1.6156,1.6156,1.6257,1.6486,1.689,1.6908,1.6908,1.6908,1.6908,1.6908,1.6908,1.6908,1.6908,1.6908,1.6908,1.6908,1.6908,1.6908,1.6908,1.6908,1.6908,1.6908,1.6908,1.6908,1.6908,1.6908,1.6908,1.6908,1.6908,1.6908,1.6908,1.6908,1.6908,1.6908,1.6908,1.6908,1.6908,1.689,1.6789,1.6551,1.6294,1.6184,1.5643,1.5102,1.5102,1.4808,1.4515,1.4515,1.4515,1.4515,1.4515,1.4515,1.4515,1.4515,1.4515,1.4515,1.4515,1.4515,1.4515,1.4515,1.4506,1.4529,1.4427,1.4585,1.4587,1.4359,1.4341,1.435,1.4408,1.431,1.4262,1.4262,1.432,1.432,1.4262,1.4252,1.4357,1.4468,1.4468,1.4573,1.4775,1.4775,1.4843,1.497,1.497,1.5029,0.9136,0.9364,0.9606,0.9983,1.0497,1.0981,1.121,1.1664,1.1738,1.0927,1.0702,1.0409,0.9663,0.9908,1.0533,1.1441,1.1973,1.27,1.3889,1.4091,1.4342,1.4932,1.5186,1.5515,1.5927,1.634,1.6578,1.6578,1.6578,1.667,1.6899,1.6908,1.6908,1.6908,1.6908,1.6908,1.6908,1.6908,1.6908,1.6908,1.6908,1.6908,1.6908,1.6908,1.6908,1.6908,1.6908,1.6908,1.6908,1.6908,1.6908,1.6908,1.6908,1.6908,1.6908,1.6908,1.6908,1.6908,1.6908,1.6908,1.6908,1.6908,1.6908,1.6908,1.6908,1.6752,1.6578,1.6578,1.5982,1.5359,1.5359,1.4937,1.4515,1.4515,1.4515,1.4515,1.4515,1.4515,1.4515,1.4515,1.4515,1.4515,1.4515,1.4515,1.4515,1.4515,1.4515,1.4515,1.4515,1.4684,1.4743,1.4606,1.4606,1.4666,1.4715,1.4606,1.4616,1.4616,1.4675,1.4625,1.4515,1.4556,1.4556,1.4515,1.4515,1.4565,1.4606,1.4606,1.4725,1.4843,1.4793,1.4921,0.9406,0.9484,0.9548,0.9612,0.9886,1.0173,1.0408,1.0386,1.0268,1.0018,0.957,0.9129,0.8858,0.909,0.9668,1.0718,1.1543,1.2378,1.3357,1.3902,1.4366,1.4925,1.5414,1.5872,1.6349,1.6707,1.6908,1.6908,1.6908,1.6908,1.6908,1.6908,1.6908,1.6908,1.6908,1.6908,1.6908,1.6908,1.6908,1.6908,1.6908,1.6908,1.6908,1.6908,1.6908,1.6908,1.6908,1.6908,1.6908,1.6908,1.6908,1.6908,1.6908,1.6908,1.6908,1.6908,1.6908,1.6908,1.6908,1.6839,1.676,1.6908,1.683,1.676,1.676,1.676,1.676,1.676,1.6245,1.5689,1.5689,1.5102,1.4515,1.4515,1.4515,1.4515,1.4515,1.4515,1.4515,1.4515,1.4515,1.4515,1.4515,1.4515,1.4515,1.4515,1.4515,1.4515,1.4515,1.4515,1.4515,1.4515,1.4515,1.4565,1.4656,1.4656,1.4656,1.4656,1.4852,1.4803,1.4506,1.4606,1.4606,1.4515,1.4515,1.4515,1.4515,1.4515,1.4556,1.4656,1.4565,1.4753,0.9406,0.9484,0.9612,1.0174,1.019,1.0178,1.0642,1.0355,0.0,0.9308,0.8949,0.8523,0.7947,0.8624,0.9532,1.0132,1.1048,1.1887,1.2398,1.3171,1.3895,1.4289,1.5118,1.5982,1.6734,1.6862,1.6908,1.6908,1.6908,1.6908,1.6908,1.6908,1.6908,1.6908,1.6908,1.6908,1.6908,1.6908,1.6908,1.6908,1.6908,1.6908,1.6908,1.6908,1.6908,1.6908,1.6908,1.6908,1.6908,1.6908,1.6908,1.6908,1.6908,1.6908,1.6908,1.6908,1.6908,1.6908,1.6908,1.6473,1.6123,1.6691,1.6482,1.5974,1.5974,1.5974,1.5974,1.5974,1.5833,1.5689,1.5689,1.5102,1.4515,1.4515,1.4515,1.4515,1.4515,1.4515,1.4515,1.4515,1.4515,1.4515,1.4515,1.4515,1.4515,1.4515,1.4515,1.4515,1.4515,1.4515,1.4515,1.4515,1.4515,1.4506,1.4506,1.4506,1.4506,1.4506,1.4565,1.4565,1.4515,1.4506,1.4506,1.4515,1.4515,1.4515,1.4515,1.4515,1.4506,1.4506,1.4506,1.4515,0.9406,0.9484,0.9576,0.9737,0.9541,0.9343,0.9245,0.0,0.0,0.803,0.7862,0.7671,0.7355,0.8052,0.8829,0.9297,1.025,1.1178,1.1762,1.2414,1.3075,1.3827,1.4632,1.5473,1.6253,1.6691,1.6908,1.6908,1.6908,1.6908,1.6908,1.6908,1.6908,1.6908,1.6908,1.6691,1.6333,1.6333,1.6333,1.6333,1.6333,1.6333,1.6333,1.6691,1.6691,1.6333,1.676,1.6908,1.6908,1.6908,1.6908,1.6908,1.6908,1.6908,1.6839,1.6482,1.6333,1.6263,1.5824,1.5471,1.5251,1.5613,1.5463,1.518,1.518,1.5471,1.5833,1.5833,1.5643,1.5429,1.5216,1.4674,1.4066,1.3554,1.345,1.345,1.345,1.345,1.345,1.345,1.345,1.3571,1.3941,1.401,1.407,1.4446,1.4515,1.4515,1.4515,1.4515,1.4515,1.4515,1.4515,1.4515,1.4515,1.4515,1.4515,1.4515,1.4515,1.4515,1.4515,1.4515,1.4515,1.4515,1.4515,1.4515,1.4515,1.4717,1.4878,1.4948,1.5029,1.5191,0.9334,0.9436,0.9418,0.9136,0.8873,0.8569,0.7918,0.7531,0.0,0.7036,0.6942,0.6891,0.7019,0.7572,0.8167,0.0,0.9674,1.0559,1.1075,1.1709,1.2381,1.3176,1.3933,1.4731,1.5475,1.6044,1.6403,1.6403,1.6403,1.6473,1.6691,1.6691,1.6621,1.6403,1.6403,1.6114,1.5542,1.5542,1.5542,1.5542,1.5542,1.5542,1.5542,1.6114,1.6114,1.5613,1.6184,1.6403,1.6403,1.6403,1.6403,1.6403,1.6403,1.6403,1.6333,1.5762,1.5542,1.5471,1.4824,1.453,1.4386,1.4386,1.4386,1.4386,1.4386,1.4824,1.533,1.533,1.5141,1.4866,1.4638,1.4151,1.3517,1.2715,1.2512,1.2512,1.2512,1.2512,1.2512,1.2512,1.2512,1.2696,1.3191,1.3381,1.37,1.4198,1.4387,1.4515,1.4515,1.4515,1.4543,1.4634,1.4561,1.4515,1.4515,1.4515,1.4515,1.4515,1.4515,1.4552,1.4634,1.4643,1.468,1.4763,1.4763,1.4763,1.4763,1.5074,1.5293,1.5364,1.5606,1.5827,0.9162,0.9292,0.9418,0.9136,0.8873,0.8512,0.7937,0.0,0.6943,0.6988,0.6706,0.6585,0.7005,0.7445,0.7975,0.0,0.0,1.0241,0.998,1.132,1.2225,1.2069,1.3049,1.399,1.4609,1.4752,1.4816,1.4816,1.4816,1.5108,1.5833,1.5903,1.5542,1.4816,1.4816,1.4744,1.4744,1.4744,1.4744,1.4744,1.4744,1.4744,1.4744,1.4744,1.4744,1.4744,1.4744,1.4816,1.4816,1.4816,1.4816,1.4816,1.4816,1.4816,1.4816,1.4744,1.4744,1.4673,1.4601,1.4178,1.36,1.36,1.36,1.36,1.36,1.3673,1.368,1.368,1.3869,1.4093,1.4053,1.3611,1.2949,1.2591,1.2512,1.2512,1.2512,1.2512,1.2512,1.2512,1.2512,1.2512,1.2573,1.307,1.3511,1.3571,1.4139,1.4515,1.4515,1.4515,1.4653,1.501,1.4726,1.4515,1.4515,1.4515,1.4515,1.4515,1.4515,1.4671,1.5029,1.5047,1.5212,1.557,1.5579,1.5579,1.5579,1.5615,1.5634,1.5634,1.567,1.5689,0.8747,0.8914,0.8932,0.8663,0.8519,0.8178,0.7232,0.6818,0.6497,0.6231,0.6137,0.626,0.6807,0.7151,0.7621,0.0,0.0,0.0,0.9778,1.0631,1.1291,1.1442,1.2531,1.3408,1.3879,1.4314,1.4601,1.4601,1.4601,1.4537,1.4394,1.4824,1.4966,1.4601,1.4601,1.4394,1.3962,1.3962,1.3962,1.3962,1.3962,1.3962,1.3962,1.4386,1.4386,1.3962,1.4394,1.4601,1.4601,1.4601,1.4601,1.4601,1.4601,1.4601,1.453,1.4106,1.3962,1.389,1.3382,1.3025,1.2813,1.2813,1.2813,1.2813,1.2813,1.3098,1.3535,1.3535,1.3584,1.3648,1.3452,1.2711,1.2137,1.2407,1.2109,1.1854,1.1854,1.1854,1.1854,1.1854,1.1854,1.192,1.218,1.2403,1.272,1.3151,1.3401,1.3672,1.3827,1.3861,1.4111,1.4714,1.4844,1.4964,1.5203,1.5221,1.5221,1.5221,1.5221,1.5294,1.545,1.545,1.5533,1.5689,1.5689,1.5689,1.5689,1.5945,1.6065,1.6074,1.6312,1.6422,0.8327,0.8561,0.8673,0.847,0.8342,0.7953,0.6823,0.6428,0.6163,0.5714,0.5758,0.6068,0.6678,0.6966,0.7355,0.0,0.0,0.8925,0.9673,1.0312,1.0805,1.1219,1.2097,1.276,1.3089,1.3633,1.3882,1.3882,1.3882,1.3673,1.3171,1.3673,1.3882,1.3882,1.3882,1.3673,1.3171,1.3171,1.3171,1.3171,1.3171,1.3171,1.3171,1.3665,1.3673,1.3171,1.3673,1.3882,1.3882,1.3882,1.3882,1.3882,1.3882,1.3882,1.3882,1.3317,1.3171,1.3025,1.2519,1.2305,1.2305,1.2305,1.2305,1.2305,1.2305,1.2666,1.3171,1.3171,1.3171,1.31,1.2785,1.2123,1.1675,1.199,1.1765,1.1423,1.1423,1.1423,1.1423,1.1423,1.1423,1.1492,1.1748,1.1977,1.2299,1.2741,1.3001,1.3209,1.3388,1.342,1.3659,1.438,1.4629,1.5058,1.567,1.5486,1.5486,1.5689,1.5689,1.5744,1.5872,1.5872,1.5927,1.6046,1.6046,1.6046,1.6046,1.6349,1.6496,1.6496,1.678,1.6908,0.7835,0.8285,0.8673,0.8639,0.836,0.7877,0.6925,0.641,0.6003,0.5665,0.5758,0.6068,0.6678,0.6966,0.7262,0.7722,0.0,0.0,0.9383,1.0376,1.1154,1.1304,1.1589,1.1958,1.2311,1.2322,1.2298,1.2298,1.2298,1.2298,1.2298,1.2298,1.2298,1.2298,1.2298,1.2298,1.2298,1.2298,1.2298,1.2298,1.2298,1.2298,1.2298,1.2298,1.2298,1.2298,1.2298,1.2298,1.2298,1.2298,1.2298,1.2298,1.2298,1.2298,1.2298,1.2298,1.2298,1.2305,1.2305,1.2305,1.2305,1.2305,1.2305,1.2305,1.2305,1.2305,1.2298,1.2298,1.2298,1.2238,1.2016,1.1864,1.179,1.1496,1.143,1.1423,1.1423,1.1423,1.1423,1.1423,1.1423,1.1423,1.1423,1.1962,1.2369,1.2436,1.2952,1.3412,1.342,1.342,1.3553,1.3984,1.4016,1.4486,1.5587,1.5024,1.4894,1.5624,1.5689,1.5881,1.6294,1.6312,1.6496,1.689,1.6899,1.6899,1.6899,1.6899,1.6899,1.6899,1.6908,1.6908,0.685,0.7164,0.7413,0.715,0.7062,0.6854,0.6209,0.5945,0.5738,0.5443,0.5727,0.6137,0.639,0.6846,0.7364,0.7982,0.8663,0.0,0.0,1.0569,1.1193,1.1487,1.1905,1.2207,1.2285,1.2264,1.2305,1.2305,1.2305,1.2305,1.2305,1.2305,1.2305,1.2305,1.2305,1.2305,1.2305,1.2305,1.2305,1.2305,1.2305,1.2305,1.2305,1.2305,1.2305,1.2305,1.2305,1.2305,1.2305,1.2305,1.2305,1.2305,1.2305,1.2305,1.2305,1.2305,1.2305,1.2305,1.2305,1.2305,1.2305,1.2305,1.2305,1.2305,1.2305,1.2305,1.2305,1.2305,1.2305,1.2278,1.2191,1.2164,1.2144,1.2044,1.2024,1.2024,1.2024,1.2024,1.2024,1.2024,1.2024,1.1964,1.1764,1.1941,1.2074,1.2074,1.2207,1.2417,1.2628,1.2656,1.2906,1.3581,1.3165,1.3401,1.4841,1.4763,1.4694,1.4902,1.5463,1.5808,1.5939,1.6432,1.678,1.6908,1.6908,1.6908,1.6908,1.6908,1.6908,1.6908,1.6908,1.6908,0.0,0.641,0.6699,0.6539,0.6536,0.6457,0.6034,0.5883,0.5718,0.5377,0.5734,0.6129,0.6276,0.6786,0.7378,0.7957,0.853,0.9068,0.9673,1.0404,1.1085,1.1628,1.2071,1.2336,1.2336,1.2317,1.2305,1.2305,1.2305,1.2305,1.2305,1.2305,1.2305,1.2305,1.2305,1.2305,1.2305,1.2305,1.2305,1.2305,1.2305,1.2305,1.2305,1.2305,1.2305,1.2305,1.2305,1.2305,0.0,1.2305,1.2305,1.2305,1.2305,1.2305,1.2305,1.2305,1.2305,1.2305,1.2305,1.2305,1.2305,1.2305,1.2305,1.2305,1.2305,1.2305,1.2305,1.2305,1.2305,1.2305,1.2305,1.2305,1.2305,1.2305,1.2305,1.2305,1.2305,1.2305,1.2305,1.2305,1.2305,1.2245,1.2064,1.2031,1.2031,1.2031,1.2031,1.2098,1.2278,1.2305,1.2519,1.3025,1.2592,1.2659,1.3665,1.4027,1.4314,1.4601,1.5037,1.5471,1.5762,1.6263,1.6621,1.6908,1.6908,1.6908,1.6908,1.6908,1.6908,1.6908,1.6908,1.6908,0.0,0.5851,0.6306,0.6495,0.6487,0.6404,0.6192,0.6027,0.0,0.5426,0.5734,0.6176,0.6339,0.6837,0.74,0.7833,0.8299,0.8785,0.9329,1.0059,1.0865,1.1678,1.2079,1.2319,1.2319,1.2271,1.2305,1.2305,1.2305,1.2305,1.2305,1.2305,1.2305,1.2305,1.2305,1.2305,1.2305,1.2305,1.2305,1.2305,1.2305,1.2305,1.2305,1.2305,1.2305,1.2305,1.2305,1.2305,1.2305,1.2305,1.2305,1.2305,1.2305,1.2305,1.2305,1.2305,1.2305,1.2305,1.2305,1.2305,1.2305,1.2305,1.2305,1.2305,1.2305,1.2305,1.2305,1.2305,1.2305,1.2305,1.2305,1.2305,1.2305,1.2305,1.2305,1.2305,1.2305,1.2305,1.2305,1.2305,1.2305,1.2305,1.2305,1.2305,1.2305,1.2305,1.2305,1.2305,1.2305,1.2305,1.2305,1.2305,1.2305,1.2305,1.2305,1.2952,1.3745,1.4386,1.4458,1.4895,1.5692,1.5762,1.6123,1.6908,1.6908,1.6908,1.6908,1.6908,1.6908,1.6908,1.6908,1.6908,0.427,0.0,0.4947,0.5009,0.5016,0.5121,0.0,0.5447,0.5327,0.5619,0.0,0.6466,0.7095,0.7446,0.7968,0.8876,0.9137,0.9325,0.9668,1.0577,1.126,1.1483,1.1977,1.2315,1.2315,1.2298,1.2305,1.2305,1.2305,1.2305,1.2305,1.2305,1.2305,1.2305,1.2305,1.2305,1.2305,1.2305,1.2305,1.2305,1.2305,1.2305,1.2305,1.2305,1.2305,1.2305,1.2305,1.2305,1.2305,1.2305,1.2305,1.2305,1.2305,1.2305,1.2305,1.2305,1.2305,1.2305,1.2305,1.2305,1.2305,1.2305,1.2305,1.2305,1.2305,1.2305,1.2305,1.2305,1.2305,1.2305,1.2305,1.2305,1.2305,1.2305,1.2305,1.2305,1.2305,1.2305,1.2305,1.2305,1.2305,1.2305,1.2305,1.2305,1.2305,1.2305,1.2305,1.2305,1.2305,1.2305,1.2305,1.2305,1.2305,1.2305,1.2305,1.2445,1.2666,1.2806,1.3455,1.4106,1.4824,1.5471,1.6123,1.6908,1.6908,1.6908,1.6908,1.6908,1.6908,1.6908,1.6908,1.6908,0.3927,0.4323,0.4756,0.5039,0.5247,0.5546,0.6029,0.0,0.0,0.0,0.0,0.6474,0.7103,0.7492,0.8034,0.8987,0.9062,0.9313,1.019,1.1411,1.2069,1.1906,1.2437,1.2739,1.2305,1.2305,1.2305,1.2305,1.2305,1.2305,1.2305,1.2305,1.2305,1.2305,1.2305,1.2305,1.2305,1.2305,1.2305,1.2305,1.2305,1.2305,1.2305,1.2305,1.2305,1.2305,1.2305,1.2305,1.2305,1.2305,1.2305,1.2305,1.2305,1.2305,1.2305,1.2305,1.2305,1.2305,1.2305,1.2305,1.2305,1.2305,1.2305,1.2305,1.2305,1.2305,1.2305,1.2305,1.2305,1.2305,1.2305,1.2305,1.2305,1.2305,1.2305,1.2305,1.2305,1.2305,1.2305,1.2305,1.2305,1.2305,1.2305,1.2305,1.2305,1.2305,1.2305,1.2305,1.2305,1.2305,1.2305,1.2305,1.2305,1.2305,1.2305,1.2305,1.2305,1.2305,1.2739,1.3317,1.4027,1.4824,1.5754,1.6908,1.6908,1.6908,1.6908,1.6908,1.6908,1.6908,1.6908,1.6908,0.4045,0.4522,0.5048,0.5529,0.6065,0.6515,0.6803,0.0,0.0,0.0,0.0,0.0,0.0,0.7523,0.8106,0.9022,0.9033,0.9415,1.067,1.1964,1.2683,1.233,1.2891,1.3025,1.2372,1.2305,1.2305,1.2305,1.2305,1.2305,1.2305,1.2305,1.2305,1.2305,1.2305,1.2305,1.2305,1.2305,1.2305,1.2305,1.2305,1.2305,1.2305,1.2305,1.2305,1.2305,1.2305,1.2305,1.2305,1.2305,1.2305,1.2305,1.2305,1.2305,1.2305,1.2305,1.2305,1.2305,1.2305,1.2305,1.2305,1.2305,1.2305,1.2305,1.2305,1.2305,1.2305,1.2305,1.2305,1.2305,1.2305,1.2305,1.2305,1.2305,1.2305,1.2305,1.2305,1.2305,1.2305,1.2305,1.2305,1.2305,1.2305,1.2305,1.2305,1.2305,1.2305,1.2305,1.2305,1.2305,1.2305,1.2305,1.2305,1.2305,1.2305,1.2305,1.2305,1.2305,1.2305,1.2739,1.36,1.4394,1.5463,1.6908,1.6908,1.6908,1.6908,1.6908,1.6908,1.6908,1.6908,1.6908,0.4546,0.4955,0.5114,0.4978,0.5621,0.6316,0.6587,0.0,0.0,0.0,0.0,0.0,0.0,0.8635,0.9106,1.0694,1.0728,1.0553,1.0641,1.1042,1.1457,1.1948,1.2308,1.2445,1.2305,1.2305,1.2305,1.2305,1.2305,1.2305,1.2305,1.2305,1.2305,1.2305,1.2305,1.2305,1.2305,1.2305,1.2305,1.2305,1.2305,1.2305,1.2305,1.2305,1.2305,1.2305,1.2305,1.2305,1.2305,1.2305,1.2305,1.2305,1.2305,1.2305,1.2305,1.2305,1.2305,1.2305,1.2305,1.2305,1.2305,1.2305,1.2305,1.2305,1.2305,1.2305,1.2305,1.2305,1.2305,1.2305,1.2305,1.2305,1.2305,1.2305,1.2305,1.2305,1.2305,1.2305,1.2305,1.2305,1.2305,1.2305,1.2305,1.2305,1.2305,1.2305,1.2305,1.2305,1.2305,1.2305,1.2305,1.2305,1.2305,1.2305,1.2305,1.2305,1.2305,1.2305,1.2305,1.2952,1.4386,1.518,1.6044,1.6908,1.6908,1.6908,1.6908,1.6908,1.6908,1.6908,1.6908,1.6908,0.4531,0.5045,0.548,0.558,0.6261,0.6988,0.7388,0.0,0.0,0.0,0.0,0.0,0.0,0.0,0.9265,1.0015,1.0635,1.1018,1.11,1.1848,1.2393,1.2445,1.2769,1.2813,1.2372,1.2305,1.2305,1.2305,1.2305,1.2305,1.2305,1.2305,1.2305,1.2305,1.2305,1.2305,1.2305,1.2305,1.2305,1.2305,1.2305,1.2305,1.2305,1.2305,1.2305,1.2305,1.2305,1.2305,1.2305,1.2305,1.2305,1.2305,1.2305,1.2305,1.2305,1.2305,1.2305,1.2305,1.2305,1.2305,1.2305,1.2305,1.2305,1.2305,1.2305,1.2305,1.2305,1.2305,1.2305,1.2305,1.2305,1.2305,1.2305,1.2305,1.2305,1.2305,1.2305,1.2305,1.2305,1.2305,1.2305,1.2305,1.2305,1.2305,1.2305,1.2305,1.2305,1.2305,1.2305,1.2305,1.2305,1.2305,1.2305,1.2305,1.2305,1.2305,1.2305,1.2305,1.2739,1.3455,1.453,1.5401,1.6123,1.6908,1.6908,1.6908,1.6908,1.6908,1.6908,1.6908,1.6908,1.6908,0.4578,0.5143,0.5804,0.6252,0.0,0.758,0.8098,0.0,0.0,0.0,0.0,0.0,0.0,0.9549,0.9703,0.9556,1.0471,1.1236,1.1367,1.2349,1.2961,1.2677,1.2985,1.2952,1.2378,1.2305,1.2305,1.2305,1.2305,1.2305,1.2305,1.2305,1.2305,1.2305,1.2305,1.2305,1.2305,1.2305,1.2305,1.2305,1.2305,1.2305,1.2305,1.2305,1.2305,1.2305,1.2305,1.2305,1.2305,1.2305,1.2305,1.2305,1.2305,1.2305,1.2305,1.2305,1.2305,1.2305,1.2305,1.2305,1.2305,1.2305,1.2305,1.2305,1.2305,1.2305,1.2305,1.2305,1.2305,1.2305,1.2305,1.2305,1.2305,1.2305,1.2305,1.2305,1.2305,1.2305,1.2305,1.2305,1.2305,1.2305,1.2305,1.2305,1.2305,1.2305,1.2305,1.2305,1.2305,1.2305,1.2305,1.2305,1.2305,1.2305,1.2305,1.2305,1.2378,1.2592,1.3171,1.3818,1.4601,1.5401,1.6123,1.6908,1.6908,1.6908,1.6908,1.6908,1.6908,1.6908,1.6908,1.6908,0.5095,0.546,0.5837,0.637,0.69,0.0,0.807,0.8137,0.0,0.8822,0.0,0.0,0.0,1.0822,1.1137,1.0528,1.1032,1.1374,1.1053,1.1364,1.1668,1.1972,1.2197,1.2372,1.2305,1.2305,1.2305,1.2305,1.2305,1.2305,1.2305,1.2305,1.2305,1.2305,1.2305,1.2305,1.2305,1.2305,1.2305,1.2305,1.2305,1.2305,1.2305,1.2305,1.2305,1.2305,1.2305,1.2305,1.2305,1.2305,1.2305,1.2305,1.2305,1.2305,1.2305,1.2305,1.2305,1.2305,1.2305,1.2305,1.2305,1.2305,1.2305,1.2305,1.2305,1.2305,1.2305,1.2305,1.2305,1.2305,1.2305,1.2305,1.2305,1.2305,1.2305,1.2305,1.2305,1.2305,1.2305,1.2305,1.2305,1.2305,1.2305,1.2305,1.2305,1.2305,1.2305,1.2305,1.2305,1.2305,1.2305,1.2305,1.2305,1.2305,1.2305,1.2305,1.2592,1.339,1.3462,1.3818,1.4601,1.5401,1.6123,1.6908,1.6908,1.6908,1.6908,1.6908,1.6908,1.6908,1.6908,1.6908,0.492,0.5565,0.6275,0.6814,0.0,0.0,0.0,0.856,0.9211,1.0058,1.0105,0.0,0.0,1.0441,1.047,1.0047,1.0532,1.0973,1.1014,1.1243,1.1536,1.183,1.2124,1.2305,1.2305,1.2305,1.2305,1.2305,1.2305,1.2305,1.2305,1.2305,1.2305,1.2305,1.2305,1.2305,1.2305,1.2305,1.2305,1.2305,1.2305,1.2305,1.2305,1.2305,1.2305,1.2305,1.2305,1.2305,1.2305,1.2305,1.2305,1.2305,1.2305,1.2305,1.2305,1.2305,1.2305,1.2305,1.2305,1.2305,1.2305,1.2305,1.2305,1.2305,1.2305,1.2305,1.2305,1.2305,1.2305,1.2305,1.2305,1.2305,1.2305,1.2305,1.2305,1.2305,1.2305,1.2305,1.2305,1.2305,1.2305,1.2305,1.2305,1.2305,1.2305,1.2305,1.2305,1.2305,1.2305,1.2305,1.2305,1.2305,1.2305,1.2305,1.2305,1.2305,1.2666,1.3608,1.4034,1.4537,1.5321,1.6044,1.6621,1.6908,1.6908,1.6908,1.6908,1.6908,1.6908,1.6908,1.6908,1.6908,0.4821,0.5549,0.6419,0.0,0.0,0.0,0.8069,0.8714,0.9542,1.0382,1.0707,1.062,1.0287,1.0387,1.0408,1.012,1.0356,1.0628,1.0828,1.1102,1.1363,1.157,1.1931,1.2164,1.2164,1.2245,1.2305,1.2305,1.2305,1.2305,1.2305,1.2305,1.2305,1.2305,1.2305,1.2305,1.2305,1.2305,1.2305,1.2305,1.2305,1.2305,1.2305,1.2305,1.2305,1.2305,1.2305,1.2305,1.2305,1.2305,1.2305,1.2305,1.2305,1.2305,1.2305,1.2305,1.2305,1.2305,1.2305,1.2305,1.2305,1.2305,1.2305,1.2305,1.2305,1.2305,1.2305,1.2305,1.2305,1.2305,1.2305,1.2305,1.2305,1.2305,1.2305,1.2305,1.2305,1.2305,1.2305,1.2305,1.2305,1.2305,1.2305,1.2305,1.2305,1.2305,1.2305,1.2305,1.2305,1.2305,1.2305,1.2305,1.2305,1.2305,1.2305,1.2305,1.2592,1.3251,1.4322,1.5108,1.5762,1.6482,1.6908,1.6908,1.6908,1.6908,1.6908,1.6908,1.6908,1.6908,1.6908,1.6908,0.4907,0.5499,0.0,0.0,0.0,0.0,0.8383,0.862,0.8978,0.9573,1.0544,1.1164,1.058,1.0929,1.1207,1.0937,1.0726,1.0624,1.0624,1.0808,1.0995,1.0995,1.151,1.1864,1.1864,1.2124,1.2291,1.2291,1.2291,1.2291,1.2291,1.2291,1.2298,1.2298,1.2305,1.2305,1.2305,1.2305,1.2305,1.2305,1.2305,1.2305,1.2305,1.2305,1.2305,1.2305,1.2305,1.2305,1.2305,1.2305,1.2305,1.2305,1.2305,1.2305,1.2305,1.2305,1.2305,1.2305,1.2305,1.2305,1.2305,1.2305,1.2305,1.2305,1.2305,1.2305,1.2305,1.2305,1.2305,1.2305,1.2305,1.2305,1.2305,1.2305,1.2305,1.2305,1.2305,1.2305,1.2305,1.2305,1.2305,1.2305,1.2305,1.2305,1.2305,1.2305,1.2305,1.2305,1.2305,1.2305,1.2305,1.2305,1.2305,1.2305,1.2305,1.2305,1.2372,1.2372,1.4258,1.5551,1.5833,1.6482,1.6908,1.6908,1.6908,1.6908,1.6908,1.6908,1.6908,1.6908,1.6908,1.6908,0.5254,0.577,0.0,0.7107,0.0,0.0,0.0,0.9592,0.0,0.0,1.1207,1.1194,1.0373,1.0511,1.0676,1.0369,1.0485,1.0624,1.0624,1.0808,1.0995,1.0995,1.1323,1.1557,1.1557,1.1637,1.1683,1.1683,1.1683,1.1683,1.1683,1.1884,1.1997,1.1997,1.2191,1.2305,1.2305,1.2305,1.2305,1.2305,1.2305,1.2305,1.2305,1.2305,1.2305,1.2305,1.2305,1.2305,1.2305,1.2305,1.2305,1.2305,1.2305,1.2305,1.2305,1.2305,1.2305,1.2305,1.2305,1.2305,1.2305,1.2305,1.2305,1.2305,1.2305,1.2305,1.2305,1.2305,1.2305,1.2305,1.2305,1.2305,1.2305,1.2305,1.2305,1.2305,1.2305,1.2305,1.2305,1.2305,1.2305,1.2305,1.2305,1.2305,1.2305,1.2305,1.2305,1.2305,1.2305,1.2305,1.2305,1.2305,1.2305,1.2305,1.2305,1.4314,1.5534,1.5534,1.6114,1.6482,1.6551,1.676,1.6908,1.6908,1.6908,1.6908,1.6908,1.6908,1.6908,1.6908,1.6908,1.7055,0.5448,0.6133,0.0,0.7425,0.8136,0.8898,0.9503,0.0,0.0,0.0,1.1195,1.1088,1.0424,1.052,1.0602,1.0362,1.0441,1.0624,1.0624,1.0715,1.0822,1.0822,1.1076,1.1249,1.1249,1.1356,1.1423,1.1423,1.1423,1.1423,1.1423,1.1597,1.175,1.1864,1.2037,1.2184,1.2305,1.2305,1.2305,1.2305,1.2305,1.2305,1.2305,1.2305,1.2305,1.2305,1.2305,1.2305,1.2305,1.2305,1.2305,1.2305,1.2305,1.2305,1.2305,1.2305,1.2305,1.2305,1.2305,1.2305,1.2305,1.2305,1.2305,1.2305,1.2305,1.2305,1.2305,1.2305,1.2305,1.2305,1.2305,1.2305,1.2305,1.2305,1.2305,1.2305,1.2305,1.2305,1.2305,1.2305,1.2305,1.2305,1.2305,1.2305,1.2305,1.2305,1.2305,1.2305,1.2305,1.2305,1.2305,1.2305,1.2305,1.2305,1.2305,1.5108,1.6908,1.6908,1.6908,1.6908,1.6908,1.6908,1.6908,1.6908,1.6908,1.6908,1.6908,1.6908,1.6908,1.6908,1.7064,1.7266,0.5538,0.0,0.0,0.7544,0.8366,0.0,1.0335,1.01,0.9879,1.0559,1.0759,1.0824,1.0634,1.0753,1.0831,1.064,1.0624,1.0624,1.0624,1.0624,1.0624,1.0624,1.0795,1.0955,1.0955,1.1189,1.1349,1.1349,1.1349,1.1349,1.1349,1.1369,1.151,1.1784,1.1817,1.1971,1.2258,1.2265,1.2278,1.2305,1.2305,1.2305,1.2305,1.2305,1.2305,1.2305,1.2305,1.2305,1.2305,1.2305,1.2305,1.2305,1.2305,1.2305,1.2305,1.2305,1.2305,1.2305,1.2305,1.2305,1.2305,1.2305,1.2305,1.2305,1.2305,1.2305,1.2305,1.2305,1.2305,1.2305,1.2305,1.2305,1.2305,1.2305,1.2305,1.2305,1.2305,1.2305,1.2305,1.2305,1.2305,1.2305,1.2305,1.2305,1.2305,1.2305,1.2305,1.2305,1.2305,1.2305,1.2305,1.2305,1.2305,1.2305,1.2305,1.5108,1.6908,1.6908,1.6908,1.6908,1.6908,1.6908,1.6908,1.6908,1.6908,1.6908,1.6908,1.6908,1.6927,1.6972,1.733,1.7541,0.5828,0.6602,0.0,0.0,0.8379,0.8999,0.9439,0.9388,0.968,1.1062,1.094,1.0669,1.0611,1.0627,1.0669,1.0611,1.0624,1.0624,1.0624,1.0624,1.0624,1.0624,1.0678,1.0719,1.0719,1.0708,1.0748,1.0748,1.0748,1.0748,1.0748,1.0962,1.1116,1.1176,1.1403,1.1663,1.1957,1.1964,1.2078,1.2305,1.2305,1.2305,1.2305,1.2305,1.2305,1.2305,1.2305,1.2305,1.2305,1.2305,1.2305,1.2305,1.2305,1.2305,1.2305,1.2305,1.2305,1.2305,1.2305,1.2305,1.2305,1.2305,1.2305,1.2305,1.2305,1.2305,1.2305,1.2305,1.2305,1.2305,1.2305,1.2305,1.2305,1.2305,1.2305,1.2305,1.2305,1.2305,1.2305,1.2305,1.2305,1.2305,1.2305,1.2305,1.2305,1.2305,1.2305,1.2305,1.2305,1.2305,1.2305,1.2305,1.2305,1.2305,1.2305,1.5108,1.6908,1.6908,1.6908,1.6908,1.6908,1.6908,1.6908,1.6908,1.6908,1.6908,1.6908,1.6908,1.7064,1.7367,1.7458,1.7844,0.6131,0.0,0.0,0.8669,0.0,0.8884,0.9117,0.9183,0.9469,1.0425,1.0493,1.0388,1.0598,1.0624,1.0624,1.0624,1.0624,1.0624,1.0624,1.0624,1.0624,1.0624,1.0624,1.0624,1.0624,1.0624,1.0624,1.0624,1.0624,1.0624,1.0624,1.0701,1.0848,1.0989,1.1142,1.1356,1.1657,1.1797,1.1944,1.2098,1.2238,1.2305,1.2305,1.2305,1.2305,1.2305,1.2305,1.2305,1.2305,1.2305,1.2305,1.2305,1.2305,1.2305,1.2305,1.2305,1.2305,1.2305,1.2305,1.2305,1.2305,1.2305,1.2305,1.2305,1.2305,1.2305,1.2305,1.2305,1.2305,1.2305,1.2305,1.2305,1.2305,1.2305,1.2305,1.2305,1.2305,1.2305,1.2305,1.2305,1.2305,1.2305,1.2305,1.2305,1.2305,1.2305,1.2305,1.2305,1.2305,1.2305,1.2305,1.2305,1.2305,1.2879,1.4386,1.5965,1.6908,1.6908,1.6908,1.6908,1.6908,1.6908,1.6908,1.6908,1.6908,1.6908,1.6908,1.7165,1.7358,1.7504,1.7899,1.8201,0.6165,0.0,0.8144,0.9485,0.9242,0.0,0.9044,0.911,0.9252,0.9546,0.984,1.012,1.0361,1.0448,1.0481,1.0481,1.0591,1.0624,1.0624,1.0624,1.0624,1.0624,1.0624,1.0624,1.0624,1.0624,1.0624,1.0624,1.0624,1.0624,1.0624,1.0624,1.0675,1.0909,1.0915,1.1056,1.1349,1.1643,1.1817,1.187,1.2164,1.2305,1.2305,1.2305,1.2305,1.2305,1.2305,1.2305,1.2305,1.2305,1.2305,1.2305,1.2305,1.2305,1.2305,1.2305,1.2305,1.2305,1.2305,1.2305,1.2305,1.2305,1.2305,1.2305,1.2305,1.2305,1.2305,1.2305,1.2305,1.2305,1.2305,1.2305,1.2305,1.2305,1.2305,1.2305,1.2305,1.2305,1.2305,1.2305,1.2305,1.2305,1.2305,1.2305,1.2305,1.2305,1.2305,1.2305,1.2305,1.2305,1.2305,1.2305,1.2806,1.4099,1.6691,1.6908,1.6908,1.6908,1.6908,1.6908,1.6908,1.6908,1.6908,1.6908,1.6908,1.6908,1.6908,1.7358,1.7559,1.755,1.8275,1.8476,0.0,0.0,0.751,0.0,0.9125,0.851,0.0,0.0,0.8945,0.9239,0.9532,0.9753,0.9793,1.0007,1.0174,1.0174,1.0394,1.0624,1.0624,1.0624,1.0624,1.0624,1.0624,1.0624,1.0624,1.0624,1.0624,1.0624,1.0624,1.0624,1.0624,1.0624,1.0645,1.0678,1.0678,1.0755,1.1049,1.1343,1.1617,1.187,1.2164,1.2305,1.2305,1.2305,1.2305,1.2305,1.2305,1.2305,1.2305,1.2305,1.2305,1.2305,1.2305,1.2305,1.2305,1.2305,1.2305,1.2305,1.2305,1.2305,1.2305,1.2305,1.2305,1.2305,1.2305,1.2305,1.2305,1.2305,1.2305,1.2305,1.2305,1.2305,1.2305,1.2305,1.2305,1.2305,1.2305,1.2305,1.2305,1.2305,1.2305,1.2305,1.2305,1.2305,1.2305,1.2305,1.2305,1.2305,1.2305,1.2305,1.2305,1.2305,1.4673,1.6473,1.6839,1.6908,1.6908,1.6908,1.6908,1.6908,1.6908,1.6908,1.6908,1.6908,1.6908,1.6908,1.6908,1.6972,1.7238,1.7688,1.8036,1.8357,0.6022,0.6851,0.7601,0.0,0.8834,0.841,0.8537,0.8691,0.8844,0.8971,0.9105,0.9292,0.9619,0.9786,0.9927,1.0094,1.0227,1.0374,1.0598,1.0624,1.0624,1.0624,1.0624,1.0624,1.0624,1.0624,1.0624,1.0624,1.0624,1.0624,1.0624,1.0624,1.0624,1.0624,1.0624,1.0685,1.0748,1.1042,1.1329,1.1623,1.175,1.181,1.181,1.181,1.1991,1.2305,1.2305,1.2305,1.2305,1.2305,1.2305,1.2305,1.2305,1.2305,1.2305,1.2305,1.2305,1.2305,1.2305,1.2305,1.2305,1.2305,1.2305,1.2305,1.2305,1.2305,1.2305,1.2305,1.2305,1.2305,1.2305,1.2305,1.2305,1.2305,1.2305,1.2305,1.2305,1.2305,1.2305,1.2305,1.2305,1.2305,1.2305,1.2305,1.2305,1.2305,1.2305,1.2305,1.2305,1.2305,1.2305,1.2305,1.5037,1.6908,1.6908,1.6908,1.6908,1.6908,1.6908,1.6908,1.6908,1.6908,1.6908,1.6908,1.6908,1.6908,1.6908,1.6908,1.7027,1.7275,1.8082,1.8348,0.0,0.0,0.7404,0.8273,0.8318,0.8235,0.0,0.8544,0.8717,0.8791,0.8804,0.8945,0.9379,0.9519,0.9639,0.986,1.002,1.0194,1.0414,1.0577,1.0624,1.0624,1.0624,1.0624,1.0624,1.0624,1.0624,1.0624,1.0624,1.0624,1.0624,1.0624,1.0624,1.0624,1.0624,1.0624,1.0624,1.0848,1.1136,1.1423,1.1423,1.1423,1.1423,1.1423,1.1703,1.2191,1.2191,1.2231,1.2305,1.2305,1.2305,1.2305,1.2305,1.2305,1.2305,1.2305,1.2305,1.2305,1.2305,1.2305,1.2305,1.2305,1.2305,1.2305,1.2305,1.2305,1.2305,1.2305,1.2305,1.2305,1.2305,1.2305,1.2305,1.2305,1.2305,1.2305,1.2305,1.2305,1.2305,1.2305,1.2305,1.2305,1.2305,1.2305,1.2305,1.2305,1.2305,1.2305,1.2305,1.2305,1.2305,1.2305,1.5037,1.6908,1.6908,1.6908,1.6908,1.6908,1.6908,1.6908,1.6908,1.6908,1.6908,1.6908,1.6908,1.6908,1.6908,1.6908,1.6972,1.7128,1.8036,1.8265,0.0,0.5796,0.0,0.7399,0.7595,0.7708,0.8274,0.8434,0.8477,0.8751,0.8804,0.8818,0.8844,0.9078,0.9216,0.923,0.9753,1.012,1.014,1.0381,1.0624,1.0624,1.0624,1.0624,1.0624,1.0624,1.0624,1.0624,1.0624,1.0624,1.0624,1.0624,1.0624,1.0624,1.0624,1.0624,1.0624,1.0848,1.1136,1.1423,1.1423,1.1423,1.1423,1.1423,1.1597,1.1891,1.1891,1.2051,1.2305,1.2305,1.2305,1.2305,1.2305,1.2305,1.2305,1.2305,1.2305,1.2305,1.2305,1.2305,1.2305,1.2305,1.2305,1.2305,1.2305,1.2305,1.2305,1.2305,1.2305,1.2305,1.2305,1.2305,1.2305,1.2305,1.2305,1.2305,1.2305,1.2305,1.2305,1.2305,1.2305,1.2305,1.2305,1.2305,1.2305,1.2305,1.2305,1.2305,1.2305,1.2305,1.2305,1.2305,1.5037,1.6908,1.6908,1.6908,1.6908,1.6908,1.6908,1.6908,1.6908,1.6908,1.6908,1.6908,1.6908,1.6908,1.6908,1.6908,1.7165,1.766,1.7724,1.8009,0.0,0.0,0.0,0.6747,0.7018,0.716,0.7368,0.7767,0.8176,0.847,0.853,0.8584,0.8771,0.8891,0.9025,0.9157,0.9356,0.9619,0.9813,0.9933,1.0,1.0,1.0,1.0,1.0,1.0167,1.0274,1.0274,1.0454,1.0624,1.0624,1.0624,1.0624,1.0624,1.0624,1.0624,1.0624,1.0732,1.0768,1.0868,1.0868,1.0868,1.0868,1.0868,1.1029,1.1309,1.1309,1.1683,1.2305,1.2305,1.2305,1.2305,1.2305,1.2305,1.2305,1.2305,1.2305,1.2305,1.2305,1.2305,1.2305,1.2305,1.2305,1.2305,1.2305,1.2305,1.2305,1.2305,1.2305,1.2305,1.2305,1.2305,1.2305,1.2305,1.2305,1.2305,1.2305,1.2305,1.2305,1.2305,1.2305,1.2305,1.2305,1.2305,1.2305,1.2305,1.2305,1.2305,1.2305,1.2305,1.2305,1.2305,1.5037,1.6908,1.6908,1.6908,1.6908,1.6908,1.6908,1.6908,1.6908,1.6908,1.6908,1.6908,1.6908,1.6908,1.6908,1.6908,1.7009,1.7202,1.7541,1.7623,0.4575,0.0,0.0,0.0,0.6598,0.6709,0.7197,0.7453,0.7668,0.8123,0.8223,0.8317,0.8611,0.8664,0.8758,0.9051,0.9117,0.9256,0.9506,0.9619,0.9686,0.9686,0.9686,0.9686,0.9686,0.986,0.9973,0.9973,1.0154,1.0369,1.0408,1.0414,1.0454,1.0618,1.0624,1.0624,1.0624,1.0624,1.0624,1.0624,1.0624,1.0624,1.0624,1.0624,1.0722,1.0995,1.0995,1.1376,1.2017,1.2118,1.2158,1.2164,1.2265,1.2305,1.2305,1.2305,1.2305,1.2305,1.2305,1.2305,1.2305,1.2305,1.2305,1.2305,1.2305,1.2305,1.2305,1.2305,1.2305,1.2305,1.2305,1.2305,1.2305,1.2305,1.2305,1.2305,1.2305,1.2305,1.2305,1.2305,1.2305,1.2305,1.2305,1.2305,1.2305,1.2305,1.2305,1.2305,1.2305,1.3164,1.381,1.381,1.5683,1.6908,1.6908,1.6908,1.6908,1.6908,1.6908,1.6908,1.6908,1.6908,1.6908,1.6908,1.6908,1.6908,1.6908,1.6908,1.7,1.7174,1.7358,1.7532,0.0,0.0,0.0,0.0,0.6257,0.6329,0.7702,0.741,0.7051,0.7709,0.7842,0.7989,0.8303,0.8357,0.845,0.8738,0.9031,0.917,0.917,0.9479,0.9659,0.9659,0.9659,0.9659,0.9659,0.9666,0.9666,0.9666,0.9679,0.9806,1.0087,1.0114,1.0247,1.0598,1.0618,1.0624,1.0624,1.0624,1.0624,1.0624,1.0624,1.0624,1.0624,1.0624,1.0715,1.0982,1.0982,1.1142,1.1423,1.173,1.1857,1.1884,1.2164,1.2278,1.2278,1.2278,1.2278,1.2278,1.2278,1.2278,1.2278,1.2278,1.2285,1.2285,1.2285,1.2291,1.2305,1.2305,1.2305,1.2305,1.2305,1.2305,1.2305,1.2305,1.2305,1.2305,1.2305,1.2305,1.2305,1.2305,1.2305,1.2305,1.2305,1.2305,1.2305,1.2305,1.2305,1.2305,1.2445,1.5029,1.6908,1.6908,1.6908,1.6908,1.6908,1.6908,1.6908,1.6908,1.6908,1.6908,1.6908,1.6908,1.6908,1.6908,1.6908,1.6908,1.6908,1.6908,1.7174,1.7669,1.7147,1.7743,0.3954,0.0,0.0,0.0,0.0,0.0,0.5551,0.5704,0.5962,0.678,0.6961,0.7181,0.7916,0.8049,0.8076,0.8163,0.8597,0.8925,0.8925,0.8998,0.9051,0.9051,0.9051,0.9051,0.9051,0.9239,0.9359,0.9359,0.9559,0.9719,0.98,1.0,1.0154,1.0234,1.0448,1.0624,1.0624,1.0624,1.0624,1.0624,1.0624,1.0624,1.0624,1.0624,1.0665,1.0681,1.0681,1.0728,1.0835,1.1343,1.155,1.1557,1.1637,1.1663,1.1663,1.1663,1.1663,1.1663,1.1663,1.1663,1.1663,1.1663,1.1817,1.1991,1.1991,1.2138,1.2305,1.2305,1.2305,1.2305,1.2305,1.2305,1.2305,1.2305,1.2305,1.2305,1.2305,1.2305,1.2305,1.2305,1.2305,1.2305,1.2305,1.2305,1.2305,1.2305,1.2305,1.3091,1.5321,1.6403,1.6908,1.6908,1.6908,1.6908,1.6908,1.6908,1.6908,1.6908,1.6908,1.6908,1.6908,1.6908,1.6908,1.6908,1.6908,1.6908,1.6908,1.6908,1.6982,1.7128,1.6972,1.7147,0.0,0.0,0.0,0.4875,0.0,0.0,0.5304,0.5339,0.5465,0.6263,0.6445,0.6647,0.7408,0.751,0.759,0.7842,0.8216,0.8484,0.8611,0.8731,0.8804,0.8804,0.8804,0.8804,0.8804,0.8958,0.9058,0.9058,0.9218,0.9372,0.9492,0.9773,0.9933,0.9933,1.0221,1.0374,1.0374,1.0557,1.0624,1.0624,1.0624,1.0624,1.0624,1.0624,1.0624,1.0624,1.0624,1.0624,1.0651,1.0922,1.1136,1.1256,1.1376,1.1423,1.1423,1.1423,1.1423,1.1423,1.1423,1.1423,1.1423,1.1423,1.1543,1.1683,1.1683,1.1891,1.2144,1.2271,1.2184,1.2058,1.2058,1.2058,1.2098,1.2265,1.2305,1.2305,1.2305,1.2305,1.2305,1.2305,1.2305,1.2305,1.2305,1.3382,1.4243,1.4243,1.4243,1.4887,1.6691,1.6908,1.6908,1.6908,1.6908,1.6908,1.6908,1.6908,1.6908,1.6908,1.6908,1.6908,1.6908,1.6908,1.6908,1.6908,1.6908,1.6908,1.6908,1.6908,1.6908,1.6908,1.6908,1.6908,0.0,0.0,0.0,0.5745,0.5326,0.0,0.5982,0.5649,0.5295,0.5902,0.6001,0.6176,0.672,0.6854,0.7012,0.755,0.7722,0.7949,0.8277,0.8544,0.8711,0.8711,0.8738,0.8758,0.8758,0.8791,0.8804,0.8804,0.8804,0.8918,0.9123,0.9472,0.9633,0.9633,0.992,1.0067,1.0067,1.0361,1.0514,1.0514,1.0611,1.0624,1.0624,1.0624,1.0624,1.0624,1.0624,1.0624,1.0624,1.0624,1.0715,1.0969,1.1229,1.1329,1.1329,1.1329,1.1329,1.1329,1.1329,1.1329,1.1329,1.1329,1.1349,1.1376,1.1376,1.1583,1.1877,1.2131,1.1957,1.1683,1.1683,1.1703,1.1817,1.2204,1.2305,1.2305,1.2305,1.2305,1.2305,1.2305,1.2305,1.2305,1.2305,1.4895,1.6908,1.6908,1.6908,1.6908,1.6908,1.6908,1.6908,1.6908,1.6908,1.6908,1.6908,1.6908,1.6908,1.6908,1.6908,1.6908,1.6908,1.6908,1.6908,1.6908,1.6908,1.6908,1.6908,1.6908,1.6908,1.6908,1.6908,1.6908,0.5464,0.5828,0.6241,0.5719,0.5786,0.0,0.5047,0.48,0.4746,0.4829,0.4778,0.4923,0.5511,0.5812,0.6005,0.6126,0.674,0.7388,0.7943,0.8063,0.8054,0.8054,0.831,0.8457,0.8457,0.8671,0.8804,0.8804,0.8804,0.8831,0.8891,0.9172,0.9325,0.9325,0.9613,0.9766,0.9766,1.006,1.02,1.0207,1.0448,1.0624,1.0624,1.0624,1.0624,1.0624,1.0624,1.0624,1.0624,1.0624,1.0658,1.0648,1.0708,1.0728,1.0728,1.0728,1.0728,1.0728,1.0728,1.0728,1.0728,1.0728,1.0889,1.1076,1.1076,1.1283,1.1523,1.1577,1.1543,1.1483,1.1483,1.1603,1.1817,1.2204,1.2305,1.2305,1.2305,1.2305,1.2305,1.2305,1.2305,1.2305,1.2305,1.4895,1.6908,1.6908,1.6908,1.6908,1.6908,1.6908,1.6908,1.6908,1.6908,1.6908,1.6908,1.6908,1.6908,1.6908,1.6908,1.6908,1.6908,1.6908,1.6908,1.6908,1.6908,1.6908,1.6908,1.6908,1.6908,1.6908,1.6908,1.6908,0.5713,0.5827,0.6007,0.5679,0.5647,0.0,0.0,0.4946,0.4928,0.5183,0.4938,0.4882,0.5481,0.5564,0.5544,0.5685,0.6326,0.686,0.7021,0.7555,0.7882,0.7882,0.8063,0.815,0.815,0.8283,0.837,0.837,0.8504,0.8591,0.8591,0.8864,0.9025,0.9025,0.9305,0.9459,0.9459,0.9753,0.99,0.9907,1.02,1.0341,1.0347,1.0494,1.0624,1.0624,1.0624,1.0624,1.0624,1.0624,1.0624,1.0624,1.0624,1.0624,1.0624,1.0624,1.0624,1.0624,1.0624,1.0624,1.0624,1.0624,1.0719,1.0775,1.0775,1.0982,1.1209,1.1209,1.1209,1.1223,1.1269,1.1209,1.1336,1.2118,1.2305,1.2305,1.2305,1.2305,1.2305,1.2305,1.2305,1.2806,1.4314,1.5903,1.6908,1.6908,1.6908,1.6908,1.6908,1.6908,1.6908,1.6908,1.6908,1.6908,1.6908,1.6908,1.6908,1.6908,1.6908,1.6908,1.6908,1.6908,1.6908,1.6908,1.6908,1.6908,1.6908,1.6908,1.6908,1.6908,1.6908,1.6908,0.6058,0.5981,0.6051,0.5981,0.5797,0.5647,0.0,0.0,0.0,0.5681,0.5327,0.5094,0.5595,0.539,0.5215,0.545,0.5988,0.629,0.6055,0.686,0.7528,0.7582,0.7742,0.7816,0.7716,0.7709,0.7756,0.7875,0.8043,0.8163,0.8283,0.8564,0.8724,0.8724,0.9005,0.9103,0.9103,0.9452,0.9599,0.9599,0.9947,1.0114,1.0127,1.0421,1.0624,1.0624,1.0624,1.0624,1.0624,1.0624,1.0624,1.0624,1.0624,1.0624,1.0624,1.0624,1.0624,1.0624,1.0624,1.0624,1.0624,1.0624,1.0624,1.0624,1.0624,1.0722,1.0909,1.0909,1.0909,1.0929,1.1002,1.0795,1.0802,1.1744,1.2138,1.2305,1.2305,1.2305,1.2305,1.2305,1.2305,1.331,1.6403,1.6908,1.6908,1.6908,1.6908,1.6908,1.6908,1.6908,1.6908,1.6908,1.6908,1.6908,1.6908,1.6908,1.6908,1.6908,1.6908,1.6908,1.6908,1.6908,1.6908,1.6908,1.6908,1.6908,1.6908,1.6908,1.6908,1.6908,1.6908,1.6908,0.713,0.7536,0.7879,0.714,0.7271,0.7257,0.5988,0.0,0.5485,0.4955,0.0,0.4743,0.4814,0.0,0.0,0.4638,0.5181,0.5573,0.5416,0.5759,0.6145,0.6364,0.709,0.7415,0.7148,0.7078,0.7304,0.7842,0.7462,0.7408,0.7908,0.8263,0.8424,0.8424,0.8704,0.8858,0.8858,0.9145,0.9236,0.9236,0.9853,1.0114,1.0127,1.0421,1.0624,1.0624,1.0624,1.0624,1.0624,1.0624,1.0624,1.0624,1.0624,1.0624,1.0624,1.0624,1.0624,1.0624,1.0624,1.0624,1.0624,1.0624,1.0624,1.0624,1.0624,1.0645,1.0672,1.0672,1.0672,1.0672,1.0621,1.0658,1.0658,1.0792,1.155,1.2305,1.2305,1.2305,1.2305,1.2305,1.2305,1.331,1.6403,1.6908,1.6908,1.6908,1.6908,1.6908,1.6908,1.6908,1.6908,1.6908,1.6908,1.6908,1.6908,1.6908,1.6908,1.6908,1.6908,1.6908,1.6908,1.6908,1.6908,1.6908,1.6908,1.6908,1.6908,1.6908,1.6908,1.6908,1.6908,1.6908,0.701,0.7164,0.7305,0.6954,0.6919,0.6807,0.6203,0.5903,0.572,0.5647,0.0,0.0,0.0,0.0,0.0,0.0,0.4913,0.5134,0.4933,0.527,0.5712,0.6142,0.6364,0.6533,0.6754,0.662,0.6767,0.7317,0.7014,0.7034,0.7629,0.8116,0.8427,0.8427,0.8657,0.8804,0.8804,0.8925,0.8985,0.8991,0.9406,0.9699,0.9873,1.0167,1.0401,1.0624,1.0624,1.0624,1.0624,1.0624,1.0624,1.0624,1.0624,1.0624,1.0624,1.0624,1.0624,1.0624,1.0624,1.0624,1.0624,1.0624,1.0624,1.0624,1.0624,1.0624,1.0624,1.0624,1.0624,1.0624,1.0624,1.0624,1.0624,1.0624,1.1001,1.1289,1.1289,1.1824,1.2305,1.2305,1.2305,1.2732,1.4027,1.4243,1.4824,1.6621,1.6908,1.6908,1.6908,1.6908,1.6908,1.6908,1.6908,1.6908,1.6908,1.6908,1.6908,1.6908,1.6908,1.6908,1.6908,1.6908,1.6908,1.6908,1.6908,1.6908,1.6908,1.6908,1.6908,1.6908,1.6908,1.6908,0.7037,0.6971,0.6928,0.6746,0.657,0.6351,0.6208,0.6054,0.601,0.6253,0.5923,0.0,0.0,0.0,0.5011,0.4807,0.0,0.4984,0.4648,0.4871,0.5267,0.58,0.5752,0.5912,0.642,0.6095,0.6072,0.6734,0.6366,0.6433,0.7231,0.7715,0.8083,0.825,0.8537,0.8731,0.8804,0.8804,0.8804,0.8811,0.905,0.9352,0.9579,0.9947,1.0234,1.0441,1.0584,1.0624,1.0624,1.0624,1.0624,1.0624,1.0624,1.0624,1.0624,1.0624,1.0624,1.0624,1.0624,1.0624,1.0624,1.0624,1.0624,1.0624,1.0624,1.0624,1.0624,1.0624,1.0624,1.0624,1.0624,1.0624,1.0624,1.0624,1.0624,1.0624,1.0624,1.1476,1.2305,1.2305,1.2305,1.2305,1.2305,1.3025,1.4314,1.6551,1.6908,1.6908,1.6908,1.6908,1.6908,1.6908,1.6908,1.6908,1.6908,1.6908,1.6908,1.6908,1.6908,1.6908,1.6908,1.6908,1.6908,1.6908,1.6908,1.6908,1.6908,1.6908,1.6908,1.6908,1.6908,1.6908,0.769,0.7682,0.7529,0.6862,0.6695,0.6527,0.5934,0.6061,0.6289,0.6297,0.6497,0.6658,0.6673,0.6446,0.6014,0.0,0.5254,0.0,0.0,0.4456,0.4488,0.4881,0.5377,0.5832,0.6176,0.5384,0.5244,0.6156,0.5384,0.5365,0.6553,0.6901,0.7335,0.7882,0.8237,0.8524,0.8804,0.8804,0.8804,0.8811,0.905,0.919,0.9216,0.9853,1.012,1.0147,1.0434,1.0624,1.0624,1.0624,1.0624,1.0624,1.0624,1.0624,1.0624,1.0624,1.0624,1.0624,1.0624,1.0624,1.0624,1.0624,1.0624,1.0624,1.0624,1.0624,1.0624,1.0624,1.0624,1.0624,1.0624,1.0624,1.0624,1.0624,1.0624,1.0624,1.0624,1.1476,1.2305,1.2305,1.2305,1.2305,1.2305,1.4744,1.676,1.6908,1.6908,1.6908,1.6908,1.6908,1.6908,1.6908,1.6908,1.6908,1.6908,1.6908,1.6908,1.6908,1.6908,1.6908,1.6908,1.6908,1.6908,1.6908,1.6908,1.6908,1.6908,1.6908,1.6908,1.6908,1.6908,1.6908,0.7712,0.7712,0.7609,0.7131,0.6862,0.6593,0.6231,0.6223,0.6304,0.6304,0.6519,0.6702,0.6702,0.6482,0.0,0.0,0.0,0.5079,0.0,0.4309,0.4252,0.4298,0.5009,0.5423,0.5291,0.519,0.5331,0.5825,0.5585,0.5758,0.6546,0.7054,0.7408,0.7615,0.811,0.8424,0.8517,0.8711,0.8804,0.8804,0.8911,0.9051,0.919,0.9389,0.9646,0.9846,1.014,1.0267,1.0281,1.0481,1.0624,1.0624,1.0624,1.0624,1.0624,1.0624,1.0624,1.0624,1.0624,1.0624,1.0624,1.0624,1.0624,1.0624,1.0624,1.0624,1.0624,1.0624,1.0624,1.0624,1.0624,1.0624,1.0624,1.0624,1.0624,1.0624,1.0624,1.1069,1.1683,1.2198,1.2305,1.2305,1.2305,1.4895,1.6908,1.6908,1.6908,1.6908,1.6908,1.6908,1.6908,1.6908,1.6908,1.6908,1.6908,1.6908,1.6908,1.6908,1.6908,1.6908,1.6908,1.5881,1.5817,1.689,1.6908,1.6908,1.6908,1.6908,1.6908,1.6908,1.6908,1.6908,0.767,0.7712,0.7638,0.727,0.703,0.676,0.64,0.6392,0.6439,0.6439,0.6695,0.6913,0.703,0.6826,0.6424,0.0,0.0,0.0,0.0,0.4212,0.4148,0.3944,0.4603,0.5002,0.4814,0.4823,0.5054,0.5524,0.5464,0.5705,0.6438,0.6935,0.7291,0.7506,0.7896,0.8205,0.842,0.8557,0.8704,0.8804,0.8804,0.8905,0.9037,0.9137,0.9345,0.9546,0.9947,1.0114,1.014,1.0441,1.0624,1.0624,1.0624,1.0624,1.0624,1.0624,1.0624,1.0624,1.0624,1.0624,1.0624,1.0624,1.0624,1.0624,1.0624,1.0624,1.0624,1.0624,1.0624,1.0624,1.0624,1.0624,1.0624,1.0624,1.0624,1.0651,1.0688,1.0989,1.141,1.1984,1.2204,1.2305,1.2305,1.4386,1.6254,1.6839,1.6908,1.6908,1.6908,1.6908,1.6908,1.6908,1.6908,1.6908,1.6908,1.6908,1.6908,1.6908,1.6908,1.6908,1.6908,1.5909,1.5845,1.689,1.6908,1.6908,1.6908,1.6908,1.6908,1.6908,1.6908,1.6908]},{"header":{"parameterUnit":"m.s-1","parameterCategory":1,"la1":30.6,"la2":29.2853,"lo1":-89.7004,"lo2":-87.6739,"dy":0.0162,"dx":0.0183,"nx":112,"ny":82,"refTime":"2025-08-13T00:00:00:Z","depth":0,"parameterNumber":3,"parameterNumberName":"V-component_of_WINDS"},"data":[0.0,0.0,0.0,0.0,0.0,0.0,0.0,0.0,0.0,0.0,0.0,0.0,0.0,0.0,0.0,0.0,0.0,0.0,0.0,0.0,0.0,0.0,0.0,0.0,0.0,0.0,0.0,0.0,0.0,0.0,0.0,0.0,0.0,0.0,0.0,0.0,0.0,0.0,0.0,0.0,0.0,0.0,0.0,0.0,0.0,0.0,0.0,0.0,0.0,0.0,0.0,0.0,0.0,0.0,0.0,0.0,0.0,0.0,0.0,0.0,0.0,0.0,0.0,0.0,0.0,0.0,0.0,0.0,0.0,0.0,0.0,0.0,0.0,0.0,0.0,0.0,0.0,0.0,0.0,0.0,0.0,0.0,0.0,0.0,0.0,0.0,0.0,0.0,0.0,0.0,-0.985,-1.14,-1.3828,-1.5334,-1.5334,-1.5175,-1.3903,-1.1268,0.0,0.0,0.0,0.0,0.0,0.0,0.0,0.0,0.0,0.0,0.0,0.0,0.0,0.0,0.0,0.0,0.0,0.0,0.0,0.0,0.0,0.0,0.0,0.0,0.0,0.0,0.0,0.0,0.0,0.0,0.0,0.0,0.0,0.0,0.0,0.0,0.0,0.0,0.0,0.0,0.0,0.0,0.0,0.0,0.0,0.0,0.0,0.0,0.0,0.0,0.0,0.0,0.0,0.0,0.0,0.0,0.0,0.0,0.0,0.0,0.0,0.0,0.0,0.0,0.0,0.0,0.0,0.0,0.0,0.0,0.0,0.0,0.0,0.0,0.0,0.0,0.0,0.0,0.0,0.0,0.0,0.0,0.0,0.0,0.0,0.0,0.0,0.0,0.0,0.0,0.0,0.0,0.0,0.0,0.0,0.0,0.0,0.0,0.0,0.0,0.0,0.0,0.0,0.0,-1.0927,-1.3467,-1.5103,-1.6041,-1.6041,-1.5021,-1.3698,-1.2107,0.0,0.0,0.0,0.0,0.0,0.0,0.0,0.0,0.0,0.0,0.0,0.0,0.0,0.0,0.0,0.0,0.0,0.0,0.0,0.0,0.0,0.0,0.0,0.0,0.0,0.0,0.0,0.0,0.0,0.0,0.0,0.0,0.0,0.0,0.0,0.0,0.0,0.0,0.0,0.0,0.0,0.0,0.0,0.0,0.0,0.0,0.0,0.0,0.0,0.0,0.0,0.0,0.0,0.0,0.0,0.0,0.0,0.0,0.0,0.0,0.0,0.0,0.0,0.0,0.0,0.0,0.0,0.0,0.0,0.0,0.0,0.0,0.0,0.0,0.0,0.0,0.0,0.0,0.0,0.0,0.0,0.0,0.0,0.0,0.0,0.0,0.0,0.0,0.0,0.0,0.0,0.0,0.0,0.0,0.0,0.0,0.0,0.0,0.0,0.0,0.0,0.0,0.0,-1.042,-1.1989,-1.399,-1.538,-1.6194,-1.6194,-1.4975,-1.3574,-1.2125,-1.0922,0.0,0.0,0.0,0.0,0.0,0.0,0.0,0.0,0.0,0.0,0.0,0.0,0.0,0.0,0.0,0.0,0.0,0.0,0.0,0.0,0.0,0.0,0.0,0.0,0.0,0.0,0.0,0.0,0.0,0.0,0.0,0.0,0.0,0.0,0.0,0.0,0.0,0.0,0.0,0.0,0.0,0.0,0.0,0.0,0.0,0.0,0.0,0.0,0.0,0.0,0.0,0.0,0.0,0.0,0.0,0.0,0.0,0.0,0.0,0.0,0.0,0.0,0.0,0.0,0.0,0.0,0.0,0.0,0.0,0.0,0.0,0.0,0.0,0.0,0.0,0.0,0.0,0.0,0.0,0.0,0.0,0.0,0.0,0.0,0.0,0.0,0.0,0.0,0.0,0.0,0.0,0.0,0.0,0.0,0.0,0.0,0.0,0.0,0.0,0.0,0.0,0.0,-1.202,-1.3113,-1.4313,-1.5487,-1.6194,-1.6194,-1.4837,-1.339,-1.2067,-1.0523,0.0,0.0,0.0,0.0,0.0,0.0,0.0,0.0,0.0,0.0,0.0,0.0,0.0,0.0,0.0,0.0,0.0,0.0,0.0,0.0,0.0,0.0,0.0,0.0,0.0,0.0,0.0,0.0,0.0,0.0,0.0,0.0,0.0,0.0,0.0,0.0,0.0,0.0,0.0,0.0,0.0,0.0,0.0,0.0,0.0,0.0,0.0,0.0,0.0,0.0,0.0,0.0,0.0,0.0,0.0,0.0,0.0,0.0,0.0,0.0,0.0,0.0,0.0,0.0,0.0,0.0,0.0,0.0,0.0,0.0,0.0,0.0,0.0,0.0,0.0,0.0,0.0,0.0,0.0,0.0,0.0,0.0,0.0,0.0,0.0,0.0,0.0,0.0,0.0,0.0,0.0,0.0,0.0,0.0,0.0,0.0,0.0,0.0,0.0,0.0,0.0,0.0,-1.2836,-1.4344,-1.5068,-1.5764,-1.6194,-1.6194,-1.4406,-1.2959,-1.2236,-1.0154,0.0,0.0,0.0,0.0,0.0,0.0,0.0,0.0,0.0,0.0,0.0,0.0,0.0,0.0,0.0,0.0,0.0,0.0,0.0,0.0,0.0,0.0,0.0,0.0,0.0,0.0,0.0,0.0,0.0,0.0,0.0,0.0,0.0,0.0,0.0,0.0,0.0,0.0,0.0,0.0,0.0,0.0,0.0,0.0,0.0,0.0,0.0,0.0,0.0,0.0,0.0,0.0,0.0,0.0,0.0,0.0,0.0,0.0,0.0,0.0,0.0,0.0,0.0,0.0,0.0,0.0,0.0,0.0,0.0,0.0,0.0,0.0,0.0,0.0,0.0,0.0,0.0,0.0,0.0,0.0,0.0,0.0,0.0,0.0,0.0,0.0,0.0,0.0,0.0,0.0,0.0,0.0,0.0,0.0,0.0,0.0,0.0,0.0,0.0,0.0,0.0,0.0,-1.2559,-1.399,-1.5073,-1.5795,-1.6194,-1.6194,-1.4744,-1.3359,-1.2272,0.0,0.0,0.0,0.0,0.0,0.0,0.0,0.0,0.0,0.0,0.0,0.0,0.0,0.0,0.0,0.0,0.0,0.0,0.0,0.0,0.0,0.0,0.0,0.0,0.0,0.0,0.0,0.0,0.0,0.0,0.0,0.0,0.0,0.0,0.0,0.0,0.0,0.0,0.0,0.0,0.0,0.0,0.0,0.0,0.0,0.0,0.0,0.0,0.0,0.0,0.0,0.0,0.0,0.0,0.0,0.0,0.0,0.0,0.0,0.0,0.0,0.0,0.0,0.0,0.0,0.0,0.0,0.0,0.0,0.0,0.0,0.0,0.0,0.0,0.0,0.0,0.0,0.0,0.0,0.0,0.0,0.0,0.0,0.0,0.0,0.0,0.0,0.0,0.0,0.0,0.0,0.0,0.0,0.0,0.0,0.0,0.0,0.0,0.0,0.0,0.0,0.0,-1.1128,-1.2667,-1.4036,-1.5365,-1.5918,-1.6194,-1.6194,-1.4791,-1.339,-1.2272,0.0,0.0,0.0,0.0,0.0,0.0,0.0,0.0,0.0,0.0,0.0,0.0,0.0,0.0,0.0,0.0,0.0,0.0,0.0,0.0,0.0,0.0,0.0,0.0,0.0,0.0,0.0,0.0,0.0,0.0,0.0,0.0,0.0,0.0,0.0,0.0,0.0,0.0,0.0,0.0,0.0,0.0,0.0,0.0,0.0,0.0,0.0,0.0,0.0,0.0,0.0,0.0,0.0,0.0,0.0,0.0,0.0,0.0,0.0,0.0,0.0,0.0,0.0,0.0,0.0,0.0,0.0,0.0,0.0,0.0,0.0,0.0,0.0,0.0,0.0,0.0,0.0,0.0,0.0,0.0,0.0,0.0,0.0,0.0,0.0,0.0,0.0,0.0,0.0,0.0,0.0,0.0,0.0,0.0,0.0,0.0,0.0,0.0,0.0,0.0,0.0,0.0,-1.1933,-1.3375,-1.4714,-1.6056,-1.6194,-1.6194,-1.6194,-1.436,-1.2913,0.0,0.0,0.0,0.0,0.0,0.0,0.0,0.0,0.0,0.0,0.0,0.0,0.0,0.0,0.0,0.0,0.0,0.0,0.0,0.0,0.0,0.0,0.0,0.0,0.0,0.0,0.0,0.0,0.0,0.0,0.0,0.0,0.0,0.0,0.0,0.0,0.0,0.0,0.0,0.0,0.0,0.0,0.0,0.0,0.0,0.0,0.0,0.0,0.0,0.0,0.0,0.0,0.0,0.0,0.0,0.0,0.0,0.0,0.0,0.0,0.0,0.0,0.0,0.0,0.0,0.0,0.0,0.0,0.0,0.0,0.0,0.0,0.0,0.0,0.0,0.0,0.0,0.0,0.0,0.0,0.0,0.0,0.0,0.0,0.0,0.0,0.0,0.0,0.0,0.0,0.0,0.0,0.0,0.0,0.0,0.0,0.0,0.0,0.0,0.0,0.0,0.0,0.0,-1.1871,-1.3375,-1.4714,-1.6056,-1.6194,-1.6194,-1.6194,-1.4791,-1.3405,-1.2272,0.0,0.0,0.0,0.0,0.0,0.0,0.0,0.0,0.0,0.0,0.0,0.0,0.0,0.0,0.0,0.0,0.0,0.0,0.0,0.0,0.0,0.0,0.0,0.0,0.0,0.0,0.0,0.0,0.0,0.0,0.0,0.0,0.0,0.0,0.0,0.0,0.0,0.0,0.0,0.0,0.0,0.0,0.0,0.0,0.0,0.0,0.0,0.0,0.0,0.0,0.0,0.0,0.0,0.0,0.0,0.0,0.0,0.0,0.0,0.0,0.0,0.0,0.0,0.0,0.0,0.0,0.0,0.0,0.0,0.0,0.0,0.0,0.0,0.0,0.0,0.0,0.0,0.0,0.0,0.0,0.0,0.0,0.0,0.0,0.0,0.0,0.0,0.0,0.0,0.0,0.0,0.0,0.0,0.0,0.0,0.0,0.0,0.0,0.0,0.0,0.0,0.0,-1.1887,-1.3375,-1.4714,-1.6056,-1.6194,-1.6194,-1.6194,-1.5222,-1.4036,-1.2667,0.0,0.0,0.0,0.0,0.0,0.0,0.0,0.0,0.0,0.0,0.0,0.0,0.0,0.0,0.0,0.0,0.0,0.0,0.0,0.0,0.0,0.0,0.0,0.0,0.0,0.0,0.0,0.0,0.0,0.0,0.0,0.0,0.0,0.0,0.0,0.0,0.0,0.0,0.0,0.0,0.0,0.0,0.0,0.0,0.0,0.0,0.0,0.0,0.0,0.0,0.0,0.0,0.0,0.0,0.0,0.0,0.0,0.0,0.0,0.0,0.0,0.0,0.0,0.0,0.0,0.0,0.0,0.0,0.0,0.0,0.0,0.0,0.0,0.0,0.0,0.0,0.0,0.0,0.0,0.0,0.0,0.0,0.0,0.0,0.0,0.0,0.0,0.0,0.0,0.0,0.0,0.0,0.0,0.0,0.0,0.0,0.0,0.0,0.0,0.0,0.0,0.0,-1.1948,-1.3444,-1.4816,-1.6083,-1.6222,-1.6222,-1.6194,-1.558,-1.4637,-1.3282,0.0,0.0,0.0,0.0,0.0,0.0,0.0,0.0,0.0,0.0,0.0,0.0,0.0,0.0,0.0,0.0,0.0,0.0,0.0,0.0,0.0,0.0,0.0,0.0,0.0,0.0,0.0,0.0,0.0,0.0,0.0,0.0,0.0,0.0,0.0,0.0,0.0,0.0,0.0,0.0,0.0,0.0,0.0,0.0,0.0,0.0,0.0,0.0,0.0,0.0,0.0,0.0,0.0,0.0,0.0,0.0,0.0,0.0,0.0,0.0,-1.2855,-1.1401,0.0,0.0,0.0,0.0,0.0,0.0,0.0,0.0,0.0,0.0,0.0,0.0,0.0,0.0,0.0,0.0,0.0,0.0,0.0,0.0,0.0,0.0,0.0,0.0,0.0,0.0,0.0,0.0,0.0,0.0,0.0,0.0,0.0,0.0,0.0,0.0,0.0,0.0,0.0,0.0,-1.2071,-1.4053,-1.554,-1.6208,-1.6409,-1.6425,-1.6222,-1.558,-1.4637,-1.3282,-1.1743,0.0,0.0,0.0,0.0,0.0,0.0,0.0,0.0,0.0,0.0,0.0,0.0,0.0,0.0,0.0,0.0,0.0,0.0,0.0,0.0,0.0,0.0,0.0,0.0,0.0,0.0,0.0,0.0,0.0,0.0,0.0,0.0,0.0,0.0,0.0,0.0,0.0,0.0,0.0,0.0,0.0,0.0,0.0,0.0,0.0,0.0,0.0,0.0,0.0,0.0,0.0,0.0,0.0,0.0,0.0,0.0,0.0,0.0,0.0,-1.5412,-1.4357,0.0,0.0,0.0,0.0,0.0,0.0,0.0,0.0,0.0,0.0,0.0,0.0,0.0,0.0,0.0,0.0,0.0,0.0,0.0,0.0,0.0,0.0,0.0,0.0,0.0,0.0,0.0,0.0,0.0,0.0,0.0,0.0,0.0,0.0,0.0,0.0,0.0,0.0,0.0,0.0,-1.2588,-1.4382,-1.5712,-1.6251,-1.6382,-1.6382,-1.6222,-1.5872,-1.5268,-1.4236,-1.2867,0.0,0.0,0.0,0.0,0.0,0.0,0.0,0.0,0.0,0.0,0.0,0.0,0.0,0.0,0.0,0.0,0.0,0.0,0.0,0.0,0.0,0.0,0.0,0.0,0.0,0.0,0.0,0.0,0.0,0.0,0.0,0.0,0.0,0.0,0.0,0.0,0.0,0.0,0.0,0.0,0.0,0.0,0.0,0.0,0.0,0.0,0.0,0.0,0.0,0.0,0.0,0.0,0.0,-1.896,-1.8642,-1.8485,-1.7924,-1.8387,-1.957,-1.8246,-1.7861,-1.7995,-1.5662,0.0,0.0,0.0,0.0,0.0,0.0,0.0,0.0,0.0,0.0,0.0,0.0,0.0,0.0,0.0,0.0,0.0,0.0,0.0,0.0,0.0,0.0,-1.5466,-1.5896,-1.6733,-1.687,-1.4811,0.0,0.0,0.0,0.0,0.0,0.0,0.0,0.0,0.0,0.0,0.0,-1.3346,-1.4749,-1.5811,-1.6266,-1.6355,-1.6301,-1.6222,-1.6194,-1.5902,-1.5252,-1.4052,-1.3067,0.0,0.0,0.0,0.0,0.0,0.0,0.0,0.0,0.0,0.0,0.0,0.0,0.0,0.0,0.0,0.0,0.0,0.0,0.0,0.0,0.0,0.0,0.0,0.0,0.0,0.0,0.0,0.0,0.0,0.0,0.0,0.0,-1.0261,-1.1812,0.0,0.0,0.0,0.0,0.0,0.0,0.0,0.0,0.0,0.0,0.0,0.0,0.0,-1.6219,-1.6315,-1.8392,-1.9651,-2.0108,-2.1438,-2.2057,-2.2031,-2.1928,-2.2022,-2.2194,-2.1988,0.0,-1.879,-1.7849,0.0,0.0,0.0,0.0,0.0,0.0,0.0,0.0,0.0,0.0,0.0,0.0,0.0,0.0,0.0,0.0,0.0,0.0,0.0,0.0,0.0,0.0,-1.947,-1.8898,-1.935,-1.9837,-1.9505,-1.6723,-1.412,-1.3492,-1.3057,-1.2405,0.0,0.0,0.0,0.0,0.0,0.0,-1.4217,-1.5627,-1.6496,-1.6409,-1.649,-1.6463,-1.6222,-1.6194,-1.5902,-1.5252,-1.4498,-1.3759,-1.3098,-1.1635,0.0,0.0,0.0,0.0,0.0,0.0,0.0,0.0,0.0,0.0,0.0,0.0,0.0,0.0,0.0,0.0,0.0,0.0,0.0,0.0,0.0,0.0,0.0,0.0,0.0,0.0,0.0,0.0,0.0,-0.9537,-1.119,-1.1899,-1.1975,-1.1813,0.0,0.0,0.0,0.0,0.0,0.0,0.0,0.0,0.0,-1.7432,-1.828,-1.8961,-1.9406,-2.1293,-2.2228,-2.2245,-2.3443,-2.3988,-2.3988,-2.3988,-2.3988,-2.3988,-2.3988,-2.3364,-2.2228,-2.0089,-1.8392,-1.7004,0.0,0.0,0.0,0.0,-1.6581,-1.6758,-1.8017,-1.8566,-1.8464,-1.6992,0.0,0.0,0.0,0.0,0.0,0.0,0.0,-1.6223,-1.7254,-1.8626,-1.9779,-1.9984,-2.0615,-2.1126,-2.0961,-1.9437,-1.7721,-1.6373,-1.5681,-1.4709,-1.2683,-1.2178,0.0,0.0,0.0,-1.4163,-1.4865,-1.5879,-1.6474,-1.6355,-1.6409,-1.6355,-1.6222,-1.6194,-1.6071,-1.5764,-1.5119,-1.4637,-1.4344,-1.3005,-1.182,0.0,0.0,0.0,0.0,0.0,0.0,0.0,0.0,0.0,0.0,0.0,0.0,0.0,0.0,0.0,0.0,0.0,0.0,0.0,0.0,0.0,0.0,0.0,0.0,0.0,0.0,0.0,0.0,-1.1376,-1.2391,-1.2631,-1.3411,-1.3572,0.0,0.0,0.0,0.0,0.0,0.0,-1.7495,-1.7859,-1.8711,-2.0174,-2.0914,-2.1652,-2.247,-2.3574,-2.4126,-2.4098,-2.4712,-2.5005,-2.5005,-2.5005,-2.5005,-2.5005,-2.5005,-2.5005,-2.4816,-2.2407,-2.1054,-2.0408,-1.9604,-1.9102,-1.8956,-1.982,-1.9894,-1.9723,-2.0972,-2.1484,-2.1266,-1.9219,-1.876,-1.8626,-1.6628,0.0,0.0,0.0,0.0,-1.7358,-1.8788,-1.9564,-2.0146,-2.0832,-2.1425,-2.1738,-2.1495,-2.1292,-2.0653,-1.8913,-1.8258,-1.7202,-1.4833,-1.4156,0.0,-1.3735,-1.4562,-1.5462,-1.6082,-1.6628,-1.694,-1.6884,-1.6856,-1.6738,-1.6499,-1.6455,-1.6379,-1.621,-1.5718,-1.5468,-1.5468,-1.4344,-1.3313,-1.2472,0.0,0.0,0.0,0.0,0.0,0.0,0.0,0.0,0.0,0.0,0.0,0.0,0.0,0.0,0.0,0.0,0.0,0.0,0.0,0.0,0.0,0.0,0.0,0.0,0.0,0.0,0.0,0.0,0.0,-1.5714,-1.7141,0.0,0.0,0.0,0.0,-1.6855,-1.761,-1.8672,-2.013,-2.0946,-2.2031,-2.3512,-2.3598,-2.404,-2.4833,-2.4902,-2.4936,-2.4936,-2.4988,-2.5005,-2.5005,-2.5005,-2.5005,-2.5005,-2.5005,-2.5005,-2.4988,-2.4833,-2.4442,-2.3943,-2.3891,-2.3659,-2.3528,-2.4829,-2.3961,-2.2214,-2.3011,-2.2982,-2.2546,-2.2105,-2.1111,-2.0084,-1.9957,-1.9209,0.0,0.0,-2.0183,-2.1075,-2.1809,-2.2029,-2.2062,-2.2096,-2.1965,-2.1797,-2.1781,-2.1524,-2.114,-2.057,-2.0339,-1.9904,-1.8795,0.0,-1.8111,-1.7854,-1.7586,-1.7707,-1.8426,-1.8509,-1.8451,-1.8405,-1.833,-1.7991,-1.7208,-1.7147,-1.687,-1.6225,-1.6163,-1.6148,-1.6148,-1.5457,-1.4483,-1.3175,-1.2426,0.0,0.0,0.0,0.0,0.0,0.0,0.0,0.0,0.0,0.0,0.0,0.0,0.0,0.0,0.0,0.0,0.0,0.0,0.0,0.0,0.0,0.0,0.0,0.0,0.0,0.0,0.0,0.0,-1.7443,-1.8429,0.0,-1.7685,-1.7876,-1.8418,-1.9225,-1.9976,-2.1039,-2.2513,-2.284,-2.3505,-2.4557,-2.4574,-2.4712,-2.5005,-2.5471,-2.5712,-2.5712,-2.623,-2.6471,-2.6471,-2.6471,-2.6471,-2.6471,-2.6471,-2.6471,-2.6471,-2.6471,-2.5771,-2.4706,-2.4717,-2.4421,-2.4067,-2.4394,-2.3991,-2.3266,-2.3374,-2.3419,-2.3374,-2.3077,-2.2197,-2.1337,-2.1502,-2.0964,-2.0426,-2.0908,-2.1316,-2.1623,-2.1874,-2.194,-2.194,-2.194,-2.1869,-2.1797,-2.1797,-2.1853,-2.184,-2.1658,-2.0742,-1.9881,-1.9469,-1.9171,-1.8821,-1.8423,-1.8663,-1.8974,-1.9179,-1.9183,-1.9155,-1.9086,-1.8898,-1.8657,-1.8332,-1.7849,-1.7418,-1.6985,-1.6647,-1.6371,-1.6222,-1.5964,-1.5222,-1.3867,-1.319,-1.1697,0.0,0.0,0.0,0.0,0.0,0.0,0.0,0.0,0.0,0.0,0.0,0.0,0.0,0.0,0.0,0.0,0.0,0.0,0.0,0.0,0.0,0.0,0.0,0.0,0.0,-1.6708,-1.8173,-1.872,-1.9839,-2.0216,-1.9272,-1.9958,-2.0804,-2.1645,-2.2107,-2.2901,-2.4132,-2.4212,-2.4574,-2.535,-2.5367,-2.5505,-2.5764,-2.6264,-2.6506,-2.6523,-2.7299,-2.7661,-2.7661,-2.7661,-2.7661,-2.7661,-2.7402,-2.7299,-2.7299,-2.7299,-2.6597,-2.5579,-2.5733,-2.5567,-2.5212,-2.5095,-2.4842,-2.4526,-2.4083,-2.3967,-2.4047,-2.3951,-2.349,-2.2965,-2.3158,-2.2891,-2.2538,-2.2378,-2.2413,-2.2375,-2.2036,-2.1869,-2.1811,-2.1911,-2.1781,-2.1661,-2.1797,-2.194,-2.2068,-2.2068,-2.1383,-2.0759,-2.0723,-2.0417,-2.0069,-1.9617,-2.0009,-2.0268,-2.0054,-2.0184,-2.02,-2.0029,-1.9809,-1.9519,-1.9102,-1.8365,-1.7791,-1.7486,-1.6827,-1.6463,-1.6463,-1.6072,-1.5371,-1.435,-1.3358,-1.2344,-1.1278,0.0,0.0,0.0,0.0,0.0,0.0,0.0,0.0,0.0,0.0,0.0,0.0,0.0,0.0,0.0,0.0,0.0,0.0,0.0,0.0,0.0,0.0,0.0,-1.7265,-1.8606,-1.9582,-1.9617,-2.1562,-2.2352,-2.0905,-2.195,-2.311,-2.4023,-2.3922,-2.4195,-2.4988,-2.504,-2.5367,-2.6126,-2.6143,-2.6523,-2.7316,-2.7333,-2.7351,-2.7368,-2.8092,-2.8437,-2.8437,-2.8437,-2.8437,-2.8385,-2.7678,-2.7368,-2.7368,-2.7333,-2.7089,-2.6775,-2.7137,-2.7282,-2.725,-2.7299,-2.6768,-2.601,-2.5286,-2.4816,-2.4601,-2.494,-2.5028,-2.5011,-2.5011,-2.4993,-2.4775,-2.3743,-2.3653,-2.3577,-2.2513,-2.2061,-2.1915,-2.2153,-2.1777,-2.1433,-2.1768,-2.1827,-2.1827,-2.1827,-2.2315,-2.2712,-2.2685,-2.2419,-2.2079,-2.1702,-2.1735,0.0,-2.1197,-2.1554,-2.1661,-2.1261,-2.1103,-2.0575,-1.9542,-1.8733,-1.8083,-1.7672,-1.6775,-1.6495,-1.7025,-1.5904,-1.5096,-1.4701,-1.3103,-1.2713,-1.3595,0.0,0.0,0.0,0.0,0.0,0.0,0.0,0.0,0.0,0.0,0.0,0.0,0.0,0.0,0.0,0.0,0.0,0.0,0.0,0.0,0.0,-1.7683,-1.9495,-1.9017,-2.0276,-2.1464,-2.2054,-2.2519,-2.2694,-2.2384,-2.3059,-2.3619,-2.3925,-2.4406,-2.5005,-2.5764,-2.5816,-2.6161,-2.6954,-2.6971,-2.7333,-2.8092,-2.8092,-2.8368,-2.8903,-2.911,-2.9213,-2.9213,-2.9213,-2.9213,-2.9196,-2.8989,-2.8903,-2.8851,-2.8316,-2.77,-2.7137,-2.725,-2.694,-2.647,-2.6775,-2.6556,-2.6084,-2.5849,-2.5748,-2.568,-2.5782,-2.548,-2.5126,-2.5285,-2.5006,-2.4637,-2.4567,-2.462,-2.4459,-2.3584,-2.3311,-2.313,-2.2681,-2.2453,-2.2326,-2.2426,-2.2453,-2.2453,-2.2453,-2.2605,-2.2615,-2.2392,-2.2248,-2.2237,-2.2381,-2.2426,-2.2426,-2.2281,-2.2326,-2.2231,-2.1807,-2.1538,-2.1241,-2.0939,-2.0186,-1.9492,-1.8935,-1.8247,-1.7841,-1.7789,-1.748,-1.702,-1.6419,-1.4824,-1.3891,0.0,0.0,0.0,0.0,0.0,0.0,0.0,0.0,0.0,0.0,0.0,0.0,0.0,0.0,0.0,0.0,0.0,0.0,0.0,0.0,0.0,0.0,-1.959,-2.1104,-2.1027,-2.1796,-2.2513,-2.3017,-2.3241,-2.3371,-2.3458,-2.3977,-2.4482,-2.4832,-2.5224,-2.5799,-2.6557,-2.6609,-2.6816,-2.7282,-2.7592,-2.7971,-2.8403,-2.8713,-2.9075,-2.9506,-2.9834,-3.0006,-3.0006,-3.0006,-3.0006,-2.9972,-2.9644,-2.9506,-2.9472,-2.9041,-2.861,-2.8161,0.0,0.0,0.0,0.0,-2.6808,-2.6624,-2.6624,-2.6624,-2.6624,-2.6624,-2.6337,-2.6032,-2.6211,-2.5968,-2.5637,-2.5498,-2.5471,-2.5281,-2.4505,-2.4213,-2.395,-2.3323,-2.3052,-2.2956,-2.2754,-2.2712,-2.2712,-2.2712,-2.2712,0.0,-2.2446,-2.2419,-2.2419,-2.2436,-2.2588,-2.2659,-2.2463,-2.2561,-2.2508,-2.2124,-2.1866,-2.1628,-2.1507,-2.0749,0.0,0.0,0.0,-1.8618,-1.815,-1.8238,0.0,0.0,0.0,0.0,0.0,0.0,0.0,0.0,-1.5321,-1.5034,0.0,0.0,0.0,0.0,0.0,0.0,0.0,0.0,0.0,0.0,0.0,0.0,0.0,0.0,0.0,0.0,-2.1015,-2.2251,-2.2915,-2.309,-2.3142,-2.3135,-2.3694,-2.4137,-2.4197,-2.4763,-2.5431,-2.6147,-2.6226,-2.6557,-2.7247,-2.7299,0.0,0.0,0.0,-2.8472,-2.8661,-2.9317,-2.9679,-2.9782,-3.0472,-3.0817,-3.0817,-3.0817,-3.0817,-3.0765,-3.0075,-2.9765,-2.9748,-2.9679,-2.9592,-2.9368,-2.8058,-2.754,-2.754,-2.7437,-2.742,-2.7402,-2.7333,0.0,0.0,-2.7299,-2.7299,-2.7299,-2.7299,-2.7299,-2.7144,-2.6437,-2.6247,-2.6074,-2.5316,-2.4915,-2.4556,-2.4041,-2.3671,-2.3317,-2.2917,-2.2763,-2.2712,-2.2712,-2.2712,-2.2712,-2.2712,-2.2712,-2.2588,-2.2209,-2.2463,-2.2561,-2.2209,-2.248,-2.2561,-2.222,-2.2068,0.0,-2.1584,-2.0861,-2.0544,-2.0766,-1.9909,-1.917,-1.8559,-1.8858,-1.8858,-1.8526,-1.85,-1.8858,-1.9605,-1.9688,-1.9844,-1.9967,-1.7354,-1.6368,0.0,0.0,0.0,0.0,0.0,0.0,0.0,0.0,0.0,0.0,0.0,0.0,0.0,0.0,0.0,-2.0416,-2.1826,-2.2919,-2.306,-2.3638,-2.4016,-2.3903,-2.4077,-2.4365,-2.4871,-2.5553,-2.6009,-2.6092,-2.6713,-2.7144,-2.7282,-2.7299,-2.7558,-2.8161,-2.8334,-2.8989,-3.0231,-3.0386,-3.0765,-3.1351,-3.1507,0.0,-3.1576,-3.1576,-3.1576,-3.1576,-3.142,-3.1351,-3.13,-3.0713,-3.0093,-2.9472,-2.9196,-2.9075,-2.9006,-2.8403,-2.8178,-2.8092,-2.7506,-2.7299,-2.7299,-2.7299,-2.7299,-2.7299,-2.7299,-2.7299,0.0,-2.7109,-2.7057,-2.6885,-2.6092,-2.5824,-2.5635,-2.4925,-2.4224,-2.3698,-2.3615,-2.3116,-2.2712,-2.2712,-2.2712,-2.2712,-2.2712,-2.2712,-2.2685,-2.2588,-2.2642,-2.2685,-2.2588,-2.2552,-2.2398,-2.2068,-2.1911,-2.184,-2.1823,-2.1619,-2.142,-2.1211,-2.0945,-2.0757,-2.0632,-2.1248,-2.1282,-2.0632,-2.04,-2.0086,-1.9605,-2.03,-2.0517,-2.0217,-1.9295,-1.9346,0.0,0.0,0.0,0.0,0.0,0.0,0.0,0.0,0.0,0.0,0.0,-1.8568,-1.9398,0.0,-2.168,-2.286,-2.341,-2.3821,-2.4156,-2.4541,-2.4637,-2.4155,-2.4774,-2.5338,-2.5582,-2.629,-2.6757,-2.6695,-2.7075,-2.7299,-2.7299,-2.7644,-2.8023,-2.8385,-2.9144,-2.992,-3.0679,-3.1058,-3.1438,-3.18,-3.18,-3.18,-3.18,-3.18,-3.18,-3.18,-3.18,-3.18,-3.1765,-3.1386,-3.1007,-3.0644,-3.0644,-3.0179,-2.9472,-2.9092,-2.8954,-2.8903,-2.8523,-2.8403,-2.8334,-2.7971,-2.7851,-2.7782,-2.7402,-2.7299,-2.7299,-2.7299,-2.7299,-2.7195,-2.6799,-2.6695,-2.6506,-2.573,-2.5247,-2.4718,-2.396,-2.3495,-2.3133,-2.2754,-2.2712,-2.2712,-2.2712,-2.2712,-2.2712,-2.2712,-2.2712,-2.2712,-2.2712,-2.2632,-2.2552,-2.2381,-2.2243,-2.2203,-2.2203,-2.2106,-2.1984,-2.1824,-2.1779,-2.1752,-2.1752,-2.2107,-2.2141,-2.1752,-2.1625,-2.134,-2.0954,-2.1395,-2.1496,-2.1296,-2.1055,-2.1072,0.0,0.0,0.0,0.0,0.0,0.0,0.0,0.0,-1.8125,-1.8596,-1.9695,-2.0993,-2.2334,-2.2597,-2.321,-2.5103,-2.4892,-2.469,-2.5232,-2.5415,-2.5265,-2.4652,-2.5582,-2.6306,-2.6316,-2.6919,-2.7313,-2.7299,-2.742,-2.7506,-2.7506,-2.8213,-2.8696,-2.8834,-3.0041,-3.0765,-3.0903,-3.1489,-3.18,-3.18,-3.18,-3.18,-3.18,-3.18,-3.18,-3.18,-3.18,-3.18,-3.18,-3.18,-3.18,-3.18,-3.18,-3.1041,-2.9937,-2.9799,-2.973,-2.9713,-2.9558,-2.9506,-2.9403,-2.8816,-2.8523,-2.8282,-2.7678,-2.7402,-2.7299,-2.7299,-2.7299,-2.7299,-2.7299,-2.7299,-2.7144,-2.6488,-2.6212,-2.5764,-2.454,-2.4115,-2.3805,-2.3074,-2.2892,-2.2884,-2.2729,-2.2712,-2.2712,-2.2712,-2.2712,-2.2712,-2.2712,-2.2685,-2.2685,-2.2685,-2.2605,-2.2552,-2.2487,-2.2366,-2.231,-2.231,-2.231,-2.231,-2.231,-2.231,-2.231,-2.231,-2.231,-2.231,-2.231,-2.231,-2.231,-2.231,-2.231,-2.202,-1.5369,-1.5714,-1.6095,-1.7472,-1.7567,-1.8316,0.0,0.0,-2.2129,-2.399,-2.4567,-2.4796,-2.498,-2.5015,-2.5103,-2.5366,-2.5277,-2.5232,-2.5357,-2.5841,-2.6185,-2.6225,-2.6255,-2.6532,-2.7123,-2.731,-2.7345,-2.7282,-2.7902,-2.8282,-2.8282,-2.8989,-2.9696,-3.0403,-3.0593,-3.1007,-3.1662,-3.1765,-3.18,-3.18,-3.18,-3.18,-3.18,-3.18,-3.18,-3.18,-3.18,-3.18,-3.18,-3.18,-3.18,-3.18,-3.18,-3.1679,-3.1455,-3.08,-3.0558,-3.0455,-2.9748,-2.9506,-2.9489,-2.9403,-2.8937,-2.8385,-2.8299,-2.7816,-2.7299,-2.7299,-2.7299,-2.7299,-2.7299,-2.7299,-2.7282,-2.7178,-2.6626,-2.6057,-2.5885,-2.5333,-2.4643,-2.3822,-2.3667,-2.346,-2.2815,-2.2712,-2.2712,-2.2712,-2.2712,-2.2712,-2.2712,-2.2659,-2.2605,-2.2605,-2.2569,-2.2487,-2.2422,-2.2338,-2.231,-2.231,-2.231,-2.231,-2.231,-2.231,-2.231,-2.231,-2.231,-2.231,-2.231,-2.2366,-2.2366,-2.231,-2.2366,-2.2321,-1.8783,-1.8825,-1.8819,-2.0901,-2.1444,-2.198,-2.3812,-2.4059,-2.4165,-2.5055,-2.5265,-2.5432,-2.5988,-2.5717,-2.5672,-2.6527,-2.6328,-2.6205,-2.6586,-2.6859,-2.6877,-2.6382,-2.6688,-2.7057,-2.731,-2.7362,-2.733,-2.7299,-2.7971,-2.8403,-2.8403,-2.9541,-3.0351,-3.0679,-3.111,-3.1489,-3.18,-3.18,-3.18,-3.18,-3.18,-3.18,-3.18,-3.18,-3.18,-3.18,-3.18,-3.18,-3.18,-3.18,-3.18,-3.18,-3.18,-3.18,-3.1765,-3.1438,-3.1334,-3.1282,-3.0955,-3.0834,-3.0765,-3.0334,-2.9989,-2.9558,-2.8661,-2.8178,-2.7851,-2.742,-2.7299,-2.7299,-2.7299,-2.7299,-2.7299,-2.7299,-2.704,-2.6678,-2.6212,-2.5868,-2.5419,-2.466,-2.4505,-2.4419,-2.4091,-2.404,-2.404,-2.404,-2.3281,-2.2712,-2.2712,-2.2685,-2.2659,-2.2659,-2.2605,-2.2542,-2.246,-2.2432,-2.2377,-2.231,-2.2338,-2.2338,-2.231,-2.231,-2.231,-2.231,-2.231,-2.231,-2.231,-2.2338,-2.2558,-2.2936,-2.2965,-2.3202,-2.0804,-2.1078,-2.1442,-2.3509,-2.45,-2.498,-2.5063,-2.5403,-2.5715,-2.583,-2.5708,-2.5771,-2.6451,-2.5918,-2.5813,-2.7105,-2.6906,-2.6801,-2.7465,-2.7365,-2.7056,-2.6648,-2.6853,-2.7151,-2.739,-2.7362,-2.7385,-2.7592,-2.8282,-2.8799,-2.9023,-3.0282,-3.0989,-3.0989,-3.1524,-3.18,-3.18,-3.18,-3.18,-3.18,-3.18,-3.18,-3.18,-3.18,-3.18,-3.18,-3.18,-3.18,-3.18,-3.18,-3.18,-3.18,-3.18,-3.18,-3.18,-3.18,-3.18,-3.18,-3.18,-3.18,-3.1714,-3.1179,-3.0869,-3.0437,-2.911,-2.8558,-2.8247,-2.7506,-2.7299,-2.7299,-2.7299,-2.7299,-2.7299,-2.7299,-2.7299,-2.7144,-2.6557,-2.6437,-2.6212,-2.5454,-2.5316,-2.5247,-2.504,-2.5005,-2.5005,-2.5005,-2.4057,-2.3333,-2.3333,-2.3143,-2.2936,-2.2729,-2.2632,-2.2579,-2.2542,-2.2515,-2.246,-2.2366,-2.2405,-2.2405,-2.2338,-2.2338,-2.2395,-2.2598,-2.2615,-2.2699,-2.2919,-2.2919,-2.3173,-2.3697,-2.3697,-2.4086,-2.0569,-2.1834,-2.3539,-2.459,-2.5623,-2.6422,-2.6754,-2.6994,-2.7219,-2.7479,-2.7,-2.6549,-2.6527,-2.589,-2.5682,-2.6507,-2.6573,-2.6772,-2.7596,-2.6877,-2.6549,-2.7465,-2.6727,-2.6467,-2.7307,-2.7362,-2.7592,-2.8316,-2.9058,-2.9817,-3.0575,-3.1351,-3.1765,-3.1765,-3.1783,-3.18,-3.18,-3.18,-3.18,-3.18,-3.18,-3.18,-3.18,-3.18,-3.18,-3.18,-3.18,-3.18,-3.18,-3.18,-3.18,-3.18,-3.18,-3.18,-3.18,-3.18,-3.18,-3.18,-3.18,-3.18,-3.18,-3.1765,-3.1282,-3.0541,-2.973,-2.8972,-2.8247,-2.7506,-2.7299,-2.7299,-2.7299,-2.7299,-2.7299,-2.7299,-2.7299,-2.7282,-2.7264,-2.7247,-2.7023,-2.623,-2.6074,-2.585,-2.5126,-2.5005,-2.5005,-2.5005,-2.4971,-2.4936,-2.4936,-2.4264,-2.3478,-2.2798,-2.2632,-2.2605,-2.2596,-2.2542,-2.2515,-2.2487,-2.2487,-2.246,-2.2405,-2.2394,-2.2688,-2.3342,-2.3359,-2.3714,-2.4438,-2.4438,-2.4455,-2.4472,-2.4472,-2.4847,-2.3325,-2.4301,-2.5095,-2.6638,-2.7021,-2.7145,-2.7741,-2.7636,-2.7291,-2.6947,-2.658,-2.6202,-2.5799,-2.5495,-2.5537,-2.6237,-2.6463,-2.6761,-2.7348,-2.727,-2.7009,-2.6645,-2.6822,-2.6843,-2.6571,-2.6988,-2.7609,-2.8334,-2.9075,-2.9851,-3.0644,-3.1386,-3.18,-3.18,-3.18,-3.18,-3.18,-3.18,-3.18,-3.18,-3.18,-3.18,-3.18,-3.18,-3.18,-3.18,-3.18,-3.18,-3.18,-3.18,-3.18,-3.18,-3.18,-3.18,-3.18,-3.18,-3.18,-3.18,-3.18,-3.18,-3.18,-3.18,-3.1627,-3.1282,-3.0524,-2.9748,-2.8989,-2.823,-2.7678,-2.7299,-2.7299,-2.7299,-2.7299,-2.7299,-2.7299,-2.7299,-2.7299,-2.7299,-2.7213,-2.6954,-2.6902,-2.6816,-2.6575,-2.6523,-2.6492,-2.6427,-2.5536,-2.4947,-2.5005,-2.4648,-2.4333,-2.4179,-2.4144,-2.4087,-2.3996,-2.4099,-2.4133,-2.4047,-2.4076,-2.4076,-2.3989,-2.3989,-2.4108,-2.4317,-2.4334,-2.4407,-2.4567,-2.4567,-2.4791,-2.522,-2.522,-2.5625,-2.5338,-2.5986,-2.6257,-2.8122,-2.8217,-2.7979,-2.8345,-2.7851,-2.7145,-2.6615,-2.5743,-2.5025,-2.4916,-2.4226,-2.4147,-2.5651,-2.5806,-2.6103,-2.7217,-2.7191,-2.6961,-2.6619,-2.7051,-2.7258,-2.6954,-2.7627,-2.8282,-2.8765,-2.9506,-3.0265,-3.1041,-3.1541,-3.18,-3.18,-3.18,-3.18,-3.18,-3.18,-3.18,-3.18,-3.18,-3.18,-3.18,-3.18,-3.18,-3.18,-3.18,-3.18,-3.18,-3.18,-3.18,-3.18,-3.18,-3.18,-3.18,-3.18,-3.18,-3.18,-3.18,-3.18,-3.18,-3.18,-3.18,-3.1662,-3.0903,-3.0334,-2.9765,-2.9006,-2.8265,-2.7678,-2.7678,-2.7489,-2.7299,-2.7299,-2.7299,-2.7299,-2.7299,-2.7299,-2.7299,-2.7299,-2.7299,-2.7299,-2.7299,-2.7299,-2.7282,-2.7184,-2.6327,-2.5622,-2.5377,-2.5266,-2.5133,-2.4935,-2.4947,-2.4871,-2.4795,-2.4901,-2.4918,-2.4829,-2.4829,-2.4829,-2.4846,-2.4782,-2.4889,-2.5193,-2.5193,-2.5299,-2.5476,-2.5476,-2.57,-2.6112,-2.6112,-2.6334,-2.6488,-2.6856,-2.7163,-2.8936,-2.9134,-2.8797,-2.8492,-2.7635,-2.6774,-2.6381,-2.4567,-2.3203,-2.3833,-2.2216,-2.1727,-2.4698,-2.4663,-2.502,-2.7183,-2.6792,-2.6541,-2.7373,-2.7414,-2.7644,-2.8385,-2.9127,-2.9558,-2.9558,-3.0265,-3.1007,-3.1765,-3.18,-3.18,-3.18,-3.18,-3.18,-3.18,-3.18,-3.18,-3.18,-3.18,-3.18,-3.18,-3.18,-3.18,-3.18,-3.18,-3.18,-3.18,-3.18,-3.18,-3.18,-3.18,-3.18,-3.18,-3.18,-3.18,-3.18,-3.18,-3.18,-3.18,-3.18,-3.18,-3.1662,-3.0955,-3.0713,-3.0524,-2.9782,-2.9006,-2.8403,-2.8403,-2.7851,-2.7299,-2.7299,-2.7299,-2.7299,-2.7299,-2.7299,-2.7299,-2.7299,-2.7299,-2.7299,-2.7299,-2.7299,-2.7299,-2.7299,-2.7184,-2.6845,-2.6141,-2.61,-2.5872,-2.5195,-2.5126,-2.508,-2.5008,-2.5008,-2.5008,-2.5008,-2.4902,-2.4902,-2.5008,-2.4898,-2.521,-2.5945,-2.5962,-2.6322,-2.7007,-2.7007,-2.7007,-2.7007,-2.7007,-2.6959,-2.7343,-2.8233,-2.8746,-2.9023,-2.885,-2.8402,-2.7571,-2.6978,-2.6104,-2.434,-2.3422,-2.2474,-2.0958,-2.1197,-2.1976,-2.318,-2.4348,-2.5642,-2.7226,-2.7278,-2.7417,-2.8152,-2.8142,-2.842,-2.9161,-2.992,-3.0386,-3.0386,-3.0575,-3.1007,-3.1765,-3.18,-3.18,-3.18,-3.18,-3.18,-3.18,-3.18,-3.18,-3.18,-3.18,-3.18,-3.18,-3.18,-3.18,-3.18,-3.18,-3.18,-3.18,-3.18,-3.18,-3.18,-3.18,-3.18,-3.18,-3.18,-3.18,-3.18,-3.18,-3.18,-3.18,-3.18,-3.18,-3.1765,-3.1576,-3.1127,-3.0644,-3.0437,-2.942,-2.8403,-2.8403,-2.7851,-2.7299,-2.7299,-2.7299,-2.7299,-2.7299,-2.7299,-2.7299,-2.7299,-2.7299,-2.7299,-2.7299,-2.7299,-2.7299,-2.7299,-2.7282,-2.7181,-2.6992,-2.6862,-2.6727,-2.6585,-2.655,-2.6567,-2.6536,-2.6633,-2.6682,-2.6682,-2.665,-2.665,-2.6682,-2.6664,-2.6719,-2.6926,-2.6926,-2.698,-2.707,-2.707,-2.7055,-2.7007,-2.7007,-2.6975,-2.8329,-2.9035,-2.9347,-2.92,-2.8645,-2.7876,-2.6898,-2.5893,-2.4609,-2.2529,-2.1464,-2.054,-1.9276,-1.9765,-2.0784,-2.2096,-2.3755,-2.5335,-2.668,-2.7213,-2.7698,-2.8382,-2.8712,-2.9179,-2.9955,-3.0731,-3.1179,-3.1179,-3.1179,-3.1351,-3.1783,-3.18,-3.18,-3.18,-3.18,-3.18,-3.18,-3.18,-3.18,-3.18,-3.18,-3.18,-3.18,-3.18,-3.18,-3.18,-3.18,-3.18,-3.18,-3.18,-3.18,-3.18,-3.18,-3.18,-3.18,-3.18,-3.18,-3.18,-3.18,-3.18,-3.18,-3.18,-3.18,-3.18,-3.18,-3.1507,-3.1179,-3.1179,-3.0058,-2.8885,-2.8885,-2.8092,-2.7299,-2.7299,-2.7299,-2.7299,-2.7299,-2.7299,-2.7299,-2.7299,-2.7299,-2.7299,-2.7299,-2.7299,-2.7299,-2.7299,-2.7299,-2.7299,-2.7299,-2.7186,-2.7154,-2.7184,-2.7184,-2.7152,-2.7103,-2.7184,-2.7201,-2.7201,-2.7169,-2.7218,-2.7299,-2.7233,-2.7233,-2.7299,-2.7299,-2.725,-2.7184,-2.7184,-2.712,-2.7055,-2.7105,-2.7057,-2.9165,-2.9407,-2.9386,-2.9365,-2.851,-2.7391,-2.6254,-2.4617,-2.2794,-2.0886,-1.93,-1.8211,-1.8062,-1.8231,-1.9077,-2.115,-2.29,-2.4557,-2.6075,-2.6849,-2.7598,-2.8518,-2.9143,-2.9851,-3.0748,-3.142,-3.18,-3.18,-3.18,-3.18,-3.18,-3.18,-3.18,-3.18,-3.18,-3.18,-3.18,-3.18,-3.18,-3.18,-3.18,-3.18,-3.18,-3.18,-3.18,-3.18,-3.18,-3.18,-3.18,-3.18,-3.18,-3.18,-3.18,-3.18,-3.18,-3.18,-3.18,-3.18,-3.18,-3.1837,-3.1856,-3.18,-3.1819,-3.1856,-3.1856,-3.1856,-3.1856,-3.1856,-3.0714,-2.9506,-2.9506,-2.8403,-2.7299,-2.7299,-2.7299,-2.7299,-2.7299,-2.7299,-2.7299,-2.7299,-2.7299,-2.7299,-2.7299,-2.7299,-2.7299,-2.7299,-2.7299,-2.7299,-2.7299,-2.7299,-2.7299,-2.7299,-2.7299,-2.725,-2.7135,-2.7135,-2.7135,-2.7135,-2.7072,-2.7122,-2.7282,-2.7184,-2.7184,-2.7299,-2.7299,-2.7299,-2.7299,-2.7299,-2.7233,-2.7135,-2.725,-2.7171,-2.9165,-2.9407,-2.9365,-2.9134,-2.8382,-2.7222,-2.5378,-2.3674,0.0,-1.9406,-1.8148,-1.7095,-1.5767,-1.711,-1.8708,-1.9673,-2.1683,-2.3972,-2.6436,-2.6562,-2.727,-2.9624,-2.9671,-3.0058,-3.1472,-3.1714,-3.18,-3.18,-3.18,-3.18,-3.18,-3.18,-3.18,-3.18,-3.18,-3.18,-3.18,-3.18,-3.18,-3.18,-3.18,-3.18,-3.18,-3.18,-3.18,-3.18,-3.18,-3.18,-3.18,-3.18,-3.18,-3.18,-3.18,-3.18,-3.18,-3.18,-3.18,-3.18,-3.18,-3.1984,-3.2161,-3.1893,-3.2001,-3.2214,-3.2214,-3.2214,-3.2214,-3.2214,-3.0907,-2.9506,-2.9506,-2.8403,-2.7299,-2.7299,-2.7299,-2.7299,-2.7299,-2.7299,-2.7299,-2.7299,-2.7299,-2.7299,-2.7299,-2.7299,-2.7299,-2.7299,-2.7299,-2.7299,-2.7299,-2.7299,-2.7299,-2.7299,-2.7299,-2.7282,-2.7282,-2.7282,-2.7282,-2.7282,-2.725,-2.725,-2.7299,-2.7282,-2.7282,-2.7299,-2.7299,-2.7299,-2.7299,-2.7299,-2.7282,-2.7282,-2.7282,-2.7299,-2.9165,-2.9407,-2.9254,-2.8685,-2.7906,-2.6569,-2.3773,0.0,0.0,-1.7418,-1.6483,-1.5816,-1.4512,-1.5889,-1.7422,-1.8148,-2.0227,-2.2667,-2.5224,-2.5737,-2.6957,-2.9993,-3.0001,-3.0367,-3.1899,-3.1893,-3.18,-3.18,-3.18,-3.18,-3.18,-3.18,-3.18,-3.18,-3.18,-3.1893,-3.2055,-3.2055,-3.2055,-3.2055,-3.2055,-3.2055,-3.2055,-3.1893,-3.1893,-3.2055,-3.1856,-3.18,-3.18,-3.18,-3.18,-3.18,-3.18,-3.18,-3.1837,-3.2001,-3.2055,-3.2091,-3.2266,-3.2437,-3.2519,-3.2369,-3.2419,-3.2553,-3.2553,-3.2437,-3.2283,-3.2283,-3.1375,-3.028,-2.9863,-2.8955,-2.8058,-2.7789,-2.773,-2.773,-2.773,-2.773,-2.773,-2.773,-2.773,-2.7672,-2.7509,-2.7496,-2.7465,-2.7313,-2.7299,-2.7299,-2.7299,-2.7299,-2.7299,-2.7299,-2.7299,-2.7299,-2.7299,-2.7299,-2.7299,-2.7299,-2.7299,-2.7299,-2.7299,-2.7299,-2.7299,-2.7299,-2.7299,-2.7299,-2.7299,-2.7678,-2.7836,-2.782,-2.8265,-2.8421,-2.8942,-2.9258,-2.9202,-2.8329,-2.7511,-2.5987,-2.2515,-2.0974,0.0,-1.5895,-1.5059,-1.4695,-1.385,-1.4862,-1.6115,0.0,-1.8986,-2.1295,-2.3886,-2.4969,-2.6703,-2.9944,-3.0224,-3.0712,-3.2262,-3.2179,-3.202,-3.202,-3.202,-3.1984,-3.1893,-3.1893,-3.1929,-3.202,-3.202,-3.2144,-3.2403,-3.2403,-3.2403,-3.2403,-3.2403,-3.2403,-3.2403,-3.2144,-3.2144,-3.2369,-3.2109,-3.202,-3.202,-3.202,-3.202,-3.202,-3.202,-3.202,-3.2055,-3.2318,-3.2403,-3.2437,-3.2716,-3.2827,-3.289,-3.289,-3.289,-3.289,-3.289,-3.2716,-3.2504,-3.2504,-3.1923,-3.1167,-3.0518,-2.9669,-2.8824,-2.8225,-2.8102,-2.8102,-2.8102,-2.8102,-2.8102,-2.8102,-2.8102,-2.802,-2.7811,-2.7742,-2.763,-2.7421,-2.7345,-2.7299,-2.7299,-2.7299,-2.7351,-2.7523,-2.7385,-2.7299,-2.7299,-2.7299,-2.7299,-2.7299,-2.7299,-2.7368,-2.7523,-2.754,-2.7609,-2.7764,-2.7764,-2.7764,-2.7764,-2.8351,-2.8611,-2.8594,-2.9196,-2.9455,-2.8197,-2.8812,-2.9202,-2.8329,-2.7511,-2.6005,-2.2571,0.0,-1.8694,-1.5788,-1.463,-1.404,-1.3748,-1.4378,-1.5401,0.0,0.0,-2.0428,-2.3368,-2.4697,-2.6517,-2.9502,-3.0191,-3.1057,-3.262,-3.2749,-3.2699,-3.2699,-3.2699,-3.2586,-3.2283,-3.2249,-3.2403,-3.2699,-3.2699,-3.2731,-3.2731,-3.2731,-3.2731,-3.2731,-3.2731,-3.2731,-3.2731,-3.2731,-3.2731,-3.2731,-3.2731,-3.2699,-3.2699,-3.2699,-3.2699,-3.2699,-3.2699,-3.2699,-3.2699,-3.2731,-3.2731,-3.2763,-3.2795,-3.3001,-3.3243,-3.3243,-3.3243,-3.3243,-3.3243,-3.3214,-3.3232,-3.3232,-3.2475,-3.1653,-3.1564,-3.0392,-2.9084,-2.8281,-2.8102,-2.8102,-2.8102,-2.8102,-2.8102,-2.8102,-2.8102,-2.8102,-2.8075,-2.7869,-2.7701,-2.7672,-2.7452,-2.7299,-2.7299,-2.7299,-2.7558,-2.823,-2.7696,-2.7299,-2.7299,-2.7299,-2.7299,-2.7299,-2.7299,-2.7592,-2.8265,-2.8299,-2.861,-2.9282,-2.9299,-2.9299,-2.9299,-2.9368,-2.9403,-2.9403,-2.9472,-2.9506,-2.712,-2.7641,-2.7697,-2.686,-2.6414,-2.517,-2.1306,-1.9941,-1.8605,-1.5325,-1.437,-1.406,-1.3803,-1.3959,-1.4639,0.0,0.0,0.0,-2.158,-2.2799,-2.4775,-2.8681,-2.9521,-3.0653,-3.2895,-3.2921,-3.2795,-3.2795,-3.2795,-3.2844,-3.2908,-3.2716,-3.2651,-3.2795,-3.2795,-3.2908,-3.3093,-3.3093,-3.3093,-3.3093,-3.3093,-3.3093,-3.3093,-3.289,-3.289,-3.3093,-3.2908,-3.2795,-3.2795,-3.2795,-3.2795,-3.2795,-3.2795,-3.2795,-3.2827,-3.3032,-3.3093,-3.3124,-3.3332,-3.3494,-3.3597,-3.3597,-3.3597,-3.3597,-3.3597,-3.3465,-3.3291,-3.3291,-3.2997,-3.2547,-3.2079,-3.1265,-3.0422,-2.9954,-2.997,-3.0093,-3.0093,-3.0093,-3.0093,-3.0093,-3.0093,-2.9878,-2.9224,-2.9044,-2.8907,-2.8692,-2.8576,-2.8664,-2.9153,-2.9223,-2.9255,-2.935,-2.8516,-2.8144,-2.8592,-2.8627,-2.8627,-2.8627,-2.8627,-2.8765,-2.9058,-2.9058,-2.9213,-2.9506,-2.9506,-2.9506,-2.9506,-2.9989,-3.0213,-3.0231,-3.0679,-3.0886,-2.5819,-2.6544,-2.6693,-2.5876,-2.5486,-2.4298,-2.0393,-1.9351,-1.8286,-1.4983,-1.4252,-1.4123,-1.3845,-1.3746,-1.4205,0.0,0.0,-1.7329,-2.0509,-2.1741,-2.3709,-2.7423,-2.8326,-2.9699,-3.2397,-3.2913,-3.3105,-3.3105,-3.3105,-3.3214,-3.3437,-3.3214,-3.3105,-3.3105,-3.3105,-3.3214,-3.3437,-3.3437,-3.3437,-3.3437,-3.3437,-3.3437,-3.3437,-3.3196,-3.3214,-3.3437,-3.3214,-3.3105,-3.3105,-3.3105,-3.3105,-3.3105,-3.3105,-3.3105,-3.3105,-3.3379,-3.3437,-3.3494,-3.3707,-3.3807,-3.3807,-3.3807,-3.3807,-3.3807,-3.3807,-3.3652,-3.3437,-3.3437,-3.3437,-3.3255,-3.2456,-3.1999,-3.1646,-3.1235,-3.1258,-3.1384,-3.1384,-3.1384,-3.1384,-3.1384,-3.1384,-3.1151,-3.0407,-3.0212,-3.0062,-2.9835,-2.9722,-2.9844,-3.0427,-3.0498,-3.0499,-3.049,-2.9828,-2.9395,-2.9472,-2.9591,-2.9591,-2.9506,-2.9506,-2.961,-2.9851,-2.9851,-2.9955,-3.0179,-3.0179,-3.0179,-3.0179,-3.0748,-3.1024,-3.1024,-3.1558,-3.18,-2.4295,-2.5689,-2.6693,-2.582,-2.4986,-2.3541,-2.0255,-1.8883,-1.7557,-1.4855,-1.4252,-1.4123,-1.3845,-1.3746,-1.4253,-1.5921,0.0,0.0,-2.0708,-2.2251,-2.3784,-2.5689,-2.6652,-2.8172,-3.0857,-3.2738,-3.3788,-3.3788,-3.3788,-3.3788,-3.3788,-3.3788,-3.3788,-3.3788,-3.3788,-3.3788,-3.3788,-3.3788,-3.3788,-3.3788,-3.3788,-3.3788,-3.3788,-3.3788,-3.3788,-3.3788,-3.3788,-3.3788,-3.3788,-3.3788,-3.3788,-3.3788,-3.3788,-3.3788,-3.3788,-3.3788,-3.3788,-3.3807,-3.3807,-3.3807,-3.3807,-3.3807,-3.3807,-3.3807,-3.3807,-3.3807,-3.3788,-3.3788,-3.3788,-3.3623,-3.279,-3.2596,-3.2394,-3.1586,-3.1403,-3.1384,-3.1384,-3.1384,-3.1384,-3.1384,-3.1384,-3.1384,-3.1384,-3.1162,-3.1003,-3.0976,-3.07,-3.0481,-3.0498,-3.0498,-3.0802,-3.1594,-3.1666,-3.1066,-2.9626,-2.9807,-2.9872,-2.954,-2.9506,-2.9868,-3.0644,-3.0679,-3.1024,-3.1765,-3.1783,-3.1783,-3.1783,-3.1783,-3.1783,-3.1783,-3.18,-3.18,-2.1083,-2.1885,-2.2481,-2.1684,-2.126,-2.0485,-1.8291,-1.7638,-1.6904,-1.4854,-1.4264,-1.4114,-1.4023,-1.3806,-1.4376,-1.6642,-1.7002,0.0,0.0,-2.2159,-2.4003,-2.6419,-2.9652,-3.2009,-3.2857,-3.3468,-3.3807,-3.3807,-3.3807,-3.3807,-3.3807,-3.3807,-3.3807,-3.3807,-3.3807,-3.3807,-3.3807,-3.3807,-3.3807,-3.3807,-3.3807,-3.3807,-3.3807,-3.3807,-3.3807,-3.3807,-3.3807,-3.3807,-3.3807,-3.3807,-3.3807,-3.3807,-3.3807,-3.3807,-3.3807,-3.3807,-3.3807,-3.3807,-3.3807,-3.3807,-3.3807,-3.3807,-3.3807,-3.3807,-3.3807,-3.3807,-3.3807,-3.3807,-3.3807,-3.3733,-3.3495,-3.3421,-3.3366,-3.3091,-3.3036,-3.3036,-3.3036,-3.3036,-3.3036,-3.3036,-3.3036,-3.2871,-3.232,-3.2151,-3.208,-3.208,-3.2009,-3.2138,-3.2684,-3.2757,-3.2764,-3.2787,-3.2998,-3.2755,-3.1827,-3.1841,-3.1874,-3.1777,-3.1529,-3.1533,-3.1795,-3.1565,-3.1558,-3.18,-3.18,-3.18,-3.18,-3.18,-3.18,-3.18,-3.18,-3.18,0.0,-1.9439,-2.0166,-1.9685,-1.9253,-1.8619,-1.7278,-1.673,-1.6146,-1.4774,-1.4282,-1.4096,-1.4096,-1.3836,-1.4325,-1.6589,-1.6741,-1.7607,-2.0509,-2.1935,-2.3773,-2.6742,-3.0448,-3.2775,-3.2775,-3.3386,-3.3807,-3.3807,-3.3807,-3.3807,-3.3807,-3.3807,-3.3807,-3.3807,-3.3807,-3.3807,-3.3807,-3.3807,-3.3807,-3.3807,-3.3807,-3.3807,-3.3807,-3.3807,-3.3807,-3.3807,-3.3807,-3.3807,0.0,-3.3807,-3.3807,-3.3807,-3.3807,-3.3807,-3.3807,-3.3807,-3.3807,-3.3807,-3.3807,-3.3807,-3.3807,-3.3807,-3.3807,-3.3807,-3.3807,-3.3807,-3.3807,-3.3807,-3.3807,-3.3807,-3.3807,-3.3807,-3.3807,-3.3807,-3.3807,-3.3807,-3.3807,-3.3807,-3.3807,-3.3807,-3.3807,-3.3642,-3.3146,-3.3054,-3.3054,-3.3054,-3.3054,-3.3238,-3.3733,-3.3807,-3.3707,-3.3494,-3.368,-3.3634,-3.3196,-3.3045,-3.2921,-3.2795,-3.2619,-3.2437,-3.2318,-3.2091,-3.1929,-3.18,-3.18,-3.18,-3.18,-3.18,-3.18,-3.18,-3.18,-3.18,0.0,-1.7875,-1.9124,-1.8998,-1.8319,-1.7477,-1.6785,-1.6013,0.0,-1.4611,-1.4282,-1.4119,-1.4238,-1.3941,-1.4291,-1.615,-1.6289,-1.7335,-2.071,-2.1945,-2.3703,-2.7018,-2.9709,-3.1274,-3.1274,-3.282,-3.3807,-3.3807,-3.3807,-3.3807,-3.3807,-3.3807,-3.3807,-3.3807,-3.3807,-3.3807,-3.3807,-3.3807,-3.3807,-3.3807,-3.3807,-3.3807,-3.3807,-3.3807,-3.3807,-3.3807,-3.3807,-3.3807,-3.3807,-3.3807,-3.3807,-3.3807,-3.3807,-3.3807,-3.3807,-3.3807,-3.3807,-3.3807,-3.3807,-3.3807,-3.3807,-3.3807,-3.3807,-3.3807,-3.3807,-3.3807,-3.3807,-3.3807,-3.3807,-3.3807,-3.3807,-3.3807,-3.3807,-3.3807,-3.3807,-3.3807,-3.3807,-3.3807,-3.3807,-3.3807,-3.3807,-3.3807,-3.3807,-3.3807,-3.3807,-3.3807,-3.3807,-3.3807,-3.3807,-3.3807,-3.3807,-3.3807,-3.3807,-3.3807,-3.3807,-3.3522,-3.3184,-3.289,-3.2858,-3.2684,-3.2352,-3.2318,-3.2161,-3.18,-3.18,-3.18,-3.18,-3.18,-3.18,-3.18,-3.18,-3.18,-1.2142,0.0,-1.4677,-1.3952,-1.3596,-1.3516,0.0,-1.3829,-1.3876,-1.4265,0.0,-1.4438,-1.5569,-1.51,-1.5471,-1.8401,-1.8838,-1.955,-2.1714,-2.4918,-2.787,-3.0111,-3.2033,-3.3158,-3.3158,-3.356,-3.3807,-3.3807,-3.3807,-3.3807,-3.3807,-3.3807,-3.3807,-3.3807,-3.3807,-3.3807,-3.3807,-3.3807,-3.3807,-3.3807,-3.3807,-3.3807,-3.3807,-3.3807,-3.3807,-3.3807,-3.3807,-3.3807,-3.3807,-3.3807,-3.3807,-3.3807,-3.3807,-3.3807,-3.3807,-3.3807,-3.3807,-3.3807,-3.3807,-3.3807,-3.3807,-3.3807,-3.3807,-3.3807,-3.3807,-3.3807,-3.3807,-3.3807,-3.3807,-3.3807,-3.3807,-3.3807,-3.3807,-3.3807,-3.3807,-3.3807,-3.3807,-3.3807,-3.3807,-3.3807,-3.3807,-3.3807,-3.3807,-3.3807,-3.3807,-3.3807,-3.3807,-3.3807,-3.3807,-3.3807,-3.3807,-3.3807,-3.3807,-3.3807,-3.3807,-3.3734,-3.3652,-3.3578,-3.3302,-3.3032,-3.2716,-3.2437,-3.2161,-3.18,-3.18,-3.18,-3.18,-3.18,-3.18,-3.18,-3.18,-3.18,-1.0229,-1.204,-1.3813,-1.3212,-1.332,-1.3642,-1.3948,0.0,0.0,0.0,0.0,-1.4456,-1.5587,-1.562,-1.6291,-1.8737,-1.9544,-2.0675,-2.3021,-2.6559,-2.9502,-3.1016,-3.2611,-3.3625,-3.3807,-3.3807,-3.3807,-3.3807,-3.3807,-3.3807,-3.3807,-3.3807,-3.3807,-3.3807,-3.3807,-3.3807,-3.3807,-3.3807,-3.3807,-3.3807,-3.3807,-3.3807,-3.3807,-3.3807,-3.3807,-3.3807,-3.3807,-3.3807,-3.3807,-3.3807,-3.3807,-3.3807,-3.3807,-3.3807,-3.3807,-3.3807,-3.3807,-3.3807,-3.3807,-3.3807,-3.3807,-3.3807,-3.3807,-3.3807,-3.3807,-3.3807,-3.3807,-3.3807,-3.3807,-3.3807,-3.3807,-3.3807,-3.3807,-3.3807,-3.3807,-3.3807,-3.3807,-3.3807,-3.3807,-3.3807,-3.3807,-3.3807,-3.3807,-3.3807,-3.3807,-3.3807,-3.3807,-3.3807,-3.3807,-3.3807,-3.3807,-3.3807,-3.3807,-3.3807,-3.3807,-3.3807,-3.3807,-3.3807,-3.3625,-3.3379,-3.3045,-3.2716,-3.23,-3.18,-3.18,-3.18,-3.18,-3.18,-3.18,-3.18,-3.18,-3.18,-0.9825,-1.2176,-1.4456,-1.386,-1.4463,-1.5164,-1.5015,0.0,0.0,0.0,0.0,0.0,0.0,-1.6318,-1.7188,-1.8915,-2.0052,-2.1783,-2.4836,-2.7681,-2.988,-3.1102,-3.2518,-3.3494,-3.3762,-3.3807,-3.3807,-3.3807,-3.3807,-3.3807,-3.3807,-3.3807,-3.3807,-3.3807,-3.3807,-3.3807,-3.3807,-3.3807,-3.3807,-3.3807,-3.3807,-3.3807,-3.3807,-3.3807,-3.3807,-3.3807,-3.3807,-3.3807,-3.3807,-3.3807,-3.3807,-3.3807,-3.3807,-3.3807,-3.3807,-3.3807,-3.3807,-3.3807,-3.3807,-3.3807,-3.3807,-3.3807,-3.3807,-3.3807,-3.3807,-3.3807,-3.3807,-3.3807,-3.3807,-3.3807,-3.3807,-3.3807,-3.3807,-3.3807,-3.3807,-3.3807,-3.3807,-3.3807,-3.3807,-3.3807,-3.3807,-3.3807,-3.3807,-3.3807,-3.3807,-3.3807,-3.3807,-3.3807,-3.3807,-3.3807,-3.3807,-3.3807,-3.3807,-3.3807,-3.3807,-3.3807,-3.3807,-3.3807,-3.3807,-3.3625,-3.3243,-3.2908,-3.2419,-3.18,-3.18,-3.18,-3.18,-3.18,-3.18,-3.18,-3.18,-3.18,-1.1181,-1.2993,-1.3956,-1.1657,-1.2698,-1.427,-1.4126,0.0,0.0,0.0,0.0,0.0,0.0,-1.8623,-1.9092,-2.1926,-2.3271,-2.5013,-2.7903,-2.9338,-3.0643,-3.2169,-3.314,-3.3734,-3.3807,-3.3807,-3.3807,-3.3807,-3.3807,-3.3807,-3.3807,-3.3807,-3.3807,-3.3807,-3.3807,-3.3807,-3.3807,-3.3807,-3.3807,-3.3807,-3.3807,-3.3807,-3.3807,-3.3807,-3.3807,-3.3807,-3.3807,-3.3807,-3.3807,-3.3807,-3.3807,-3.3807,-3.3807,-3.3807,-3.3807,-3.3807,-3.3807,-3.3807,-3.3807,-3.3807,-3.3807,-3.3807,-3.3807,-3.3807,-3.3807,-3.3807,-3.3807,-3.3807,-3.3807,-3.3807,-3.3807,-3.3807,-3.3807,-3.3807,-3.3807,-3.3807,-3.3807,-3.3807,-3.3807,-3.3807,-3.3807,-3.3807,-3.3807,-3.3807,-3.3807,-3.3807,-3.3807,-3.3807,-3.3807,-3.3807,-3.3807,-3.3807,-3.3807,-3.3807,-3.3807,-3.3807,-3.3807,-3.3807,-3.3807,-3.3522,-3.289,-3.2553,-3.2179,-3.18,-3.18,-3.18,-3.18,-3.18,-3.18,-3.18,-3.18,-3.18,-1.0297,-1.2032,-1.3311,-1.1966,-1.423,-1.6766,-1.6594,0.0,0.0,0.0,0.0,0.0,0.0,0.0,-2.0932,-2.3884,-2.536,-2.6766,-2.8543,-2.9696,-3.0867,-3.2211,-3.3049,-3.3597,-3.3762,-3.3807,-3.3807,-3.3807,-3.3807,-3.3807,-3.3807,-3.3807,-3.3807,-3.3807,-3.3807,-3.3807,-3.3807,-3.3807,-3.3807,-3.3807,-3.3807,-3.3807,-3.3807,-3.3807,-3.3807,-3.3807,-3.3807,-3.3807,-3.3807,-3.3807,-3.3807,-3.3807,-3.3807,-3.3807,-3.3807,-3.3807,-3.3807,-3.3807,-3.3807,-3.3807,-3.3807,-3.3807,-3.3807,-3.3807,-3.3807,-3.3807,-3.3807,-3.3807,-3.3807,-3.3807,-3.3807,-3.3807,-3.3807,-3.3807,-3.3807,-3.3807,-3.3807,-3.3807,-3.3807,-3.3807,-3.3807,-3.3807,-3.3807,-3.3807,-3.3807,-3.3807,-3.3807,-3.3807,-3.3807,-3.3807,-3.3807,-3.3807,-3.3807,-3.3807,-3.3807,-3.3807,-3.3807,-3.3807,-3.3625,-3.3302,-3.2827,-3.247,-3.2161,-3.18,-3.18,-3.18,-3.18,-3.18,-3.18,-3.18,-3.18,-3.18,-0.9761,-1.135,-1.2959,-1.3182,0.0,-1.8529,-1.8735,0.0,0.0,0.0,0.0,0.0,0.0,-2.1575,-2.2998,-2.5223,-2.6754,-2.7985,-2.8857,-2.9999,-3.1099,-3.2183,-3.2964,-3.3522,-3.378,-3.3807,-3.3807,-3.3807,-3.3807,-3.3807,-3.3807,-3.3807,-3.3807,-3.3807,-3.3807,-3.3807,-3.3807,-3.3807,-3.3807,-3.3807,-3.3807,-3.3807,-3.3807,-3.3807,-3.3807,-3.3807,-3.3807,-3.3807,-3.3807,-3.3807,-3.3807,-3.3807,-3.3807,-3.3807,-3.3807,-3.3807,-3.3807,-3.3807,-3.3807,-3.3807,-3.3807,-3.3807,-3.3807,-3.3807,-3.3807,-3.3807,-3.3807,-3.3807,-3.3807,-3.3807,-3.3807,-3.3807,-3.3807,-3.3807,-3.3807,-3.3807,-3.3807,-3.3807,-3.3807,-3.3807,-3.3807,-3.3807,-3.3807,-3.3807,-3.3807,-3.3807,-3.3807,-3.3807,-3.3807,-3.3807,-3.3807,-3.3807,-3.3807,-3.3807,-3.3807,-3.3807,-3.378,-3.368,-3.3437,-3.3154,-3.2795,-3.247,-3.2161,-3.18,-3.18,-3.18,-3.18,-3.18,-3.18,-3.18,-3.18,-3.18,-1.1115,-1.2192,-1.3265,-1.4737,-1.5869,0.0,-1.8449,-1.9524,0.0,-2.2114,0.0,0.0,0.0,-2.445,-2.5613,-2.6059,-2.7477,-2.8876,-2.996,-3.0803,-3.1627,-3.2452,-3.3285,-3.3762,-3.3807,-3.3807,-3.3807,-3.3807,-3.3807,-3.3807,-3.3807,-3.3807,-3.3807,-3.3807,-3.3807,-3.3807,-3.3807,-3.3807,-3.3807,-3.3807,-3.3807,-3.3807,-3.3807,-3.3807,-3.3807,-3.3807,-3.3807,-3.3807,-3.3807,-3.3807,-3.3807,-3.3807,-3.3807,-3.3807,-3.3807,-3.3807,-3.3807,-3.3807,-3.3807,-3.3807,-3.3807,-3.3807,-3.3807,-3.3807,-3.3807,-3.3807,-3.3807,-3.3807,-3.3807,-3.3807,-3.3807,-3.3807,-3.3807,-3.3807,-3.3807,-3.3807,-3.3807,-3.3807,-3.3807,-3.3807,-3.3807,-3.3807,-3.3807,-3.3807,-3.3807,-3.3807,-3.3807,-3.3807,-3.3807,-3.3807,-3.3807,-3.3807,-3.3807,-3.3807,-3.3807,-3.3807,-3.368,-3.335,-3.3321,-3.3154,-3.2795,-3.247,-3.2161,-3.18,-3.18,-3.18,-3.18,-3.18,-3.18,-3.18,-3.18,-3.18,-0.9921,-1.18,-1.3689,-1.4126,0.0,0.0,0.0,-2.1188,-2.2799,-2.3696,-2.4396,0.0,0.0,-2.5842,-2.6923,-2.652,-2.7798,-2.9156,-3.0057,-3.0889,-3.1696,-3.2504,-3.3311,-3.3807,-3.3807,-3.3807,-3.3807,-3.3807,-3.3807,-3.3807,-3.3807,-3.3807,-3.3807,-3.3807,-3.3807,-3.3807,-3.3807,-3.3807,-3.3807,-3.3807,-3.3807,-3.3807,-3.3807,-3.3807,-3.3807,-3.3807,-3.3807,-3.3807,-3.3807,-3.3807,-3.3807,-3.3807,-3.3807,-3.3807,-3.3807,-3.3807,-3.3807,-3.3807,-3.3807,-3.3807,-3.3807,-3.3807,-3.3807,-3.3807,-3.3807,-3.3807,-3.3807,-3.3807,-3.3807,-3.3807,-3.3807,-3.3807,-3.3807,-3.3807,-3.3807,-3.3807,-3.3807,-3.3807,-3.3807,-3.3807,-3.3807,-3.3807,-3.3807,-3.3807,-3.3807,-3.3807,-3.3807,-3.3807,-3.3807,-3.3807,-3.3807,-3.3807,-3.3807,-3.3807,-3.3807,-3.3807,-3.3652,-3.3262,-3.3063,-3.2844,-3.2486,-3.2179,-3.1929,-3.18,-3.18,-3.18,-3.18,-3.18,-3.18,-3.18,-3.18,-3.18,-0.9512,-1.1505,-1.3687,0.0,0.0,0.0,-2.0353,-2.2408,-2.4224,-2.5064,-2.569,-2.5958,-2.5461,-2.6368,-2.7114,-2.6889,-2.8072,-2.92,-2.9751,-3.0503,-3.1219,-3.1788,-3.2779,-3.3421,-3.3421,-3.3642,-3.3807,-3.3807,-3.3807,-3.3807,-3.3807,-3.3807,-3.3807,-3.3807,-3.3807,-3.3807,-3.3807,-3.3807,-3.3807,-3.3807,-3.3807,-3.3807,-3.3807,-3.3807,-3.3807,-3.3807,-3.3807,-3.3807,-3.3807,-3.3807,-3.3807,-3.3807,-3.3807,-3.3807,-3.3807,-3.3807,-3.3807,-3.3807,-3.3807,-3.3807,-3.3807,-3.3807,-3.3807,-3.3807,-3.3807,-3.3807,-3.3807,-3.3807,-3.3807,-3.3807,-3.3807,-3.3807,-3.3807,-3.3807,-3.3807,-3.3807,-3.3807,-3.3807,-3.3807,-3.3807,-3.3807,-3.3807,-3.3807,-3.3807,-3.3807,-3.3807,-3.3807,-3.3807,-3.3807,-3.3807,-3.3807,-3.3807,-3.3807,-3.3807,-3.3807,-3.3807,-3.368,-3.3426,-3.2939,-3.2586,-3.2318,-3.2001,-3.18,-3.18,-3.18,-3.18,-3.18,-3.18,-3.18,-3.18,-3.18,-3.18,-1.0405,-1.1529,0.0,0.0,0.0,0.0,-2.088,-2.2904,-2.4667,-2.63,-2.6263,-2.5985,-2.6186,-2.6063,-2.6242,-2.7242,-2.831,-2.8994,-2.8994,-2.9696,-3.021,-3.021,-3.1623,-3.2596,-3.2596,-3.3311,-3.377,-3.377,-3.377,-3.377,-3.377,-3.377,-3.3788,-3.3788,-3.3807,-3.3807,-3.3807,-3.3807,-3.3807,-3.3807,-3.3807,-3.3807,-3.3807,-3.3807,-3.3807,-3.3807,-3.3807,-3.3807,-3.3807,-3.3807,-3.3807,-3.3807,-3.3807,-3.3807,-3.3807,-3.3807,-3.3807,-3.3807,-3.3807,-3.3807,-3.3807,-3.3807,-3.3807,-3.3807,-3.3807,-3.3807,-3.3807,-3.3807,-3.3807,-3.3807,-3.3807,-3.3807,-3.3807,-3.3807,-3.3807,-3.3807,-3.3807,-3.3807,-3.3807,-3.3807,-3.3807,-3.3807,-3.3807,-3.3807,-3.3807,-3.3807,-3.3807,-3.3807,-3.3807,-3.3807,-3.3807,-3.3807,-3.3807,-3.3807,-3.3807,-3.3807,-3.3762,-3.3762,-3.2988,-3.242,-3.2283,-3.2001,-3.18,-3.18,-3.18,-3.18,-3.18,-3.18,-3.18,-3.18,-3.18,-3.18,-1.0256,-1.2373,0.0,-1.5778,0.0,0.0,0.0,-2.3446,0.0,0.0,-2.7912,-2.7707,-2.7378,-2.7743,-2.7994,-2.7734,-2.8421,-2.8994,-2.8994,-2.9696,-3.021,-3.021,-3.1109,-3.1751,-3.1751,-3.1971,-3.21,-3.21,-3.21,-3.21,-3.21,-3.2651,-3.2963,-3.2963,-3.3495,-3.3807,-3.3807,-3.3807,-3.3807,-3.3807,-3.3807,-3.3807,-3.3807,-3.3807,-3.3807,-3.3807,-3.3807,-3.3807,-3.3807,-3.3807,-3.3807,-3.3807,-3.3807,-3.3807,-3.3807,-3.3807,-3.3807,-3.3807,-3.3807,-3.3807,-3.3807,-3.3807,-3.3807,-3.3807,-3.3807,-3.3807,-3.3807,-3.3807,-3.3807,-3.3807,-3.3807,-3.3807,-3.3807,-3.3807,-3.3807,-3.3807,-3.3807,-3.3807,-3.3807,-3.3807,-3.3807,-3.3807,-3.3807,-3.3807,-3.3807,-3.3807,-3.3807,-3.3807,-3.3807,-3.3807,-3.3807,-3.3807,-3.3807,-3.3807,-3.3807,-3.2921,-3.2385,-3.2385,-3.2144,-3.2001,-3.1965,-3.1856,-3.18,-3.18,-3.18,-3.18,-3.18,-3.18,-3.18,-3.18,-3.18,-3.2076,-1.1683,-1.3775,0.0,-1.7599,-2.0137,-2.2588,-2.3819,0.0,0.0,0.0,-2.8421,-2.8149,-2.8256,-2.8324,-2.8356,-2.8278,-2.8686,-2.8994,-2.8994,-2.9439,-2.9732,-2.9732,-3.043,-3.0907,-3.0907,-3.1201,-3.1384,-3.1384,-3.1384,-3.1384,-3.1384,-3.1861,-3.2284,-3.2596,-3.3073,-3.3476,-3.3807,-3.3807,-3.3807,-3.3807,-3.3807,-3.3807,-3.3807,-3.3807,-3.3807,-3.3807,-3.3807,-3.3807,-3.3807,-3.3807,-3.3807,-3.3807,-3.3807,-3.3807,-3.3807,-3.3807,-3.3807,-3.3807,-3.3807,-3.3807,-3.3807,-3.3807,-3.3807,-3.3807,-3.3807,-3.3807,-3.3807,-3.3807,-3.3807,-3.3807,-3.3807,-3.3807,-3.3807,-3.3807,-3.3807,-3.3807,-3.3807,-3.3807,-3.3807,-3.3807,-3.3807,-3.3807,-3.3807,-3.3807,-3.3807,-3.3807,-3.3807,-3.3807,-3.3807,-3.3807,-3.3807,-3.3807,-3.3807,-3.3807,-3.3807,-3.2586,-3.18,-3.18,-3.18,-3.18,-3.18,-3.18,-3.18,-3.18,-3.18,-3.18,-3.18,-3.18,-3.18,-3.18,-3.2093,-3.2472,-1.3793,0.0,0.0,-1.9782,-2.0971,0.0,-2.5421,-2.6312,-2.6958,-2.8622,-2.8213,-2.7833,-2.8824,-2.8195,-2.7851,-2.8842,-2.8994,-2.8994,-2.8994,-2.8994,-2.8994,-2.8994,-2.9659,-3.0099,-3.0099,-3.0742,-3.1182,-3.1182,-3.1182,-3.1182,-3.1182,-3.1237,-3.1623,-3.2375,-3.2467,-3.2889,-3.3678,-3.3697,-3.3733,-3.3807,-3.3807,-3.3807,-3.3807,-3.3807,-3.3807,-3.3807,-3.3807,-3.3807,-3.3807,-3.3807,-3.3807,-3.3807,-3.3807,-3.3807,-3.3807,-3.3807,-3.3807,-3.3807,-3.3807,-3.3807,-3.3807,-3.3807,-3.3807,-3.3807,-3.3807,-3.3807,-3.3807,-3.3807,-3.3807,-3.3807,-3.3807,-3.3807,-3.3807,-3.3807,-3.3807,-3.3807,-3.3807,-3.3807,-3.3807,-3.3807,-3.3807,-3.3807,-3.3807,-3.3807,-3.3807,-3.3807,-3.3807,-3.3807,-3.3807,-3.3807,-3.3807,-3.3807,-3.3807,-3.3807,-3.3807,-3.2586,-3.18,-3.18,-3.18,-3.18,-3.18,-3.18,-3.18,-3.18,-3.18,-3.18,-3.18,-3.18,-3.1834,-3.1921,-3.2593,-3.299,-1.2862,-1.4741,0.0,0.0,-2.1972,-2.3909,-2.5246,-2.5619,-2.624,-2.8264,-2.8688,-2.8727,-2.8957,-2.8805,-2.8727,-2.8957,-2.8994,-2.8994,-2.8994,-2.8994,-2.8994,-2.8994,-2.914,-2.925,-2.925,-2.942,-2.9531,-2.9531,-2.9531,-2.9531,-2.9531,-3.0118,-3.054,-3.0705,-3.1329,-3.2045,-3.2852,-3.2871,-3.3183,-3.3807,-3.3807,-3.3807,-3.3807,-3.3807,-3.3807,-3.3807,-3.3807,-3.3807,-3.3807,-3.3807,-3.3807,-3.3807,-3.3807,-3.3807,-3.3807,-3.3807,-3.3807,-3.3807,-3.3807,-3.3807,-3.3807,-3.3807,-3.3807,-3.3807,-3.3807,-3.3807,-3.3807,-3.3807,-3.3807,-3.3807,-3.3807,-3.3807,-3.3807,-3.3807,-3.3807,-3.3807,-3.3807,-3.3807,-3.3807,-3.3807,-3.3807,-3.3807,-3.3807,-3.3807,-3.3807,-3.3807,-3.3807,-3.3807,-3.3807,-3.3807,-3.3807,-3.3807,-3.3807,-3.3807,-3.3807,-3.2586,-3.18,-3.18,-3.18,-3.18,-3.18,-3.18,-3.18,-3.18,-3.18,-3.18,-3.18,-3.18,-3.2093,-3.2662,-3.2835,-3.3559,-1.3454,0.0,0.0,-2.0424,0.0,-2.441,-2.5219,-2.5403,-2.5839,-2.7337,-2.8064,-2.8539,-2.892,-2.8994,-2.8994,-2.8994,-2.8994,-2.8994,-2.8994,-2.8994,-2.8994,-2.8994,-2.8994,-2.8994,-2.8994,-2.8994,-2.8994,-2.8994,-2.8994,-2.8994,-2.8994,-2.9402,-2.9806,-3.0191,-3.0613,-3.1201,-3.2027,-3.2412,-3.2816,-3.3238,-3.3623,-3.3807,-3.3807,-3.3807,-3.3807,-3.3807,-3.3807,-3.3807,-3.3807,-3.3807,-3.3807,-3.3807,-3.3807,-3.3807,-3.3807,-3.3807,-3.3807,-3.3807,-3.3807,-3.3807,-3.3807,-3.3807,-3.3807,-3.3807,-3.3807,-3.3807,-3.3807,-3.3807,-3.3807,-3.3807,-3.3807,-3.3807,-3.3807,-3.3807,-3.3807,-3.3807,-3.3807,-3.3807,-3.3807,-3.3807,-3.3807,-3.3807,-3.3807,-3.3807,-3.3807,-3.3807,-3.3807,-3.3807,-3.3807,-3.3807,-3.3807,-3.3807,-3.3807,-3.355,-3.289,-3.2197,-3.18,-3.18,-3.18,-3.18,-3.18,-3.18,-3.18,-3.18,-3.18,-3.18,-3.18,-3.2283,-3.2645,-3.2921,-3.3662,-3.4231,-1.3846,0.0,-1.7365,-2.1304,-2.3166,0.0,-2.5017,-2.5201,-2.5419,-2.6227,-2.7034,-2.7805,-2.8466,-2.8705,-2.8796,-2.8796,-2.8902,-2.8994,-2.8994,-2.8994,-2.8994,-2.8994,-2.8994,-2.8994,-2.8994,-2.8994,-2.8994,-2.8994,-2.8994,-2.8994,-2.8994,-2.8994,-2.9329,-2.9971,-2.9989,-3.0375,-3.1182,-3.199,-3.2467,-3.2614,-3.3421,-3.3807,-3.3807,-3.3807,-3.3807,-3.3807,-3.3807,-3.3807,-3.3807,-3.3807,-3.3807,-3.3807,-3.3807,-3.3807,-3.3807,-3.3807,-3.3807,-3.3807,-3.3807,-3.3807,-3.3807,-3.3807,-3.3807,-3.3807,-3.3807,-3.3807,-3.3807,-3.3807,-3.3807,-3.3807,-3.3807,-3.3807,-3.3807,-3.3807,-3.3807,-3.3807,-3.3807,-3.3807,-3.3807,-3.3807,-3.3807,-3.3807,-3.3807,-3.3807,-3.3807,-3.3807,-3.3807,-3.3807,-3.3807,-3.3807,-3.3807,-3.3807,-3.3578,-3.3014,-3.1893,-3.18,-3.18,-3.18,-3.18,-3.18,-3.18,-3.18,-3.18,-3.18,-3.18,-3.18,-3.18,-3.2645,-3.3024,-3.3007,-3.4369,-3.4749,0.0,0.0,-1.8473,0.0,-2.2729,-2.3382,0.0,0.0,-2.4575,-2.5383,-2.619,-2.6796,-2.6906,-2.7493,-2.7952,-2.7952,-2.8558,-2.8994,-2.8994,-2.8994,-2.8994,-2.8994,-2.8994,-2.8994,-2.8994,-2.8994,-2.8994,-2.8994,-2.8994,-2.8994,-2.8994,-2.8994,-2.9049,-2.914,-2.914,-2.9549,-3.0356,-3.1164,-3.1916,-3.2614,-3.3421,-3.3807,-3.3807,-3.3807,-3.3807,-3.3807,-3.3807,-3.3807,-3.3807,-3.3807,-3.3807,-3.3807,-3.3807,-3.3807,-3.3807,-3.3807,-3.3807,-3.3807,-3.3807,-3.3807,-3.3807,-3.3807,-3.3807,-3.3807,-3.3807,-3.3807,-3.3807,-3.3807,-3.3807,-3.3807,-3.3807,-3.3807,-3.3807,-3.3807,-3.3807,-3.3807,-3.3807,-3.3807,-3.3807,-3.3807,-3.3807,-3.3807,-3.3807,-3.3807,-3.3807,-3.3807,-3.3807,-3.3807,-3.3807,-3.3807,-3.3807,-3.3807,-3.2763,-3.1984,-3.1837,-3.18,-3.18,-3.18,-3.18,-3.18,-3.18,-3.18,-3.18,-3.18,-3.18,-3.18,-3.18,-3.1921,-3.2421,-3.3266,-3.3921,-3.4525,-1.1947,-1.5208,-1.8351,0.0,-2.2004,-2.3107,-2.3456,-2.3878,-2.43,-2.4649,-2.5016,-2.5529,-2.6429,-2.6888,-2.7273,-2.7732,-2.8099,-2.8503,-2.892,-2.8994,-2.8994,-2.8994,-2.8994,-2.8994,-2.8994,-2.8994,-2.8994,-2.8994,-2.8994,-2.8994,-2.8994,-2.8994,-2.8994,-2.8994,-2.8994,-2.9159,-2.9531,-3.0338,-3.1127,-3.1935,-3.2284,-3.2449,-3.2449,-3.2449,-3.2944,-3.3807,-3.3807,-3.3807,-3.3807,-3.3807,-3.3807,-3.3807,-3.3807,-3.3807,-3.3807,-3.3807,-3.3807,-3.3807,-3.3807,-3.3807,-3.3807,-3.3807,-3.3807,-3.3807,-3.3807,-3.3807,-3.3807,-3.3807,-3.3807,-3.3807,-3.3807,-3.3807,-3.3807,-3.3807,-3.3807,-3.3807,-3.3807,-3.3807,-3.3807,-3.3807,-3.3807,-3.3807,-3.3807,-3.3807,-3.3807,-3.3807,-3.3807,-3.3807,-3.3807,-3.3807,-3.3807,-3.3807,-3.2619,-3.18,-3.18,-3.18,-3.18,-3.18,-3.18,-3.18,-3.18,-3.18,-3.18,-3.18,-3.18,-3.18,-3.18,-3.18,-3.2024,-3.249,-3.4007,-3.4507,0.0,0.0,-1.6928,-1.8914,-2.0717,-2.2172,0.0,-2.3474,-2.3951,-2.4153,-2.419,-2.4575,-2.5768,-2.6153,-2.6484,-2.709,-2.753,-2.8007,-2.8613,-2.8865,-2.8994,-2.8994,-2.8994,-2.8994,-2.8994,-2.8994,-2.8994,-2.8994,-2.8994,-2.8994,-2.8994,-2.8994,-2.8994,-2.8994,-2.8994,-2.8994,-2.8994,-2.9806,-3.0595,-3.1384,-3.1384,-3.1384,-3.1384,-3.1384,-3.2155,-3.3495,-3.3495,-3.3605,-3.3807,-3.3807,-3.3807,-3.3807,-3.3807,-3.3807,-3.3807,-3.3807,-3.3807,-3.3807,-3.3807,-3.3807,-3.3807,-3.3807,-3.3807,-3.3807,-3.3807,-3.3807,-3.3807,-3.3807,-3.3807,-3.3807,-3.3807,-3.3807,-3.3807,-3.3807,-3.3807,-3.3807,-3.3807,-3.3807,-3.3807,-3.3807,-3.3807,-3.3807,-3.3807,-3.3807,-3.3807,-3.3807,-3.3807,-3.3807,-3.3807,-3.3807,-3.3807,-3.3807,-3.2619,-3.18,-3.18,-3.18,-3.18,-3.18,-3.18,-3.18,-3.18,-3.18,-3.18,-3.18,-3.18,-3.18,-3.18,-3.18,-3.1921,-3.2214,-3.3921,-3.4352,0.0,-1.1689,0.0,-1.7016,-1.8565,-1.9949,-2.2429,-2.3015,-2.329,-2.4043,-2.419,-2.4226,-2.43,-2.4942,-2.5495,-2.5531,-2.6796,-2.7805,-2.786,-2.8521,-2.8994,-2.8994,-2.8994,-2.8994,-2.8994,-2.8994,-2.8994,-2.8994,-2.8994,-2.8994,-2.8994,-2.8994,-2.8994,-2.8994,-2.8994,-2.8994,-2.8994,-2.9806,-3.0595,-3.1384,-3.1384,-3.1384,-3.1384,-3.1384,-3.1861,-3.2669,-3.2669,-3.3109,-3.3807,-3.3807,-3.3807,-3.3807,-3.3807,-3.3807,-3.3807,-3.3807,-3.3807,-3.3807,-3.3807,-3.3807,-3.3807,-3.3807,-3.3807,-3.3807,-3.3807,-3.3807,-3.3807,-3.3807,-3.3807,-3.3807,-3.3807,-3.3807,-3.3807,-3.3807,-3.3807,-3.3807,-3.3807,-3.3807,-3.3807,-3.3807,-3.3807,-3.3807,-3.3807,-3.3807,-3.3807,-3.3807,-3.3807,-3.3807,-3.3807,-3.3807,-3.3807,-3.3807,-3.2619,-3.18,-3.18,-3.18,-3.18,-3.18,-3.18,-3.18,-3.18,-3.18,-3.18,-3.18,-3.18,-3.18,-3.18,-3.18,-3.2283,-3.3214,-3.3335,-3.3869,0.0,0.0,0.0,-1.4719,-1.6838,-1.8653,-1.9577,-2.1054,-2.2464,-2.3272,-2.3437,-2.3584,-2.4098,-2.4428,-2.4795,-2.5329,-2.588,-2.6429,-2.6961,-2.7291,-2.7475,-2.7475,-2.7475,-2.7475,-2.7475,-2.7934,-2.8227,-2.8227,-2.8723,-2.8994,-2.8994,-2.8994,-2.8994,-2.8994,-2.8994,-2.8994,-2.8994,-2.9287,-2.9586,-2.9861,-2.9861,-2.9861,-2.9861,-2.9861,-3.0301,-3.1072,-3.1072,-3.21,-3.3807,-3.3807,-3.3807,-3.3807,-3.3807,-3.3807,-3.3807,-3.3807,-3.3807,-3.3807,-3.3807,-3.3807,-3.3807,-3.3807,-3.3807,-3.3807,-3.3807,-3.3807,-3.3807,-3.3807,-3.3807,-3.3807,-3.3807,-3.3807,-3.3807,-3.3807,-3.3807,-3.3807,-3.3807,-3.3807,-3.3807,-3.3807,-3.3807,-3.3807,-3.3807,-3.3807,-3.3807,-3.3807,-3.3807,-3.3807,-3.3807,-3.3807,-3.3807,-3.3807,-3.2619,-3.18,-3.18,-3.18,-3.18,-3.18,-3.18,-3.18,-3.18,-3.18,-3.18,-3.18,-3.18,-3.18,-3.18,-3.18,-3.199,-3.2352,-3.299,-3.3145,-0.865,0.0,0.0,0.0,-1.5085,-1.6711,-1.8388,-1.9671,-2.0924,-2.2318,-2.2593,-2.285,-2.3657,-2.3804,-2.4061,-2.4869,-2.5219,-2.5605,-2.6117,-2.6429,-2.6612,-2.6612,-2.6612,-2.6612,-2.6612,-2.709,-2.7402,-2.7402,-2.7897,-2.8297,-2.8594,-2.8613,-2.8723,-2.8975,-2.8994,-2.8994,-2.8994,-2.8994,-2.8994,-2.8994,-2.8994,-2.8994,-2.8994,-2.8994,-2.9457,-3.021,-3.021,-3.1256,-3.3018,-3.3293,-3.3403,-3.3421,-3.3697,-3.3807,-3.3807,-3.3807,-3.3807,-3.3807,-3.3807,-3.3807,-3.3807,-3.3807,-3.3807,-3.3807,-3.3807,-3.3807,-3.3807,-3.3807,-3.3807,-3.3807,-3.3807,-3.3807,-3.3807,-3.3807,-3.3807,-3.3807,-3.3807,-3.3807,-3.3807,-3.3807,-3.3807,-3.3807,-3.3807,-3.3807,-3.3807,-3.3807,-3.3807,-3.3807,-3.3807,-3.3419,-3.3136,-3.3136,-3.2335,-3.18,-3.18,-3.18,-3.18,-3.18,-3.18,-3.18,-3.18,-3.18,-3.18,-3.18,-3.18,-3.18,-3.18,-3.18,-3.1972,-3.23,-3.2645,-3.2972,0.0,0.0,0.0,0.0,-1.3266,-1.405,-1.8943,-1.8933,-1.8611,-2.118,-2.1692,-2.1951,-2.2813,-2.296,-2.3217,-2.4006,-2.4814,-2.5366,-2.5366,-2.6043,-2.6539,-2.6539,-2.6539,-2.6539,-2.6539,-2.6557,-2.6557,-2.6557,-2.6594,-2.6943,-2.7714,-2.7787,-2.8154,-2.892,-2.8975,-2.8994,-2.8994,-2.8994,-2.8994,-2.8994,-2.8994,-2.8994,-2.8994,-2.8994,-2.9439,-3.0173,-3.0173,-3.0613,-3.1384,-3.2228,-3.2577,-3.2651,-3.3421,-3.3733,-3.3733,-3.3733,-3.3733,-3.3733,-3.3733,-3.3733,-3.3733,-3.3733,-3.3752,-3.3752,-3.3752,-3.377,-3.3807,-3.3807,-3.3807,-3.3807,-3.3807,-3.3807,-3.3807,-3.3807,-3.3807,-3.3807,-3.3807,-3.3807,-3.3807,-3.3807,-3.3807,-3.3807,-3.3807,-3.3807,-3.3807,-3.3807,-3.3807,-3.3807,-3.3734,-3.2601,-3.18,-3.18,-3.18,-3.18,-3.18,-3.18,-3.18,-3.18,-3.18,-3.18,-3.18,-3.18,-3.18,-3.18,-3.18,-3.18,-3.18,-3.18,-3.23,-3.3231,-3.2248,-3.3369,-0.7718,0.0,0.0,0.0,0.0,0.0,-1.3914,-1.4861,-1.6162,-1.8629,-1.9124,-1.973,-2.1749,-2.2116,-2.2189,-2.2428,-2.3621,-2.452,-2.452,-2.4722,-2.4869,-2.4869,-2.4869,-2.4869,-2.4869,-2.5383,-2.5713,-2.5713,-2.6264,-2.6704,-2.6924,-2.7475,-2.7897,-2.8117,-2.8705,-2.8994,-2.8994,-2.8994,-2.8994,-2.8994,-2.8994,-2.8994,-2.8994,-2.8994,-2.9104,-2.9347,-2.9347,-2.9475,-2.9769,-3.1164,-3.1733,-3.1751,-3.1971,-3.2045,-3.2045,-3.2045,-3.2045,-3.2045,-3.2045,-3.2045,-3.2045,-3.2045,-3.2467,-3.2944,-3.2944,-3.3348,-3.3807,-3.3807,-3.3807,-3.3807,-3.3807,-3.3807,-3.3807,-3.3807,-3.3807,-3.3807,-3.3807,-3.3807,-3.3807,-3.3807,-3.3807,-3.3807,-3.3807,-3.3807,-3.3807,-3.3807,-3.3807,-3.3447,-3.2486,-3.202,-3.18,-3.18,-3.18,-3.18,-3.18,-3.18,-3.18,-3.18,-3.18,-3.18,-3.18,-3.18,-3.18,-3.18,-3.18,-3.18,-3.18,-3.18,-3.1938,-3.2214,-3.1921,-3.2248,0.0,0.0,0.0,-1.0635,0.0,0.0,-1.3045,-1.3641,-1.4617,-1.7092,-1.7587,-1.8262,-2.0354,-2.0774,-2.0994,-2.1692,-2.2575,-2.3309,-2.3657,-2.3988,-2.419,-2.419,-2.419,-2.419,-2.419,-2.4612,-2.4887,-2.4887,-2.5328,-2.575,-2.608,-2.6851,-2.7291,-2.7291,-2.8081,-2.8503,-2.8503,-2.881,-2.8994,-2.8994,-2.8994,-2.8994,-2.8994,-2.8994,-2.8994,-2.8994,-2.8994,-2.8994,-2.9067,-3.0008,-3.0595,-3.0925,-3.1256,-3.1384,-3.1384,-3.1384,-3.1384,-3.1384,-3.1384,-3.1384,-3.1384,-3.1384,-3.1715,-3.21,-3.21,-3.2669,-3.3366,-3.3715,-3.3476,-3.3128,-3.3128,-3.3128,-3.3238,-3.3697,-3.3807,-3.3807,-3.3807,-3.3807,-3.3807,-3.3807,-3.3807,-3.3807,-3.3807,-3.3332,-3.2952,-3.2952,-3.2952,-3.2666,-3.1893,-3.18,-3.18,-3.18,-3.18,-3.18,-3.18,-3.18,-3.18,-3.18,-3.18,-3.18,-3.18,-3.18,-3.18,-3.18,-3.18,-3.18,-3.18,-3.18,-3.18,-3.18,-3.18,-3.18,0.0,0.0,0.0,-1.232,-1.1824,0.0,-1.4265,-1.3895,-1.3616,-1.5892,-1.6376,-1.6853,-1.8463,-1.8831,-1.9396,-2.0884,-2.1362,-2.184,-2.274,-2.3474,-2.3933,-2.3933,-2.4006,-2.4061,-2.4061,-2.4153,-2.419,-2.419,-2.419,-2.4502,-2.5237,-2.6025,-2.6465,-2.6465,-2.7255,-2.7658,-2.7658,-2.8466,-2.8888,-2.8888,-2.8957,-2.8994,-2.8994,-2.8994,-2.8994,-2.8994,-2.8994,-2.8994,-2.8994,-2.8994,-2.9439,-3.0136,-3.0852,-3.1127,-3.1127,-3.1127,-3.1127,-3.1127,-3.1127,-3.1127,-3.1127,-3.1127,-3.1182,-3.1256,-3.1256,-3.1825,-3.2632,-3.333,-3.2852,-3.21,-3.21,-3.2155,-3.2467,-3.3532,-3.3807,-3.3807,-3.3807,-3.3807,-3.3807,-3.3807,-3.3807,-3.3807,-3.3807,-3.2684,-3.18,-3.18,-3.18,-3.18,-3.18,-3.18,-3.18,-3.18,-3.18,-3.18,-3.18,-3.18,-3.18,-3.18,-3.18,-3.18,-3.18,-3.18,-3.18,-3.18,-3.18,-3.18,-3.18,-3.18,-3.18,-3.18,-3.18,-3.18,-1.1264,-1.1563,-1.1988,-1.1857,-1.2624,0.0,-1.1819,-1.188,-1.2363,-1.2916,-1.3039,-1.3526,-1.5141,-1.5967,-1.65,-1.683,-1.8519,-2.0299,-2.1822,-2.2152,-2.228,-2.228,-2.2832,-2.3235,-2.3235,-2.3823,-2.419,-2.419,-2.419,-2.4263,-2.4428,-2.5199,-2.5621,-2.5621,-2.641,-2.6833,-2.6833,-2.764,-2.8026,-2.8044,-2.8705,-2.8994,-2.8994,-2.8994,-2.8994,-2.8994,-2.8994,-2.8994,-2.8994,-2.8994,-2.9085,-2.9255,-2.942,-2.9475,-2.9475,-2.9475,-2.9475,-2.9475,-2.9475,-2.9475,-2.9475,-2.9475,-2.9916,-3.043,-3.043,-3.0999,-3.1659,-3.1806,-3.1715,-3.1549,-3.1549,-3.188,-3.2467,-3.3532,-3.3807,-3.3807,-3.3807,-3.3807,-3.3807,-3.3807,-3.3807,-3.3807,-3.3807,-3.2684,-3.18,-3.18,-3.18,-3.18,-3.18,-3.18,-3.18,-3.18,-3.18,-3.18,-3.18,-3.18,-3.18,-3.18,-3.18,-3.18,-3.18,-3.18,-3.18,-3.18,-3.18,-3.18,-3.18,-3.18,-3.18,-3.18,-3.18,-3.18,-1.2464,-1.2497,-1.2737,-1.2907,-1.3304,0.0,0.0,-1.2557,-1.2837,-1.368,-1.3209,-1.3146,-1.4757,-1.5081,-1.5233,-1.5619,-1.7381,-1.8849,-1.9289,-2.0758,-2.1803,-2.1803,-2.2152,-2.2391,-2.2391,-2.2758,-2.2997,-2.2997,-2.3364,-2.3602,-2.3602,-2.4355,-2.4795,-2.4795,-2.5566,-2.5988,-2.5988,-2.6796,-2.72,-2.7218,-2.8026,-2.8411,-2.8429,-2.8833,-2.8994,-2.8994,-2.8994,-2.8994,-2.8994,-2.8994,-2.8994,-2.8994,-2.8994,-2.8994,-2.8994,-2.8994,-2.8994,-2.8994,-2.8994,-2.8994,-2.8994,-2.8994,-2.925,-2.9604,-2.9604,-3.0173,-3.0797,-3.0797,-3.0797,-3.0834,-3.0962,-3.0797,-3.1146,-3.3293,-3.3807,-3.3807,-3.3807,-3.3807,-3.3807,-3.3807,-3.3807,-3.3578,-3.2921,-3.2249,-3.18,-3.18,-3.18,-3.18,-3.18,-3.18,-3.18,-3.18,-3.18,-3.18,-3.18,-3.18,-3.18,-3.18,-3.18,-3.18,-3.18,-3.18,-3.18,-3.18,-3.18,-3.18,-3.18,-3.18,-3.18,-3.18,-3.18,-3.18,-1.385,-1.3756,-1.3917,-1.435,-1.4257,-1.4065,0.0,0.0,0.0,-1.4702,-1.3876,-1.3358,-1.4672,-1.4416,-1.4231,-1.4873,-1.634,-1.7165,-1.6523,-1.8849,-2.0684,-2.0831,-2.1272,-2.1473,-2.1343,-2.1325,-2.1454,-2.1784,-2.2097,-2.2428,-2.2758,-2.3529,-2.3969,-2.3969,-2.474,-2.5182,-2.5182,-2.597,-2.6374,-2.6374,-2.7328,-2.7787,-2.7824,-2.8631,-2.8994,-2.8994,-2.8994,-2.8994,-2.8994,-2.8994,-2.8994,-2.8994,-2.8994,-2.8994,-2.8994,-2.8994,-2.8994,-2.8994,-2.8994,-2.8994,-2.8994,-2.8994,-2.8994,-2.8994,-2.8994,-2.9457,-2.9971,-2.9971,-2.9971,-3.0026,-3.0228,-2.9659,-2.9677,-3.2265,-3.3348,-3.3807,-3.3807,-3.3807,-3.3807,-3.3807,-3.3807,-3.3361,-3.202,-3.18,-3.18,-3.18,-3.18,-3.18,-3.18,-3.18,-3.18,-3.18,-3.18,-3.18,-3.18,-3.18,-3.18,-3.18,-3.18,-3.18,-3.18,-3.18,-3.18,-3.18,-3.18,-3.18,-3.18,-3.18,-3.18,-3.18,-3.18,-3.18,-1.6302,-1.6441,-1.6518,-1.5312,-1.6047,-1.6395,-1.3689,0.0,-1.3835,-1.2659,0.0,-1.2196,-1.2378,0.0,0.0,-1.2404,-1.3764,-1.4806,-1.4781,-1.5716,-1.6657,-1.7367,-1.9347,-2.0372,-1.9638,-1.958,-2.0205,-2.1692,-2.0501,-2.0354,-2.1876,-2.2703,-2.3144,-2.3144,-2.3914,-2.4337,-2.4337,-2.5126,-2.555,-2.555,-2.7071,-2.7787,-2.7824,-2.8631,-2.8994,-2.8994,-2.8994,-2.8994,-2.8994,-2.8994,-2.8994,-2.8994,-2.8994,-2.8994,-2.8994,-2.8994,-2.8994,-2.8994,-2.8994,-2.8994,-2.8994,-2.8994,-2.8994,-2.8994,-2.8994,-2.9049,-2.9122,-2.9122,-2.9122,-2.9122,-2.9182,-2.9085,-2.9085,-2.9452,-3.1733,-3.3807,-3.3807,-3.3807,-3.3807,-3.3807,-3.3807,-3.3361,-3.202,-3.18,-3.18,-3.18,-3.18,-3.18,-3.18,-3.18,-3.18,-3.18,-3.18,-3.18,-3.18,-3.18,-3.18,-3.18,-3.18,-3.18,-3.18,-3.18,-3.18,-3.18,-3.18,-3.18,-3.18,-3.18,-3.18,-3.18,-3.18,-3.18,-1.682,-1.6776,-1.6801,-1.6186,-1.6202,-1.6037,-1.4702,-1.434,-1.4246,-1.4065,0.0,0.0,0.0,0.0,0.0,0.0,-1.2968,-1.3552,-1.3106,-1.419,-1.5484,-1.6762,-1.7367,-1.795,-1.8555,-1.8188,-1.8592,-2.0241,-1.9271,-1.9326,-2.096,-2.2299,-2.2997,-2.2997,-2.3786,-2.419,-2.419,-2.452,-2.4685,-2.4704,-2.5841,-2.6649,-2.7126,-2.7934,-2.8576,-2.8994,-2.8994,-2.8994,-2.8994,-2.8994,-2.8994,-2.8994,-2.8994,-2.8994,-2.8994,-2.8994,-2.8994,-2.8994,-2.8994,-2.8994,-2.8994,-2.8994,-2.8994,-2.8994,-2.8994,-2.8994,-2.8994,-2.8994,-2.8994,-2.8994,-2.8994,-2.8994,-2.8994,-2.8994,-3.002,-3.1017,-3.1017,-3.2485,-3.3807,-3.3807,-3.3807,-3.3606,-3.3045,-3.2952,-3.2716,-3.1929,-3.18,-3.18,-3.18,-3.18,-3.18,-3.18,-3.18,-3.18,-3.18,-3.18,-3.18,-3.18,-3.18,-3.18,-3.18,-3.18,-3.18,-3.18,-3.18,-3.18,-3.18,-3.18,-3.18,-3.18,-3.18,-3.18,-1.7527,-1.7364,-1.7255,-1.6802,-1.6262,-1.5719,-1.5271,-1.4891,-1.4782,-1.5379,-1.4754,0.0,0.0,0.0,-1.2804,-1.236,0.0,-1.2899,-1.2107,-1.2858,-1.4087,-1.5722,-1.5802,-1.6243,-1.7638,-1.6633,-1.6683,-1.85,-1.7491,-1.7674,-1.9732,-2.1198,-2.2208,-2.2666,-2.3456,-2.3988,-2.419,-2.419,-2.419,-2.4208,-2.5035,-2.5695,-2.6319,-2.7328,-2.8117,-2.8686,-2.8883,-2.8994,-2.8994,-2.8994,-2.8994,-2.8994,-2.8994,-2.8994,-2.8994,-2.8994,-2.8994,-2.8994,-2.8994,-2.8994,-2.8994,-2.8994,-2.8994,-2.8994,-2.8994,-2.8994,-2.8994,-2.8994,-2.8994,-2.8994,-2.8994,-2.8994,-2.8994,-2.8994,-2.8994,-2.8994,-2.8994,-3.1531,-3.3807,-3.3807,-3.3807,-3.3807,-3.3807,-3.3494,-3.2921,-3.1965,-3.18,-3.18,-3.18,-3.18,-3.18,-3.18,-3.18,-3.18,-3.18,-3.18,-3.18,-3.18,-3.18,-3.18,-3.18,-3.18,-3.18,-3.18,-3.18,-3.18,-3.18,-3.18,-3.18,-3.18,-3.18,-3.18,-1.9033,-1.9014,-1.8634,-1.7092,-1.6675,-1.6258,-1.4686,-1.4909,-1.547,-1.5488,-1.6081,-1.6584,-1.6621,-1.5954,-1.4886,0.0,-1.3086,0.0,0.0,-1.1386,-1.1541,-1.323,-1.4774,-1.6022,-1.6853,-1.4793,-1.4407,-1.6798,-1.4793,-1.4841,-1.8005,-1.8959,-2.0152,-2.1803,-2.263,-2.3419,-2.419,-2.419,-2.419,-2.4208,-2.5035,-2.5421,-2.5495,-2.7071,-2.7805,-2.7879,-2.8668,-2.8994,-2.8994,-2.8994,-2.8994,-2.8994,-2.8994,-2.8994,-2.8994,-2.8994,-2.8994,-2.8994,-2.8994,-2.8994,-2.8994,-2.8994,-2.8994,-2.8994,-2.8994,-2.8994,-2.8994,-2.8994,-2.8994,-2.8994,-2.8994,-2.8994,-2.8994,-2.8994,-2.8994,-2.8994,-2.8994,-3.1531,-3.3807,-3.3807,-3.3807,-3.3807,-3.3807,-3.2731,-3.1856,-3.18,-3.18,-3.18,-3.18,-3.18,-3.18,-3.18,-3.18,-3.18,-3.18,-3.18,-3.18,-3.18,-3.18,-3.18,-3.18,-3.18,-3.18,-3.18,-3.18,-3.18,-3.18,-3.18,-3.18,-3.18,-3.18,-3.18,-1.9087,-1.9087,-1.8833,-1.7762,-1.7092,-1.6421,-1.5325,-1.5307,-1.5506,-1.5506,-1.6135,-1.6693,-1.6693,-1.6045,0.0,0.0,0.0,-1.2651,0.0,-1.094,-1.1004,-1.1571,-1.3578,-1.4799,-1.4536,-1.4261,-1.4646,-1.6004,-1.5343,-1.5821,-1.7986,-1.9381,-2.0354,-2.0923,-2.2281,-2.3144,-2.34,-2.3933,-2.419,-2.419,-2.4483,-2.4869,-2.5421,-2.5972,-2.6502,-2.7053,-2.786,-2.8209,-2.8246,-2.8796,-2.8994,-2.8994,-2.8994,-2.8994,-2.8994,-2.8994,-2.8994,-2.8994,-2.8994,-2.8994,-2.8994,-2.8994,-2.8994,-2.8994,-2.8994,-2.8994,-2.8994,-2.8994,-2.8994,-2.8994,-2.8994,-2.8994,-2.8994,-2.8994,-2.8994,-2.8994,-2.8994,-3.0411,-3.21,-3.3513,-3.3807,-3.3807,-3.3807,-3.2684,-3.18,-3.18,-3.18,-3.18,-3.18,-3.18,-3.18,-3.18,-3.18,-3.18,-3.18,-3.18,-3.18,-3.18,-3.18,-3.18,-3.18,-2.9868,-2.9748,-3.1765,-3.18,-3.18,-3.18,-3.18,-3.18,-3.18,-3.18,-3.18,-1.9104,-1.9087,-1.8906,-1.8107,-1.7509,-1.6838,-1.5741,-1.5723,-1.5936,-1.5936,-1.657,-1.7219,-1.7509,-1.6896,-1.59,0.0,0.0,0.0,0.0,-1.0558,-1.0667,-1.0411,-1.2312,-1.356,-1.3317,-1.3251,-1.3791,-1.5178,-1.5013,-1.5674,-1.7568,-1.8926,-1.9898,-2.0484,-2.1548,-2.2392,-2.2978,-2.3511,-2.3914,-2.419,-2.419,-2.4465,-2.4999,-2.5274,-2.5676,-2.6227,-2.7328,-2.7787,-2.786,-2.8686,-2.8994,-2.8994,-2.8994,-2.8994,-2.8994,-2.8994,-2.8994,-2.8994,-2.8994,-2.8994,-2.8994,-2.8994,-2.8994,-2.8994,-2.8994,-2.8994,-2.8994,-2.8994,-2.8994,-2.8994,-2.8994,-2.8994,-2.8994,-2.8994,-2.8994,-2.9067,-2.9365,-3.0191,-3.1347,-3.2926,-3.3532,-3.3807,-3.3807,-3.289,-3.2073,-3.1837,-3.18,-3.18,-3.18,-3.18,-3.18,-3.18,-3.18,-3.18,-3.18,-3.18,-3.18,-3.18,-3.18,-3.18,-3.18,-2.992,-2.9799,-3.1765,-3.18,-3.18,-3.18,-3.18,-3.18,-3.18,-3.18,-3.18]}]]